<?xml version='1.0' encoding='UTF-8'?><gpx version="1.1" creator="JPX - https://github.com/jenetics/jpx" xmlns="http://www.topografix.com/GPX/1/1"><trk><trkseg><trkpt lat="38.68769980650467" lon="16.555392691620888"><ele>2.9999999999999996</ele><time>2026-05-03T06:40:28Z</time></trkpt><trkpt lat="38.687774130659804" lon="16.555376574832284"><ele>3.0</ele><time>2026-05-03T06:40:34Z</time></trkpt><trkpt lat="38.68783912664866" lon="16.555356917543353"><ele>3.0</ele><time>2026-05-03T06:40:40Z</time></trkpt><trkpt lat="38.68789833839352" lon="16.555324325537338"><ele>3.0</ele><time>2026-05-03T06:40:45Z</time></trkpt><trkpt lat="38.687956494980476" lon="16.55528725094018"><ele>3.0</ele><time>2026-05-03T06:40:51Z</time></trkpt><trkpt lat="38.68802838439703" lon="16.55525194901252"><ele>2.9999999999999996</ele><time>2026-05-03T06:40:57Z</time></trkpt><trkpt lat="38.6880823270224" lon="16.55530182703776"><ele>3.0</ele><time>2026-05-03T06:41:02Z</time></trkpt><trkpt lat="38.688138444512944" lon="16.55535191400196"><ele>2.9999999999999996</ele><time>2026-05-03T06:41:09Z</time></trkpt><trkpt lat="38.68819893900584" lon="16.555375314005833"><ele>3.0</ele><time>2026-05-03T06:41:14Z</time></trkpt><trkpt lat="38.68826450806168" lon="16.5553627907239"><ele>3.0</ele><time>2026-05-03T06:41:20Z</time></trkpt><trkpt lat="38.688330363818025" lon="16.55536900151242"><ele>3.0</ele><time>2026-05-03T06:41:31Z</time></trkpt><trkpt lat="38.688407067614705" lon="16.55533519971539"><ele>3.0</ele><time>2026-05-03T06:41:38Z</time></trkpt><trkpt lat="38.68847889064623" lon="16.55530258536459"><ele>2.9999999999999996</ele><time>2026-05-03T06:41:44Z</time></trkpt><trkpt lat="38.688544854532275" lon="16.555266829185893"><ele>3.0</ele><time>2026-05-03T06:41:50Z</time></trkpt><trkpt lat="38.68861250414245" lon="16.55522978823798"><ele>2.9999999999999996</ele><time>2026-05-03T06:41:56Z</time></trkpt><trkpt lat="38.68868187463245" lon="16.555194922543997"><ele>3.0</ele><time>2026-05-03T06:42:02Z</time></trkpt><trkpt lat="38.688737896052075" lon="16.555155126205804"><ele>3.0</ele><time>2026-05-03T06:42:07Z</time></trkpt><trkpt lat="38.68879673772694" lon="16.55512239512537"><ele>3.0</ele><time>2026-05-03T06:42:12Z</time></trkpt><trkpt lat="38.688852807350216" lon="16.555074951773562"><ele>3.0</ele><time>2026-05-03T06:42:17Z</time></trkpt><trkpt lat="38.68891899191995" lon="16.555037845435365"><ele>2.9999999999999996</ele><time>2026-05-03T06:42:23Z</time></trkpt><trkpt lat="38.688967506238896" lon="16.554984782120908"><ele>3.0</ele><time>2026-05-03T06:42:29Z</time></trkpt><trkpt lat="38.68902389946082" lon="16.554936277598795"><ele>2.9999999999999996</ele><time>2026-05-03T06:42:34Z</time></trkpt><trkpt lat="38.68909007268079" lon="16.554889896676624"><ele>3.0</ele><time>2026-05-03T06:42:39Z</time></trkpt><trkpt lat="38.68914391661404" lon="16.554828224610173"><ele>3.0</ele><time>2026-05-03T06:42:45Z</time></trkpt><trkpt lat="38.68919633947697" lon="16.554771635871298"><ele>3.0</ele><time>2026-05-03T06:42:50Z</time></trkpt><trkpt lat="38.68925332804543" lon="16.554703096718338"><ele>3.0</ele><time>2026-05-03T06:42:56Z</time></trkpt><trkpt lat="38.689306093899916" lon="16.554644474596984"><ele>2.9999999999999996</ele><time>2026-05-03T06:43:01Z</time></trkpt><trkpt lat="38.68934135060834" lon="16.554577508546114"><ele>3.0</ele><time>2026-05-03T06:43:07Z</time></trkpt><trkpt lat="38.689394417674066" lon="16.554500454346456"><ele>2.9999999999999996</ele><time>2026-05-03T06:43:13Z</time></trkpt><trkpt lat="38.689436627464715" lon="16.55442240644308"><ele>3.0</ele><time>2026-05-03T06:43:19Z</time></trkpt><trkpt lat="38.68948917017304" lon="16.554372016037625"><ele>3.0</ele><time>2026-05-03T06:43:24Z</time></trkpt><trkpt lat="38.68954826532659" lon="16.55431241300454"><ele>3.0</ele><time>2026-05-03T06:43:30Z</time></trkpt><trkpt lat="38.68960046467142" lon="16.554246640476574"><ele>3.0</ele><time>2026-05-03T06:43:35Z</time></trkpt><trkpt lat="38.68964441609418" lon="16.554170005944727"><ele>2.9999999999999996</ele><time>2026-05-03T06:43:41Z</time></trkpt><trkpt lat="38.68968998755335" lon="16.55409987014468"><ele>3.0</ele><time>2026-05-03T06:43:47Z</time></trkpt><trkpt lat="38.689725151026884" lon="16.554027663275708"><ele>2.9999999999999996</ele><time>2026-05-03T06:43:52Z</time></trkpt><trkpt lat="38.68976318498485" lon="16.553948687914954"><ele>3.0</ele><time>2026-05-03T06:43:58Z</time></trkpt><trkpt lat="38.68980828006991" lon="16.553885532228144"><ele>3.0</ele><time>2026-05-03T06:44:03Z</time></trkpt><trkpt lat="38.689850873536315" lon="16.553804420140033"><ele>3.0</ele><time>2026-05-03T06:44:09Z</time></trkpt><trkpt lat="38.689891603632084" lon="16.553738290308797"><ele>3.0</ele><time>2026-05-03T06:44:14Z</time></trkpt><trkpt lat="38.68992590010743" lon="16.553662860346062"><ele>2.9999999999999996</ele><time>2026-05-03T06:44:19Z</time></trkpt><trkpt lat="38.68994331841401" lon="16.553566545627145"><ele>3.0</ele><time>2026-05-03T06:44:25Z</time></trkpt><trkpt lat="38.68996353720504" lon="16.553474112690505"><ele>3.2857142857142856</ele><time>2026-05-03T06:44:31Z</time></trkpt><trkpt lat="38.68997818498703" lon="16.553381791436763"><ele>3.571428571428571</ele><time>2026-05-03T06:44:36Z</time></trkpt><trkpt lat="38.69000567657658" lon="16.55328948103295"><ele>3.8571428571428568</ele><time>2026-05-03T06:44:42Z</time></trkpt><trkpt lat="38.690021983050364" lon="16.553194837345533"><ele>4.142857142857142</ele><time>2026-05-03T06:44:48Z</time></trkpt><trkpt lat="38.69003322949666" lon="16.553107713227654"><ele>4.428571428571429</ele><time>2026-05-03T06:44:53Z</time></trkpt><trkpt lat="38.69005002526496" lon="16.55302251107872"><ele>4.714285714285714</ele><time>2026-05-03T06:44:58Z</time></trkpt><trkpt lat="38.69007686101837" lon="16.55293494349827"><ele>5.0</ele><time>2026-05-03T06:45:04Z</time></trkpt><trkpt lat="38.69010940048458" lon="16.552858231619744"><ele>5.0</ele><time>2026-05-03T06:45:09Z</time></trkpt><trkpt lat="38.69013499293032" lon="16.552783787670055"><ele>5.0</ele><time>2026-05-03T06:45:14Z</time></trkpt><trkpt lat="38.69015067398155" lon="16.552695926200123"><ele>5.0</ele><time>2026-05-03T06:45:19Z</time></trkpt><trkpt lat="38.690149990500935" lon="16.552606187177762"><ele>5.0</ele><time>2026-05-03T06:45:24Z</time></trkpt><trkpt lat="38.69016749363716" lon="16.552515608568672"><ele>5.0</ele><time>2026-05-03T06:45:29Z</time></trkpt><trkpt lat="38.690188178895355" lon="16.552432821447276"><ele>5.0</ele><time>2026-05-03T06:45:35Z</time></trkpt><trkpt lat="38.69019594057124" lon="16.55234307815012"><ele>5.0</ele><time>2026-05-03T06:45:40Z</time></trkpt><trkpt lat="38.69020262243847" lon="16.55226014871767"><ele>5.0</ele><time>2026-05-03T06:45:45Z</time></trkpt><trkpt lat="38.690207915953565" lon="16.55217876448006"><ele>5.0</ele><time>2026-05-03T06:45:50Z</time></trkpt><trkpt lat="38.69020593369248" lon="16.552084472095125"><ele>5.0</ele><time>2026-05-03T06:45:55Z</time></trkpt><trkpt lat="38.690209491281834" lon="16.551995221833415"><ele>5.0</ele><time>2026-05-03T06:46:00Z</time></trkpt><trkpt lat="38.69021989966061" lon="16.551906348372732"><ele>5.0</ele><time>2026-05-03T06:46:05Z</time></trkpt><trkpt lat="38.69025113883465" lon="16.5518293673164"><ele>5.0</ele><time>2026-05-03T06:46:12Z</time></trkpt><trkpt lat="38.69025704108948" lon="16.551731480112416"><ele>5.0</ele><time>2026-05-03T06:46:17Z</time></trkpt><trkpt lat="38.69026973930616" lon="16.55164269241074"><ele>4.857142857142857</ele><time>2026-05-03T06:46:23Z</time></trkpt><trkpt lat="38.690286407171705" lon="16.551545988809725"><ele>4.714285714285714</ele><time>2026-05-03T06:46:30Z</time></trkpt><trkpt lat="38.69029165489307" lon="16.551451666916197"><ele>4.571428571428571</ele><time>2026-05-03T06:46:34Z</time></trkpt><trkpt lat="38.69027637446856" lon="16.551371098348596"><ele>4.428571428571429</ele><time>2026-05-03T06:46:38Z</time></trkpt><trkpt lat="38.69027403315493" lon="16.55128343092773"><ele>4.285714285714286</ele><time>2026-05-03T06:46:43Z</time></trkpt><trkpt lat="38.69029349414304" lon="16.551196695620312"><ele>4.142857142857142</ele><time>2026-05-03T06:46:50Z</time></trkpt><trkpt lat="38.690319253838936" lon="16.551118011269683"><ele>4.0</ele><time>2026-05-03T06:46:55Z</time></trkpt><trkpt lat="38.69033071849039" lon="16.551019843467373"><ele>3.9999999999999996</ele><time>2026-05-03T06:47:01Z</time></trkpt><trkpt lat="38.69033103426366" lon="16.55089168143691"><ele>4.0</ele><time>2026-05-03T06:47:07Z</time></trkpt><trkpt lat="38.690351345745604" lon="16.550801368111692"><ele>4.0</ele><time>2026-05-03T06:47:15Z</time></trkpt><trkpt lat="38.69035077304281" lon="16.550707269968548"><ele>4.0</ele><time>2026-05-03T06:47:20Z</time></trkpt><trkpt lat="38.690359156467956" lon="16.55062079102849"><ele>3.9999999999999996</ele><time>2026-05-03T06:47:26Z</time></trkpt><trkpt lat="38.69036815131484" lon="16.550525107439856"><ele>4.0</ele><time>2026-05-03T06:47:31Z</time></trkpt><trkpt lat="38.69037087952061" lon="16.550443348748583"><ele>4.0</ele><time>2026-05-03T06:47:36Z</time></trkpt><trkpt lat="38.69036921510463" lon="16.550347105421736"><ele>3.9999999999999996</ele><time>2026-05-03T06:47:42Z</time></trkpt><trkpt lat="38.69037200165879" lon="16.550264289786924"><ele>4.0</ele><time>2026-05-03T06:47:47Z</time></trkpt><trkpt lat="38.690393829660216" lon="16.55018483226368"><ele>4.0</ele><time>2026-05-03T06:47:52Z</time></trkpt><trkpt lat="38.690403450621524" lon="16.55010221113025"><ele>3.9999999999999996</ele><time>2026-05-03T06:47:58Z</time></trkpt><trkpt lat="38.690409388521964" lon="16.550018548921823"><ele>4.0</ele><time>2026-05-03T06:48:03Z</time></trkpt><trkpt lat="38.690402385704644" lon="16.549922704777845"><ele>4.0</ele><time>2026-05-03T06:48:08Z</time></trkpt><trkpt lat="38.690422939840104" lon="16.54984185693254"><ele>4.0</ele><time>2026-05-03T06:48:15Z</time></trkpt><trkpt lat="38.69043558533027" lon="16.549755858414553"><ele>3.9999999999999996</ele><time>2026-05-03T06:48:20Z</time></trkpt><trkpt lat="38.69044317797779" lon="16.549653672037888"><ele>4.0</ele><time>2026-05-03T06:48:26Z</time></trkpt><trkpt lat="38.69044615866429" lon="16.5495488509651"><ele>4.0</ele><time>2026-05-03T06:48:32Z</time></trkpt><trkpt lat="38.690452915168" lon="16.549461285413848"><ele>3.9999999999999996</ele><time>2026-05-03T06:48:38Z</time></trkpt><trkpt lat="38.69047507161392" lon="16.54937962779328"><ele>4.0</ele><time>2026-05-03T06:48:44Z</time></trkpt><trkpt lat="38.69049481654202" lon="16.54929257856698"><ele>4.0</ele><time>2026-05-03T06:48:50Z</time></trkpt><trkpt lat="38.690495462854265" lon="16.549208882462214"><ele>4.0</ele><time>2026-05-03T06:48:55Z</time></trkpt><trkpt lat="38.69049105216636" lon="16.549120489631786"><ele>3.9999999999999996</ele><time>2026-05-03T06:49:00Z</time></trkpt><trkpt lat="38.69050327769908" lon="16.549040116328012"><ele>4.0</ele><time>2026-05-03T06:49:05Z</time></trkpt><trkpt lat="38.690505526480614" lon="16.548946832204756"><ele>4.0</ele><time>2026-05-03T06:49:11Z</time></trkpt><trkpt lat="38.690503744251515" lon="16.548861113471595"><ele>3.9999999999999996</ele><time>2026-05-03T06:49:16Z</time></trkpt><trkpt lat="38.690521282107866" lon="16.548769043995467"><ele>4.0</ele><time>2026-05-03T06:49:22Z</time></trkpt><trkpt lat="38.6905173205957" lon="16.5486832346558"><ele>4.0</ele><time>2026-05-03T06:49:27Z</time></trkpt><trkpt lat="38.69053217915733" lon="16.54859284704592"><ele>4.0</ele><time>2026-05-03T06:49:33Z</time></trkpt><trkpt lat="38.69055183401839" lon="16.548513085300833"><ele>3.9999999999999996</ele><time>2026-05-03T06:49:39Z</time></trkpt><trkpt lat="38.69056549688593" lon="16.548427477614226"><ele>4.0</ele><time>2026-05-03T06:49:44Z</time></trkpt><trkpt lat="38.69056549948869" lon="16.54834472052945"><ele>4.0</ele><time>2026-05-03T06:49:49Z</time></trkpt><trkpt lat="38.69057430470849" lon="16.548254115398713"><ele>3.9999999999999996</ele><time>2026-05-03T06:49:54Z</time></trkpt><trkpt lat="38.69059349218813" lon="16.5481676302635"><ele>4.0</ele><time>2026-05-03T06:50:00Z</time></trkpt><trkpt lat="38.690597239352144" lon="16.54807837540401"><ele>4.0</ele><time>2026-05-03T06:50:05Z</time></trkpt><trkpt lat="38.69060638353298" lon="16.547991925084737"><ele>4.0</ele><time>2026-05-03T06:50:11Z</time></trkpt><trkpt lat="38.69063664595193" lon="16.547917116370662"><ele>3.9999999999999996</ele><time>2026-05-03T06:50:16Z</time></trkpt><trkpt lat="38.69065234954759" lon="16.54782940297221"><ele>4.0</ele><time>2026-05-03T06:50:22Z</time></trkpt><trkpt lat="38.69066157893263" lon="16.547746610466618"><ele>4.0</ele><time>2026-05-03T06:50:27Z</time></trkpt><trkpt lat="38.690682407171366" lon="16.54766430019628"><ele>3.9999999999999996</ele><time>2026-05-03T06:50:32Z</time></trkpt><trkpt lat="38.690711092440445" lon="16.5475794884112"><ele>4.0</ele><time>2026-05-03T06:50:38Z</time></trkpt><trkpt lat="38.69073634022247" lon="16.547482522060424"><ele>4.0</ele><time>2026-05-03T06:50:43Z</time></trkpt><trkpt lat="38.69078023340845" lon="16.54739506470559"><ele>4.142857142857142</ele><time>2026-05-03T06:50:50Z</time></trkpt><trkpt lat="38.69080015524402" lon="16.54731761951377"><ele>4.285714285714286</ele><time>2026-05-03T06:50:54Z</time></trkpt><trkpt lat="38.69085872949012" lon="16.547254085595625"><ele>4.428571428571429</ele><time>2026-05-03T06:51:01Z</time></trkpt><trkpt lat="38.69088802467477" lon="16.5471667299771"><ele>4.571428571428571</ele><time>2026-05-03T06:51:06Z</time></trkpt><trkpt lat="38.69092295547955" lon="16.547084931627534"><ele>4.714285714285714</ele><time>2026-05-03T06:51:12Z</time></trkpt><trkpt lat="38.69097745579592" lon="16.54702651547353"><ele>4.857142857142857</ele><time>2026-05-03T06:51:18Z</time></trkpt><trkpt lat="38.69097489184883" lon="16.54692458716198"><ele>5.0</ele><time>2026-05-03T06:51:21Z</time></trkpt><trkpt lat="38.69102975021554" lon="16.54687110930038"><ele>5.285714285714286</ele><time>2026-05-03T06:51:26Z</time></trkpt><trkpt lat="38.691060748144224" lon="16.54679651827385"><ele>5.571428571428571</ele><time>2026-05-03T06:51:31Z</time></trkpt><trkpt lat="38.69111161089057" lon="16.546740673709913"><ele>5.857142857142858</ele><time>2026-05-03T06:51:40Z</time></trkpt><trkpt lat="38.69118574639964" lon="16.546681388388194"><ele>6.142857142857142</ele><time>2026-05-03T06:51:44Z</time></trkpt><trkpt lat="38.69121922634728" lon="16.546610411035022"><ele>6.428571428571429</ele><time>2026-05-03T06:51:49Z</time></trkpt><trkpt lat="38.69128353234582" lon="16.546552369435894"><ele>6.714285714285714</ele><time>2026-05-03T06:51:56Z</time></trkpt><trkpt lat="38.69134407776551" lon="16.54650428796968"><ele>7.0</ele><time>2026-05-03T06:52:02Z</time></trkpt><trkpt lat="38.69139729740137" lon="16.546435262967606"><ele>7.285714285714286</ele><time>2026-05-03T06:52:08Z</time></trkpt><trkpt lat="38.69146499630262" lon="16.546408522808395"><ele>7.571428571428571</ele><time>2026-05-03T06:52:13Z</time></trkpt><trkpt lat="38.69151497514077" lon="16.546359029075155"><ele>7.857142857142858</ele><time>2026-05-03T06:52:19Z</time></trkpt><trkpt lat="38.691574778848285" lon="16.546322335560536"><ele>8.142857142857142</ele><time>2026-05-03T06:52:24Z</time></trkpt><trkpt lat="38.69163943131019" lon="16.54628620240576"><ele>8.428571428571429</ele><time>2026-05-03T06:52:30Z</time></trkpt><trkpt lat="38.691700101873415" lon="16.546259320383133"><ele>8.714285714285715</ele><time>2026-05-03T06:53:32Z</time></trkpt><trkpt lat="38.691756286633876" lon="16.54621439249327"><ele>9.0</ele><time>2026-05-03T06:53:40Z</time></trkpt><trkpt lat="38.69182049827257" lon="16.54617242622108"><ele>9.000000000000002</ele><time>2026-05-03T06:53:47Z</time></trkpt><trkpt lat="38.69188943760677" lon="16.54614203859"><ele>9.0</ele><time>2026-05-03T06:53:53Z</time></trkpt><trkpt lat="38.69195269045742" lon="16.546117819503902"><ele>9.0</ele><time>2026-05-03T06:53:58Z</time></trkpt><trkpt lat="38.692014410677686" lon="16.546082377255704"><ele>9.0</ele><time>2026-05-03T06:54:03Z</time></trkpt><trkpt lat="38.692076272766876" lon="16.546024823572157"><ele>9.0</ele><time>2026-05-03T06:54:10Z</time></trkpt><trkpt lat="38.692137323506444" lon="16.545991254991414"><ele>9.000000000000002</ele><time>2026-05-03T06:54:17Z</time></trkpt><trkpt lat="38.69220196605146" lon="16.545955656345708"><ele>9.0</ele><time>2026-05-03T06:54:23Z</time></trkpt><trkpt lat="38.692268987473" lon="16.545903003120948"><ele>8.714285714285715</ele><time>2026-05-03T06:54:27Z</time></trkpt><trkpt lat="38.69234071459476" lon="16.545866860987612"><ele>8.428571428571429</ele><time>2026-05-03T06:54:34Z</time></trkpt><trkpt lat="38.69239487501481" lon="16.54581182156188"><ele>8.142857142857142</ele><time>2026-05-03T06:54:41Z</time></trkpt><trkpt lat="38.692455106455235" lon="16.545777485363054"><ele>7.857142857142858</ele><time>2026-05-03T06:54:46Z</time></trkpt><trkpt lat="38.6925253044506" lon="16.54574243816463"><ele>7.571428571428571</ele><time>2026-05-03T06:54:52Z</time></trkpt><trkpt lat="38.69258970818305" lon="16.545729611874357"><ele>7.285714285714286</ele><time>2026-05-03T06:55:00Z</time></trkpt><trkpt lat="38.69264797942468" lon="16.545680275009573"><ele>7.0</ele><time>2026-05-03T06:55:04Z</time></trkpt><trkpt lat="38.69270925540018" lon="16.545660074948028"><ele>6.142857142857143</ele><time>2026-05-03T06:55:09Z</time></trkpt><trkpt lat="38.692765974151705" lon="16.54562099232103"><ele>5.285714285714286</ele><time>2026-05-03T06:55:14Z</time></trkpt><trkpt lat="38.692829038777624" lon="16.545598879642856"><ele>4.428571428571429</ele><time>2026-05-03T06:55:18Z</time></trkpt><trkpt lat="38.69287617256154" lon="16.545527383829846"><ele>3.571428571428571</ele><time>2026-05-03T06:55:26Z</time></trkpt><trkpt lat="38.69294787654979" lon="16.54550003616975"><ele>2.7142857142857144</ele><time>2026-05-03T06:55:32Z</time></trkpt><trkpt lat="38.69301146829078" lon="16.545476407137954"><ele>1.8571428571428572</ele><time>2026-05-03T06:55:37Z</time></trkpt><trkpt lat="38.69307921757409" lon="16.545446163723764"><ele>1.0</ele><time>2026-05-03T06:55:42Z</time></trkpt><trkpt lat="38.69316532680091" lon="16.545427208454026"><ele>1.0</ele><time>2026-05-03T06:55:50Z</time></trkpt><trkpt lat="38.69322547040798" lon="16.545389858484853"><ele>0.9999999999999999</ele><time>2026-05-03T06:55:55Z</time></trkpt><trkpt lat="38.69328310005061" lon="16.545349722015118"><ele>1.0</ele><time>2026-05-03T06:56:00Z</time></trkpt><trkpt lat="38.693348752631984" lon="16.54531513708094"><ele>1.0</ele><time>2026-05-03T06:56:06Z</time></trkpt><trkpt lat="38.693403932112716" lon="16.545257719269504"><ele>0.9999999999999999</ele><time>2026-05-03T06:56:20Z</time></trkpt><trkpt lat="38.693460945576305" lon="16.545223216748976"><ele>1.0</ele><time>2026-05-03T06:56:25Z</time></trkpt><trkpt lat="38.693530462644816" lon="16.545171022796076"><ele>1.0</ele><time>2026-05-03T06:56:33Z</time></trkpt><trkpt lat="38.693593201272925" lon="16.54513292716087"><ele>1.8333333333333333</ele><time>2026-05-03T06:56:37Z</time></trkpt><trkpt lat="38.69367153971214" lon="16.545091490576482"><ele>2.6666666666666665</ele><time>2026-05-03T06:56:42Z</time></trkpt><trkpt lat="38.69372864629963" lon="16.54505082382964"><ele>3.5</ele><time>2026-05-03T06:56:48Z</time></trkpt><trkpt lat="38.693792098802675" lon="16.544992704021233"><ele>4.333333333333333</ele><time>2026-05-03T06:56:53Z</time></trkpt><trkpt lat="38.693887584004855" lon="16.54498280776584"><ele>5.166666666666667</ele><time>2026-05-03T06:57:02Z</time></trkpt><trkpt lat="38.6939363560782" lon="16.5449150035496"><ele>6.0</ele><time>2026-05-03T06:57:07Z</time></trkpt><trkpt lat="38.69398740321751" lon="16.54485395885233"><ele>5.999999999999999</ele><time>2026-05-03T06:57:12Z</time></trkpt><trkpt lat="38.69405328576567" lon="16.544821376532774"><ele>6.0</ele><time>2026-05-03T06:57:17Z</time></trkpt><trkpt lat="38.69411473788527" lon="16.544784388331966"><ele>6.0</ele><time>2026-05-03T06:57:22Z</time></trkpt><trkpt lat="38.69416525857931" lon="16.54473311631971"><ele>6.0</ele><time>2026-05-03T06:57:28Z</time></trkpt><trkpt lat="38.694230051182934" lon="16.544698493066424"><ele>6.0</ele><time>2026-05-03T06:57:33Z</time></trkpt><trkpt lat="38.69429632348849" lon="16.5446285018745"><ele>5.999999999999999</ele><time>2026-05-03T06:57:39Z</time></trkpt><trkpt lat="38.69435872851145" lon="16.544617024031478"><ele>6.0</ele><time>2026-05-03T06:57:45Z</time></trkpt><trkpt lat="38.694411573225985" lon="16.544552875196484"><ele>6.571428571428571</ele><time>2026-05-03T06:57:52Z</time></trkpt><trkpt lat="38.69445942168543" lon="16.5445001120673"><ele>7.142857142857142</ele><time>2026-05-03T06:57:58Z</time></trkpt><trkpt lat="38.69452110554413" lon="16.544467629308564"><ele>7.7142857142857135</ele><time>2026-05-03T06:58:04Z</time></trkpt><trkpt lat="38.69458369217142" lon="16.54441285830662"><ele>8.285714285714285</ele><time>2026-05-03T06:58:09Z</time></trkpt><trkpt lat="38.69464344629159" lon="16.544379670822686"><ele>8.857142857142858</ele><time>2026-05-03T06:58:13.999Z</time></trkpt><trkpt lat="38.694701906768685" lon="16.544342061474183"><ele>9.428571428571429</ele><time>2026-05-03T06:58:18Z</time></trkpt><trkpt lat="38.694755195417436" lon="16.54429235310844"><ele>10.0</ele><time>2026-05-03T06:58:24Z</time></trkpt><trkpt lat="38.694827909672874" lon="16.544249740668462"><ele>10.0</ele><time>2026-05-03T06:58:31Z</time></trkpt><trkpt lat="38.69487457542944" lon="16.54419540749499"><ele>10.0</ele><time>2026-05-03T06:58:37Z</time></trkpt><trkpt lat="38.69493231731216" lon="16.544142791928344"><ele>10.0</ele><time>2026-05-03T06:58:45Z</time></trkpt><trkpt lat="38.69499901837214" lon="16.544108165028508"><ele>10.0</ele><time>2026-05-03T06:58:51Z</time></trkpt><trkpt lat="38.69506272606327" lon="16.54404901739488"><ele>10.0</ele><time>2026-05-03T06:58:56Z</time></trkpt><trkpt lat="38.695125796289034" lon="16.5440247761457"><ele>10.0</ele><time>2026-05-03T06:59:02Z</time></trkpt><trkpt lat="38.695187831534774" lon="16.543969191480414"><ele>10.0</ele><time>2026-05-03T06:59:09Z</time></trkpt><trkpt lat="38.695226534212736" lon="16.543904741173595"><ele>10.0</ele><time>2026-05-03T06:59:14Z</time></trkpt><trkpt lat="38.69528911208195" lon="16.54387422612883"><ele>10.0</ele><time>2026-05-03T06:59:19Z</time></trkpt><trkpt lat="38.69532730075677" lon="16.543796175670497"><ele>10.0</ele><time>2026-05-03T06:59:24Z</time></trkpt><trkpt lat="38.69538131401014" lon="16.54374452372988"><ele>10.0</ele><time>2026-05-03T06:59:29Z</time></trkpt><trkpt lat="38.69542653523798" lon="16.543682506095795"><ele>10.0</ele><time>2026-05-03T06:59:35Z</time></trkpt><trkpt lat="38.69548184827214" lon="16.543628907173186"><ele>10.0</ele><time>2026-05-03T06:59:47Z</time></trkpt><trkpt lat="38.69553466826441" lon="16.543577850443146"><ele>10.0</ele><time>2026-05-03T06:59:52Z</time></trkpt><trkpt lat="38.69557267778671" lon="16.54350997181631"><ele>10.0</ele><time>2026-05-03T06:59:58Z</time></trkpt><trkpt lat="38.69562638197247" lon="16.543450888124273"><ele>10.0</ele><time>2026-05-03T07:00:06Z</time></trkpt><trkpt lat="38.69568697145734" lon="16.543421804633144"><ele>10.0</ele><time>2026-05-03T07:00:12Z</time></trkpt><trkpt lat="38.69573435195652" lon="16.543368056863986"><ele>10.0</ele><time>2026-05-03T07:00:20Z</time></trkpt><trkpt lat="38.69578305138564" lon="16.543313060396304"><ele>10.0</ele><time>2026-05-03T07:00:26Z</time></trkpt><trkpt lat="38.69585029822561" lon="16.543258268226477"><ele>10.0</ele><time>2026-05-03T07:00:33Z</time></trkpt><trkpt lat="38.69590070390819" lon="16.543205864523184"><ele>10.0</ele><time>2026-05-03T07:00:39Z</time></trkpt><trkpt lat="38.695963067471745" lon="16.543185577469906"><ele>10.0</ele><time>2026-05-03T07:00:44Z</time></trkpt><trkpt lat="38.69600698010204" lon="16.5431242566787"><ele>10.0</ele><time>2026-05-03T07:00:49Z</time></trkpt><trkpt lat="38.69605303563324" lon="16.543065240978777"><ele>10.0</ele><time>2026-05-03T07:00:55Z</time></trkpt><trkpt lat="38.6961174862118" lon="16.543024225939394"><ele>10.0</ele><time>2026-05-03T07:01:02Z</time></trkpt><trkpt lat="38.69615425275712" lon="16.542954138007715"><ele>10.0</ele><time>2026-05-03T07:01:07Z</time></trkpt><trkpt lat="38.69620366308619" lon="16.542896057807894"><ele>10.0</ele><time>2026-05-03T07:01:13Z</time></trkpt><trkpt lat="38.696246181013" lon="16.54283582396222"><ele>10.0</ele><time>2026-05-03T07:01:20Z</time></trkpt><trkpt lat="38.696316588287786" lon="16.54281887326315"><ele>10.166666666666668</ele><time>2026-05-03T07:01:26Z</time></trkpt><trkpt lat="38.69638615952655" lon="16.542770745703848"><ele>10.333333333333334</ele><time>2026-05-03T07:01:32Z</time></trkpt><trkpt lat="38.696440835526865" lon="16.542706661822862"><ele>10.5</ele><time>2026-05-03T07:01:38Z</time></trkpt><trkpt lat="38.696522029646" lon="16.542663425806865"><ele>10.666666666666666</ele><time>2026-05-03T07:01:46Z</time></trkpt><trkpt lat="38.69656997145281" lon="16.542597314975346"><ele>10.833333333333332</ele><time>2026-05-03T07:01:52Z</time></trkpt><trkpt lat="38.69660956177608" lon="16.54252147129703"><ele>11.0</ele><time>2026-05-03T07:01:58Z</time></trkpt><trkpt lat="38.6966855820016" lon="16.54252495635084"><ele>11.0</ele><time>2026-05-03T07:02:06Z</time></trkpt><trkpt lat="38.69678859636665" lon="16.542579696649803"><ele>11.0</ele><time>2026-05-03T07:02:17Z</time></trkpt><trkpt lat="38.69689412378984" lon="16.54258062190964"><ele>11.0</ele><time>2026-05-03T07:02:31Z</time></trkpt><trkpt lat="38.69695725587675" lon="16.542534804786357"><ele>11.0</ele><time>2026-05-03T07:02:36Z</time></trkpt><trkpt lat="38.69701316288159" lon="16.542482213788325"><ele>11.0</ele><time>2026-05-03T07:02:43Z</time></trkpt><trkpt lat="38.697079528696726" lon="16.542442376235964"><ele>11.0</ele><time>2026-05-03T07:02:50Z</time></trkpt><trkpt lat="38.697128646934345" lon="16.54237303252417"><ele>11.142857142857142</ele><time>2026-05-03T07:02:57Z</time></trkpt><trkpt lat="38.697179553661385" lon="16.54230777960062"><ele>11.285714285714285</ele><time>2026-05-03T07:03:04Z</time></trkpt><trkpt lat="38.69724051840669" lon="16.542256605638993"><ele>11.428571428571427</ele><time>2026-05-03T07:03:10Z</time></trkpt><trkpt lat="38.697299710533265" lon="16.542203496717054"><ele>11.571428571428571</ele><time>2026-05-03T07:03:17Z</time></trkpt><trkpt lat="38.69735341442447" lon="16.542139756525117"><ele>11.714285714285714</ele><time>2026-05-03T07:03:24Z</time></trkpt><trkpt lat="38.69739935295057" lon="16.542078178622138"><ele>11.857142857142856</ele><time>2026-05-03T07:03:30Z</time></trkpt><trkpt lat="38.69745058026829" lon="16.542017830761775"><ele>12.0</ele><time>2026-05-03T07:03:37Z</time></trkpt><trkpt lat="38.69749398391748" lon="16.541953412901215"><ele>11.999999999999998</ele><time>2026-05-03T07:03:43Z</time></trkpt><trkpt lat="38.697529283534166" lon="16.541873303653947"><ele>12.0</ele><time>2026-05-03T07:03:50Z</time></trkpt><trkpt lat="38.69757767646668" lon="16.541812887811595"><ele>12.0</ele><time>2026-05-03T07:03:56Z</time></trkpt><trkpt lat="38.697629347298964" lon="16.54175044540688"><ele>12.0</ele><time>2026-05-03T07:04:03Z</time></trkpt><trkpt lat="38.69768544269796" lon="16.54166286296231"><ele>12.0</ele><time>2026-05-03T07:04:11Z</time></trkpt><trkpt lat="38.697736467826324" lon="16.54160088563035"><ele>11.999999999999998</ele><time>2026-05-03T07:04:19Z</time></trkpt><trkpt lat="38.69776833543855" lon="16.541516421123518"><ele>12.0</ele><time>2026-05-03T07:04:25Z</time></trkpt><trkpt lat="38.697824211136" lon="16.541475732578213"><ele>11.857142857142856</ele><time>2026-05-03T07:04:31Z</time></trkpt><trkpt lat="38.69784281882161" lon="16.541397933424037"><ele>11.714285714285714</ele><time>2026-05-03T07:04:37Z</time></trkpt><trkpt lat="38.697885908302915" lon="16.541338649094833"><ele>11.571428571428571</ele><time>2026-05-03T07:04:45Z</time></trkpt><trkpt lat="38.69793421251828" lon="16.541275023566122"><ele>11.428571428571427</ele><time>2026-05-03T07:04:52Z</time></trkpt><trkpt lat="38.697988865231004" lon="16.541233308800802"><ele>11.285714285714285</ele><time>2026-05-03T07:04:57Z</time></trkpt><trkpt lat="38.69803809407891" lon="16.541179514269658"><ele>11.142857142857142</ele><time>2026-05-03T07:05:04Z</time></trkpt><trkpt lat="38.69809151957234" lon="16.541130501332056"><ele>11.0</ele><time>2026-05-03T07:05:11Z</time></trkpt><trkpt lat="38.69815431500745" lon="16.541098245640608"><ele>11.0</ele><time>2026-05-03T07:05:18Z</time></trkpt><trkpt lat="38.69820367995812" lon="16.54104563152632"><ele>11.0</ele><time>2026-05-03T07:05:24Z</time></trkpt><trkpt lat="38.69827528029282" lon="16.540996358045987"><ele>11.0</ele><time>2026-05-03T07:05:32Z</time></trkpt><trkpt lat="38.6983354435463" lon="16.540956995754996"><ele>11.0</ele><time>2026-05-03T07:05:38Z</time></trkpt><trkpt lat="38.698439953682175" lon="16.54091438760894"><ele>11.0</ele><time>2026-05-03T07:06:18Z</time></trkpt><trkpt lat="38.69849667655664" lon="16.54086997379088"><ele>11.0</ele><time>2026-05-03T07:06:24Z</time></trkpt><trkpt lat="38.69854054966484" lon="16.540801637498916"><ele>9.571428571428571</ele><time>2026-05-03T07:06:30Z</time></trkpt><trkpt lat="38.698607460992534" lon="16.540786520878445"><ele>8.142857142857142</ele><time>2026-05-03T07:06:38Z</time></trkpt><trkpt lat="38.698658981474246" lon="16.540736472129847"><ele>6.714285714285714</ele><time>2026-05-03T07:06:45Z</time></trkpt><trkpt lat="38.69872430924207" lon="16.540705878342848"><ele>5.285714285714286</ele><time>2026-05-03T07:06:51Z</time></trkpt><trkpt lat="38.69878944406277" lon="16.540658326926934"><ele>3.8571428571428568</ele><time>2026-05-03T07:06:59Z</time></trkpt><trkpt lat="38.69886567379905" lon="16.540654805181745"><ele>2.4285714285714284</ele><time>2026-05-03T07:07:07Z</time></trkpt><trkpt lat="38.69892582667126" lon="16.540613801825117"><ele>1.0</ele><time>2026-05-03T07:07:14Z</time></trkpt><trkpt lat="38.69898429320364" lon="16.540546492537946"><ele>0.9999999999999999</ele><time>2026-05-03T07:07:21Z</time></trkpt><trkpt lat="38.69905308589239" lon="16.540512052345008"><ele>1.0</ele><time>2026-05-03T07:07:29Z</time></trkpt><trkpt lat="38.69909174246653" lon="16.540434962319388"><ele>1.0</ele><time>2026-05-03T07:07:35Z</time></trkpt><trkpt lat="38.699206015957266" lon="16.54040040837274"><ele>1.0</ele><time>2026-05-03T07:07:47Z</time></trkpt><trkpt lat="38.699268840036254" lon="16.54039196673202"><ele>0.9999999999999999</ele><time>2026-05-03T07:07:52Z</time></trkpt><trkpt lat="38.699330018074896" lon="16.540370238173814"><ele>1.0</ele><time>2026-05-03T07:07:58Z</time></trkpt><trkpt lat="38.69939328270334" lon="16.54032370372123"><ele>1.4285714285714284</ele><time>2026-05-03T07:08:05Z</time></trkpt><trkpt lat="38.69945965703339" lon="16.540283764401195"><ele>1.857142857142857</ele><time>2026-05-03T07:08:12Z</time></trkpt><trkpt lat="38.699514631789015" lon="16.54024237814872"><ele>2.2857142857142856</ele><time>2026-05-03T07:08:18Z</time></trkpt><trkpt lat="38.69957554967404" lon="16.54019873074326"><ele>2.714285714285714</ele><time>2026-05-03T07:08:25Z</time></trkpt><trkpt lat="38.69963444849764" lon="16.54016624295424"><ele>3.1428571428571423</ele><time>2026-05-03T07:08:31Z</time></trkpt><trkpt lat="38.699696533534066" lon="16.54012397940697"><ele>3.571428571428571</ele><time>2026-05-03T07:08:38Z</time></trkpt><trkpt lat="38.69974947275724" lon="16.54007724348425"><ele>4.0</ele><time>2026-05-03T07:08:44Z</time></trkpt><trkpt lat="38.699805166046254" lon="16.540035251367947"><ele>4.0</ele><time>2026-05-03T07:08:50Z</time></trkpt><trkpt lat="38.6998354882832" lon="16.539962919439123"><ele>3.9999999999999996</ele><time>2026-05-03T07:08:57Z</time></trkpt><trkpt lat="38.699834001322444" lon="16.539879945054018"><ele>4.0</ele><time>2026-05-03T07:09:06Z</time></trkpt><trkpt lat="38.69979604350093" lon="16.53981440516878"><ele>4.0</ele><time>2026-05-03T07:09:12Z</time></trkpt><trkpt lat="38.6997713119225" lon="16.53973407635089"><ele>3.9999999999999996</ele><time>2026-05-03T07:09:20Z</time></trkpt><trkpt lat="38.69971908040522" lon="16.53967772597556"><ele>4.0</ele><time>2026-05-03T07:09:31Z</time></trkpt><trkpt lat="38.69973981773403" lon="16.539600693765788"><ele>4.0</ele><time>2026-05-03T07:09:36Z</time></trkpt><trkpt lat="38.69970562073716" lon="16.539527709903634"><ele>4.571428571428571</ele><time>2026-05-03T07:09:45Z</time></trkpt><trkpt lat="38.69964019718606" lon="16.53948508017466"><ele>5.142857142857142</ele><time>2026-05-03T07:09:51Z</time></trkpt><trkpt lat="38.69961462291995" lon="16.539394178102732"><ele>5.7142857142857135</ele><time>2026-05-03T07:09:57Z</time></trkpt><trkpt lat="38.69962183107719" lon="16.539310999439024"><ele>6.285714285714286</ele><time>2026-05-03T07:10:01Z</time></trkpt><trkpt lat="38.69963728705389" lon="16.5392300663526"><ele>6.857142857142856</ele><time>2026-05-03T07:10:08Z</time></trkpt><trkpt lat="38.69967150363164" lon="16.53913842938942"><ele>7.428571428571428</ele><time>2026-05-03T07:10:14Z</time></trkpt><trkpt lat="38.699717573876384" lon="16.539059798152753"><ele>8.0</ele><time>2026-05-03T07:10:20Z</time></trkpt><trkpt lat="38.69978669389702" lon="16.539044132719845"><ele>8.0</ele><time>2026-05-03T07:10:25Z</time></trkpt><trkpt lat="38.69985041418726" lon="16.53903990660808"><ele>7.999999999999999</ele><time>2026-05-03T07:10:30Z</time></trkpt><trkpt lat="38.699919254885565" lon="16.539029206577084"><ele>8.0</ele><time>2026-05-03T07:10:36Z</time></trkpt><trkpt lat="38.69997975411189" lon="16.538972150128362"><ele>8.0</ele><time>2026-05-03T07:10:42Z</time></trkpt><trkpt lat="38.70003875999087" lon="16.53892582613398"><ele>7.999999999999999</ele><time>2026-05-03T07:10:49Z</time></trkpt><trkpt lat="38.70008731822373" lon="16.538861639114707"><ele>8.0</ele><time>2026-05-03T07:10:55Z</time></trkpt><trkpt lat="38.70014213696496" lon="16.53880819507047"><ele>8.0</ele><time>2026-05-03T07:11:00Z</time></trkpt><trkpt lat="38.700189223280155" lon="16.538745952848767"><ele>7.7142857142857135</ele><time>2026-05-03T07:11:06Z</time></trkpt><trkpt lat="38.700234183606504" lon="16.538687484125933"><ele>7.428571428571428</ele><time>2026-05-03T07:11:11Z</time></trkpt><trkpt lat="38.700284383782396" lon="16.538623733788203"><ele>7.142857142857142</ele><time>2026-05-03T07:11:16Z</time></trkpt><trkpt lat="38.70032525534237" lon="16.538560601809685"><ele>6.857142857142857</ele><time>2026-05-03T07:11:22Z</time></trkpt><trkpt lat="38.70036161560068" lon="16.538490591816874"><ele>6.571428571428571</ele><time>2026-05-03T07:11:27Z</time></trkpt><trkpt lat="38.70041012767779" lon="16.538425397066792"><ele>6.285714285714285</ele><time>2026-05-03T07:11:33Z</time></trkpt><trkpt lat="38.70046091927588" lon="16.538355429943046"><ele>6.0</ele><time>2026-05-03T07:11:39Z</time></trkpt><trkpt lat="38.70050978848096" lon="16.538282464198854"><ele>5.999999999999999</ele><time>2026-05-03T07:11:45Z</time></trkpt><trkpt lat="38.70056307485803" lon="16.538221474374176"><ele>6.0</ele><time>2026-05-03T07:11:51Z</time></trkpt><trkpt lat="38.700606866509794" lon="16.538156177160836"><ele>6.0</ele><time>2026-05-03T07:11:56Z</time></trkpt><trkpt lat="38.70064129106112" lon="16.538084232903355"><ele>6.0</ele><time>2026-05-03T07:12:02Z</time></trkpt><trkpt lat="38.700691426311835" lon="16.538023645704683"><ele>6.0</ele><time>2026-05-03T07:12:07Z</time></trkpt><trkpt lat="38.70073938425044" lon="16.53796534432031"><ele>5.999999999999999</ele><time>2026-05-03T07:12:13Z</time></trkpt><trkpt lat="38.700784446690314" lon="16.537898137246806"><ele>6.0</ele><time>2026-05-03T07:12:18Z</time></trkpt><trkpt lat="38.70084764591955" lon="16.537857442111473"><ele>5.571428571428571</ele><time>2026-05-03T07:12:24Z</time></trkpt><trkpt lat="38.70088257089686" lon="16.53778843513512"><ele>5.142857142857142</ele><time>2026-05-03T07:12:29Z</time></trkpt><trkpt lat="38.70093152924114" lon="16.537727438280434"><ele>4.7142857142857135</ele><time>2026-05-03T07:12:34Z</time></trkpt><trkpt lat="38.70098298277963" lon="16.537666353074638"><ele>4.285714285714286</ele><time>2026-05-03T07:12:40Z</time></trkpt><trkpt lat="38.70102144073682" lon="16.537596017683363"><ele>3.8571428571428568</ele><time>2026-05-03T07:12:45Z</time></trkpt><trkpt lat="38.70105447908881" lon="16.53752409698638"><ele>3.4285714285714284</ele><time>2026-05-03T07:12:50Z</time></trkpt><trkpt lat="38.70110640824202" lon="16.537455661202504"><ele>3.0</ele><time>2026-05-03T07:12:56Z</time></trkpt><trkpt lat="38.70114702357463" lon="16.537392863980198"><ele>2.9999999999999996</ele><time>2026-05-03T07:13:01Z</time></trkpt><trkpt lat="38.70118566018198" lon="16.5373199460211"><ele>3.0</ele><time>2026-05-03T07:13:07Z</time></trkpt><trkpt lat="38.701227873728264" lon="16.537246385286142"><ele>3.0</ele><time>2026-05-03T07:13:13Z</time></trkpt><trkpt lat="38.701272423096825" lon="16.537170702754555"><ele>3.0</ele><time>2026-05-03T07:13:19Z</time></trkpt><trkpt lat="38.70131439579965" lon="16.53710860146978"><ele>3.0</ele><time>2026-05-03T07:13:24Z</time></trkpt><trkpt lat="38.70135719581619" lon="16.537026913008194"><ele>2.9999999999999996</ele><time>2026-05-03T07:13:30Z</time></trkpt><trkpt lat="38.70138521380651" lon="16.536947196912497"><ele>3.0</ele><time>2026-05-03T07:13:35Z</time></trkpt><trkpt lat="38.701423722001735" lon="16.53686635536489"><ele>4.142857142857142</ele><time>2026-05-03T07:13:41Z</time></trkpt><trkpt lat="38.70139469078988" lon="16.53678939249239"><ele>5.285714285714286</ele><time>2026-05-03T07:13:45Z</time></trkpt><trkpt lat="38.7014461121041" lon="16.536718757234173"><ele>6.428571428571429</ele><time>2026-05-03T07:13:50Z</time></trkpt><trkpt lat="38.70146047654512" lon="16.53663034890882"><ele>7.571428571428571</ele><time>2026-05-03T07:13:55Z</time></trkpt><trkpt lat="38.70150170082291" lon="16.53656075049234"><ele>8.714285714285714</ele><time>2026-05-03T07:14:00Z</time></trkpt><trkpt lat="38.701555963239436" lon="16.536501647208855"><ele>9.857142857142858</ele><time>2026-05-03T07:14:05Z</time></trkpt><trkpt lat="38.701612904067325" lon="16.536450883937857"><ele>11.0</ele><time>2026-05-03T07:14:10Z</time></trkpt><trkpt lat="38.70167181818594" lon="16.536398490468276"><ele>11.0</ele><time>2026-05-03T07:14:16Z</time></trkpt><trkpt lat="38.70171198971193" lon="16.5363268597224"><ele>11.0</ele><time>2026-05-03T07:14:22Z</time></trkpt><trkpt lat="38.70175634150339" lon="16.53626052811918"><ele>11.0</ele><time>2026-05-03T07:14:27Z</time></trkpt><trkpt lat="38.701821320278164" lon="16.536233043845588"><ele>11.0</ele><time>2026-05-03T07:14:32Z</time></trkpt><trkpt lat="38.70188884912119" lon="16.536200015975655"><ele>11.0</ele><time>2026-05-03T07:14:38Z</time></trkpt><trkpt lat="38.7019506660985" lon="16.53616627450308"><ele>11.0</ele><time>2026-05-03T07:14:44Z</time></trkpt><trkpt lat="38.70201513363985" lon="16.53612136840898"><ele>11.0</ele><time>2026-05-03T07:14:50Z</time></trkpt><trkpt lat="38.70206784421364" lon="16.536076571659322"><ele>10.571428571428571</ele><time>2026-05-03T07:14:55Z</time></trkpt><trkpt lat="38.70211799661372" lon="16.536011167565036"><ele>10.142857142857142</ele><time>2026-05-03T07:15:01Z</time></trkpt><trkpt lat="38.702170754109034" lon="16.535957143272373"><ele>9.714285714285714</ele><time>2026-05-03T07:15:06Z</time></trkpt><trkpt lat="38.70221523285391" lon="16.53587820572836"><ele>9.285714285714285</ele><time>2026-05-03T07:15:12Z</time></trkpt><trkpt lat="38.70226362193295" lon="16.53581298256426"><ele>8.857142857142856</ele><time>2026-05-03T07:15:18Z</time></trkpt><trkpt lat="38.70230524466862" lon="16.535739323014678"><ele>8.428571428571429</ele><time>2026-05-03T07:15:23Z</time></trkpt><trkpt lat="38.70234553604417" lon="16.535666576643347"><ele>8.0</ele><time>2026-05-03T07:15:29Z</time></trkpt><trkpt lat="38.70239625138752" lon="16.53560181393437"><ele>8.0</ele><time>2026-05-03T07:15:35Z</time></trkpt><trkpt lat="38.702456061835534" lon="16.53553871103444"><ele>7.999999999999999</ele><time>2026-05-03T07:15:41Z</time></trkpt><trkpt lat="38.70249824647644" lon="16.535464751288448"><ele>8.0</ele><time>2026-05-03T07:15:47Z</time></trkpt><trkpt lat="38.70253774768565" lon="16.53540092511196"><ele>8.0</ele><time>2026-05-03T07:15:52Z</time></trkpt><trkpt lat="38.70259188696401" lon="16.535341704757826"><ele>7.999999999999999</ele><time>2026-05-03T07:15:59Z</time></trkpt><trkpt lat="38.70263130467902" lon="16.535266652832135"><ele>8.0</ele><time>2026-05-03T07:16:05Z</time></trkpt><trkpt lat="38.70267166549559" lon="16.535192006236855"><ele>8.0</ele><time>2026-05-03T07:16:10Z</time></trkpt><trkpt lat="38.70267511966047" lon="16.535105997637807"><ele>7.7142857142857135</ele><time>2026-05-03T07:16:13Z</time></trkpt><trkpt lat="38.70273743281775" lon="16.5350905331211"><ele>7.428571428571428</ele><time>2026-05-03T07:16:18Z</time></trkpt><trkpt lat="38.702767910140324" lon="16.53500837550503"><ele>7.142857142857142</ele><time>2026-05-03T07:16:23Z</time></trkpt><trkpt lat="38.702805837661884" lon="16.53493225234951"><ele>6.857142857142857</ele><time>2026-05-03T07:16:29Z</time></trkpt><trkpt lat="38.70285993003478" lon="16.534882939814526"><ele>6.571428571428571</ele><time>2026-05-03T07:16:34Z</time></trkpt><trkpt lat="38.702903181472315" lon="16.534799270901214"><ele>6.285714285714285</ele><time>2026-05-03T07:16:40Z</time></trkpt><trkpt lat="38.70295555328417" lon="16.534728632031822"><ele>6.0</ele><time>2026-05-03T07:16:47Z</time></trkpt><trkpt lat="38.70301773103905" lon="16.5346853692993"><ele>5.999999999999999</ele><time>2026-05-03T07:16:55Z</time></trkpt><trkpt lat="38.70304948095991" lon="16.534606378844522"><ele>6.0</ele><time>2026-05-03T07:16:59Z</time></trkpt><trkpt lat="38.70311170569615" lon="16.534583703790815"><ele>6.0</ele><time>2026-05-03T07:17:04Z</time></trkpt><trkpt lat="38.70315252017656" lon="16.534513441112416"><ele>6.0</ele><time>2026-05-03T07:17:09Z</time></trkpt><trkpt lat="38.70320891113357" lon="16.534467815427966"><ele>6.0</ele><time>2026-05-03T07:17:18Z</time></trkpt><trkpt lat="38.703250327864126" lon="16.53439057996682"><ele>5.999999999999999</ele><time>2026-05-03T07:17:24Z</time></trkpt><trkpt lat="38.70330560027024" lon="16.534336070874204"><ele>6.0</ele><time>2026-05-03T07:17:29Z</time></trkpt><trkpt lat="38.70337584427525" lon="16.534292885858257"><ele>5.857142857142857</ele><time>2026-05-03T07:17:35Z</time></trkpt><trkpt lat="38.70341837105455" lon="16.534201709996605"><ele>5.714285714285714</ele><time>2026-05-03T07:17:41Z</time></trkpt><trkpt lat="38.703487069466206" lon="16.534165825778153"><ele>5.571428571428571</ele><time>2026-05-03T07:17:47Z</time></trkpt><trkpt lat="38.7035441027053" lon="16.534128333377055"><ele>5.428571428571429</ele><time>2026-05-03T07:17:53Z</time></trkpt><trkpt lat="38.703595898174015" lon="16.534076652978516"><ele>5.285714285714286</ele><time>2026-05-03T07:17:58Z</time></trkpt><trkpt lat="38.703656216920216" lon="16.534038703125994"><ele>5.142857142857142</ele><time>2026-05-03T07:18:03Z</time></trkpt><trkpt lat="38.70371669916186" lon="16.53398431325334"><ele>5.0</ele><time>2026-05-03T07:18:09Z</time></trkpt><trkpt lat="38.70376554841419" lon="16.53392946043897"><ele>5.0</ele><time>2026-05-03T07:18:14Z</time></trkpt><trkpt lat="38.70382065824462" lon="16.53389041624672"><ele>5.0</ele><time>2026-05-03T07:18:19Z</time></trkpt><trkpt lat="38.703869310067944" lon="16.53382633692665"><ele>5.0</ele><time>2026-05-03T07:18:24Z</time></trkpt><trkpt lat="38.70392940523279" lon="16.53377279269458"><ele>5.0</ele><time>2026-05-03T07:18:30Z</time></trkpt><trkpt lat="38.70398574502906" lon="16.53372436930615"><ele>5.0</ele><time>2026-05-03T07:18:35Z</time></trkpt><trkpt lat="38.704047291850685" lon="16.53367180414404"><ele>5.0</ele><time>2026-05-03T07:18:41Z</time></trkpt><trkpt lat="38.704100227709375" lon="16.533616585846712"><ele>5.0</ele><time>2026-05-03T07:18:46Z</time></trkpt><trkpt lat="38.704148739289245" lon="16.53356028155301"><ele>5.0</ele><time>2026-05-03T07:18:51Z</time></trkpt><trkpt lat="38.70421415475511" lon="16.533542656222966"><ele>5.0</ele><time>2026-05-03T07:18:56Z</time></trkpt><trkpt lat="38.7043398843617" lon="16.53344607920964"><ele>5.0</ele><time>2026-05-03T07:19:07Z</time></trkpt><trkpt lat="38.70441055863847" lon="16.533422312724984"><ele>5.0</ele><time>2026-05-03T07:19:12Z</time></trkpt><trkpt lat="38.7044787149683" lon="16.533394735477383"><ele>5.0</ele><time>2026-05-03T07:19:18Z</time></trkpt><trkpt lat="38.704536051398016" lon="16.53335813961556"><ele>5.0</ele><time>2026-05-03T07:19:36Z</time></trkpt><trkpt lat="38.70459945499023" lon="16.53334240731553"><ele>5.142857142857142</ele><time>2026-05-03T07:19:41Z</time></trkpt><trkpt lat="38.70465415688757" lon="16.533298886735068"><ele>5.285714285714286</ele><time>2026-05-03T07:19:46Z</time></trkpt><trkpt lat="38.70471698132581" lon="16.53329313362637"><ele>5.428571428571429</ele><time>2026-05-03T07:19:52Z</time></trkpt><trkpt lat="38.704774259270586" lon="16.533252816825748"><ele>5.571428571428571</ele><time>2026-05-03T07:19:57Z</time></trkpt><trkpt lat="38.70483416023591" lon="16.53322237193125"><ele>5.714285714285714</ele><time>2026-05-03T07:20:02Z</time></trkpt><trkpt lat="38.704899692684975" lon="16.53317737562845"><ele>5.857142857142857</ele><time>2026-05-03T07:20:10Z</time></trkpt><trkpt lat="38.70497166896622" lon="16.53316142417102"><ele>6.0</ele><time>2026-05-03T07:20:16Z</time></trkpt><trkpt lat="38.70503634404399" lon="16.533113721956376"><ele>5.999999999999999</ele><time>2026-05-03T07:20:22Z</time></trkpt><trkpt lat="38.705099546264876" lon="16.53307945890825"><ele>6.0</ele><time>2026-05-03T07:20:27Z</time></trkpt><trkpt lat="38.70516330090397" lon="16.533052562295"><ele>6.0</ele><time>2026-05-03T07:20:32Z</time></trkpt><trkpt lat="38.70522914457592" lon="16.53302685033576"><ele>6.0</ele><time>2026-05-03T07:20:37Z</time></trkpt><trkpt lat="38.705282129268554" lon="16.532968536833433"><ele>6.0</ele><time>2026-05-03T07:20:42Z</time></trkpt><trkpt lat="38.705354390598885" lon="16.532951689824134"><ele>5.999999999999999</ele><time>2026-05-03T07:20:49Z</time></trkpt><trkpt lat="38.70541848399836" lon="16.532925037833646"><ele>6.0</ele><time>2026-05-03T07:20:54Z</time></trkpt><trkpt lat="38.705482747398406" lon="16.53287999861496"><ele>5.833333333333333</ele><time>2026-05-03T07:21:00Z</time></trkpt><trkpt lat="38.7055486653622" lon="16.53284047777999"><ele>5.666666666666667</ele><time>2026-05-03T07:21:06Z</time></trkpt><trkpt lat="38.70561700480915" lon="16.53282665317045"><ele>5.5</ele><time>2026-05-03T07:21:11Z</time></trkpt><trkpt lat="38.70569077100506" lon="16.532798505365488"><ele>5.333333333333334</ele><time>2026-05-03T07:21:16Z</time></trkpt><trkpt lat="38.705768590615065" lon="16.532767207496345"><ele>5.166666666666667</ele><time>2026-05-03T07:21:21Z</time></trkpt><trkpt lat="38.705842874797284" lon="16.532719387460553"><ele>5.0</ele><time>2026-05-03T07:21:29Z</time></trkpt><trkpt lat="38.705918333730764" lon="16.53268293163411"><ele>5.0</ele><time>2026-05-03T07:21:35Z</time></trkpt><trkpt lat="38.70598039184253" lon="16.53264725359331"><ele>5.0</ele><time>2026-05-03T07:21:40Z</time></trkpt><trkpt lat="38.70605075671783" lon="16.532609523665435"><ele>5.0</ele><time>2026-05-03T07:21:47Z</time></trkpt><trkpt lat="38.70611964395252" lon="16.532567690457977"><ele>5.0</ele><time>2026-05-03T07:21:54Z</time></trkpt><trkpt lat="38.70619015981835" lon="16.532533467157858"><ele>5.0</ele><time>2026-05-03T07:21:59Z</time></trkpt><trkpt lat="38.70638236091046" lon="16.53242680455747"><ele>5.0</ele><time>2026-05-03T07:22:16Z</time></trkpt><trkpt lat="38.70644438004174" lon="16.532392754364274"><ele>5.0</ele><time>2026-05-03T07:22:22Z</time></trkpt><trkpt lat="38.7065057943071" lon="16.532374771105857"><ele>5.0</ele><time>2026-05-03T07:22:27Z</time></trkpt><trkpt lat="38.70656771262511" lon="16.532349543495545"><ele>5.0</ele><time>2026-05-03T07:22:32Z</time></trkpt><trkpt lat="38.70663511051905" lon="16.532311256740297"><ele>5.0</ele><time>2026-05-03T07:22:36Z</time></trkpt><trkpt lat="38.70669739724408" lon="16.53229162967887"><ele>5.0</ele><time>2026-05-03T07:22:42Z</time></trkpt><trkpt lat="38.70676080774382" lon="16.532258562194656"><ele>5.0</ele><time>2026-05-03T07:22:47Z</time></trkpt><trkpt lat="38.70682620291486" lon="16.532254995631575"><ele>5.0</ele><time>2026-05-03T07:22:53Z</time></trkpt><trkpt lat="38.706885429204654" lon="16.53221157911436"><ele>5.0</ele><time>2026-05-03T07:22:58Z</time></trkpt><trkpt lat="38.70695799555826" lon="16.53217882112387"><ele>5.0</ele><time>2026-05-03T07:23:05Z</time></trkpt><trkpt lat="38.70702536591405" lon="16.53216566273768"><ele>5.0</ele><time>2026-05-03T07:23:11Z</time></trkpt><trkpt lat="38.707089044438646" lon="16.53212829001135"><ele>5.0</ele><time>2026-05-03T07:23:16Z</time></trkpt><trkpt lat="38.70715537425382" lon="16.532104680849397"><ele>5.0</ele><time>2026-05-03T07:23:22Z</time></trkpt><trkpt lat="38.707229797390205" lon="16.53207791284698"><ele>5.0</ele><time>2026-05-03T07:23:28Z</time></trkpt><trkpt lat="38.70728998645662" lon="16.532027988365428"><ele>5.142857142857142</ele><time>2026-05-03T07:23:34Z</time></trkpt><trkpt lat="38.70735856883146" lon="16.53200531036765"><ele>5.285714285714286</ele><time>2026-05-03T07:23:39Z</time></trkpt><trkpt lat="38.70742183491617" lon="16.531970455181334"><ele>5.428571428571429</ele><time>2026-05-03T07:23:45Z</time></trkpt><trkpt lat="38.70748556230183" lon="16.531936458658123"><ele>5.571428571428571</ele><time>2026-05-03T07:23:51Z</time></trkpt><trkpt lat="38.70755650902657" lon="16.53191606557263"><ele>5.714285714285714</ele><time>2026-05-03T07:23:57Z</time></trkpt><trkpt lat="38.707621732441936" lon="16.53189525519095"><ele>5.857142857142857</ele><time>2026-05-03T07:24:02Z</time></trkpt><trkpt lat="38.70768743651152" lon="16.531868296427106"><ele>6.0</ele><time>2026-05-03T07:24:07Z</time></trkpt><trkpt lat="38.70775888725323" lon="16.53185158489461"><ele>6.166666666666667</ele><time>2026-05-03T07:24:12Z</time></trkpt><trkpt lat="38.70782915967159" lon="16.531826683239142"><ele>6.333333333333334</ele><time>2026-05-03T07:24:18Z</time></trkpt><trkpt lat="38.70789998067806" lon="16.531844711564673"><ele>6.5</ele><time>2026-05-03T07:24:24Z</time></trkpt><trkpt lat="38.707969047941305" lon="16.531829815894188"><ele>6.666666666666667</ele><time>2026-05-03T07:24:30Z</time></trkpt><trkpt lat="38.70804036425671" lon="16.53180473133843"><ele>6.833333333333334</ele><time>2026-05-03T07:24:35Z</time></trkpt><trkpt lat="38.70810913036004" lon="16.53179835521795"><ele>7.0</ele><time>2026-05-03T07:24:40Z</time></trkpt><trkpt lat="38.70820826873802" lon="16.531784907773588"><ele>7.0</ele><time>2026-05-03T07:24:48Z</time></trkpt><trkpt lat="38.7082765351202" lon="16.531783089003948"><ele>7.0</ele><time>2026-05-03T07:24:53Z</time></trkpt><trkpt lat="38.70834290911632" lon="16.531785956125443"><ele>7.0</ele><time>2026-05-03T07:24:59Z</time></trkpt><trkpt lat="38.708414874758375" lon="16.53178158848504"><ele>7.0</ele><time>2026-05-03T07:25:04Z</time></trkpt><trkpt lat="38.70849073459295" lon="16.531782848207413"><ele>7.0</ele><time>2026-05-03T07:25:11Z</time></trkpt><trkpt lat="38.70855835378113" lon="16.53176301393129"><ele>7.0</ele><time>2026-05-03T07:25:16Z</time></trkpt><trkpt lat="38.7086273882919" lon="16.531756360864858"><ele>7.0</ele><time>2026-05-03T07:25:22Z</time></trkpt><trkpt lat="38.70873355073701" lon="16.531750490776645"><ele>7.0</ele><time>2026-05-03T07:25:31Z</time></trkpt><trkpt lat="38.70881910586912" lon="16.531748247836603"><ele>7.0</ele><time>2026-05-03T07:25:37Z</time></trkpt><trkpt lat="38.708895301534824" lon="16.5317316223097"><ele>7.0</ele><time>2026-05-03T07:25:43Z</time></trkpt><trkpt lat="38.7089588574492" lon="16.5317331317"><ele>7.0</ele><time>2026-05-03T07:25:48Z</time></trkpt><trkpt lat="38.709026858720115" lon="16.53173138496484"><ele>7.0</ele><time>2026-05-03T07:25:54Z</time></trkpt><trkpt lat="38.70909969707557" lon="16.531723932673305"><ele>7.0</ele><time>2026-05-03T07:26:00Z</time></trkpt><trkpt lat="38.70916421602368" lon="16.531715603568298"><ele>7.0</ele><time>2026-05-03T07:26:05Z</time></trkpt><trkpt lat="38.70923795264118" lon="16.531712815782395"><ele>7.0</ele><time>2026-05-03T07:26:11Z</time></trkpt><trkpt lat="38.70931517334181" lon="16.531704764906724"><ele>6.999999999999999</ele><time>2026-05-03T07:26:16Z</time></trkpt><trkpt lat="38.7093880793863" lon="16.53171964519334"><ele>6.999999999999999</ele><time>2026-05-03T07:26:23Z</time></trkpt><trkpt lat="38.70945776812323" lon="16.53170278508689"><ele>7.0</ele><time>2026-05-03T07:26:28Z</time></trkpt><trkpt lat="38.709584295818466" lon="16.531694963268045"><ele>7.0</ele><time>2026-05-03T07:26:39Z</time></trkpt><trkpt lat="38.70970399049623" lon="16.53169275788169"><ele>7.199999999999999</ele><time>2026-05-03T07:26:47Z</time></trkpt><trkpt lat="38.70980944155496" lon="16.53169450738671"><ele>7.3999999999999995</ele><time>2026-05-03T07:26:55Z</time></trkpt><trkpt lat="38.70998765395066" lon="16.531694150235705"><ele>7.6000000000000005</ele><time>2026-05-03T07:27:09Z</time></trkpt><trkpt lat="38.71005731290602" lon="16.53167990664106"><ele>7.800000000000001</ele><time>2026-05-03T07:27:15Z</time></trkpt><trkpt lat="38.71012227535699" lon="16.53170624737041"><ele>8.0</ele><time>2026-05-03T07:27:21Z</time></trkpt><trkpt lat="38.710306114980526" lon="16.531705452010595"><ele>8.0</ele><time>2026-05-03T07:27:33.999Z</time></trkpt><trkpt lat="38.71049020496021" lon="16.531723150524055"><ele>8.0</ele><time>2026-05-03T07:27:49Z</time></trkpt><trkpt lat="38.710677801467234" lon="16.531722051658793"><ele>8.0</ele><time>2026-05-03T07:28:02Z</time></trkpt><trkpt lat="38.71075023128295" lon="16.531738305175445"><ele>8.0</ele><time>2026-05-03T07:28:08Z</time></trkpt><trkpt lat="38.71081684143065" lon="16.531746534300048"><ele>8.0</ele><time>2026-05-03T07:28:13Z</time></trkpt><trkpt lat="38.71087967861219" lon="16.531765648368488"><ele>8.0</ele><time>2026-05-03T07:28:18Z</time></trkpt><trkpt lat="38.71105177690523" lon="16.531779464632564"><ele>8.0</ele><time>2026-05-03T07:28:32Z</time></trkpt><trkpt lat="38.71114036222066" lon="16.531814876820068"><ele>8.0</ele><time>2026-05-03T07:28:38Z</time></trkpt><trkpt lat="38.711206359927324" lon="16.531829597251956"><ele>8.0</ele><time>2026-05-03T07:28:44Z</time></trkpt><trkpt lat="38.71126898666378" lon="16.53184608107925"><ele>8.0</ele><time>2026-05-03T07:28:48Z</time></trkpt><trkpt lat="38.71136918386561" lon="16.531865369246677"><ele>8.0</ele><time>2026-05-03T07:28:57Z</time></trkpt><trkpt lat="38.711497910545525" lon="16.531883594061473"><ele>8.0</ele><time>2026-05-03T07:29:07Z</time></trkpt><trkpt lat="38.71166515833018" lon="16.53192202769326"><ele>8.0</ele><time>2026-05-03T07:29:21Z</time></trkpt><trkpt lat="38.7118440376271" lon="16.531947271594866"><ele>7.499999999999999</ele><time>2026-05-03T07:29:35Z</time></trkpt><trkpt lat="38.7119280554075" lon="16.531962444760467"><ele>7.0</ele><time>2026-05-03T07:29:42Z</time></trkpt><trkpt lat="38.71200066915701" lon="16.53198742888264"><ele>6.5</ele><time>2026-05-03T07:29:47Z</time></trkpt><trkpt lat="38.712079697088214" lon="16.531993654644573"><ele>6.0</ele><time>2026-05-03T07:29:53Z</time></trkpt><trkpt lat="38.71214455977707" lon="16.532024845034748"><ele>5.5</ele><time>2026-05-03T07:29:59Z</time></trkpt><trkpt lat="38.712213753319816" lon="16.532052883679572"><ele>5.0</ele><time>2026-05-03T07:30:05Z</time></trkpt><trkpt lat="38.71228697850416" lon="16.532068069963934"><ele>5.0</ele><time>2026-05-03T07:30:11Z</time></trkpt><trkpt lat="38.7123488792653" lon="16.53208499677231"><ele>5.0</ele><time>2026-05-03T07:30:17Z</time></trkpt><trkpt lat="38.71242373529694" lon="16.532099108513552"><ele>5.0</ele><time>2026-05-03T07:30:23Z</time></trkpt><trkpt lat="38.712487614890804" lon="16.532125019118357"><ele>5.0</ele><time>2026-05-03T07:30:29Z</time></trkpt><trkpt lat="38.712560638197196" lon="16.532133140929805"><ele>5.0</ele><time>2026-05-03T07:30:33Z</time></trkpt><trkpt lat="38.712628839928655" lon="16.53213428102538"><ele>5.0</ele><time>2026-05-03T07:30:39Z</time></trkpt><trkpt lat="38.71269734416443" lon="16.532166152482098"><ele>5.0</ele><time>2026-05-03T07:30:44Z</time></trkpt><trkpt lat="38.71276174821772" lon="16.5321602336696"><ele>5.166666666666667</ele><time>2026-05-03T07:30:50Z</time></trkpt><trkpt lat="38.712848517909904" lon="16.5321776865652"><ele>5.333333333333334</ele><time>2026-05-03T07:30:56Z</time></trkpt><trkpt lat="38.71298562250605" lon="16.53218764182129"><ele>5.5</ele><time>2026-05-03T07:31:06Z</time></trkpt><trkpt lat="38.713062840462726" lon="16.532205629436362"><ele>5.666666666666667</ele><time>2026-05-03T07:31:12Z</time></trkpt><trkpt lat="38.71312785458408" lon="16.532217861088988"><ele>5.833333333333333</ele><time>2026-05-03T07:31:17Z</time></trkpt><trkpt lat="38.71319408660395" lon="16.532239349175104"><ele>6.0</ele><time>2026-05-03T07:31:23Z</time></trkpt><trkpt lat="38.713259536429725" lon="16.532257111168217"><ele>6.0</ele><time>2026-05-03T07:31:28Z</time></trkpt><trkpt lat="38.713398887435815" lon="16.532277635330967"><ele>6.0</ele><time>2026-05-03T07:31:39Z</time></trkpt><trkpt lat="38.71346282159508" lon="16.532301842441182"><ele>6.0</ele><time>2026-05-03T07:31:44.999Z</time></trkpt><trkpt lat="38.71353155661663" lon="16.53231482478952"><ele>6.0</ele><time>2026-05-03T07:31:53Z</time></trkpt><trkpt lat="38.71359954134455" lon="16.532333247965447"><ele>6.0</ele><time>2026-05-03T07:31:59Z</time></trkpt><trkpt lat="38.7137364355464" lon="16.53236720020698"><ele>6.142857142857142</ele><time>2026-05-03T07:32:11Z</time></trkpt><trkpt lat="38.71380030313187" lon="16.532371008204326"><ele>6.285714285714286</ele><time>2026-05-03T07:32:16Z</time></trkpt><trkpt lat="38.71387441180628" lon="16.532381333075158"><ele>6.428571428571429</ele><time>2026-05-03T07:32:22Z</time></trkpt><trkpt lat="38.71393956575692" lon="16.532389003988644"><ele>6.571428571428571</ele><time>2026-05-03T07:32:28Z</time></trkpt><trkpt lat="38.71401334548947" lon="16.532404023476655"><ele>6.714285714285714</ele><time>2026-05-03T07:32:33Z</time></trkpt><trkpt lat="38.71408473669283" lon="16.532424506251708"><ele>6.857142857142857</ele><time>2026-05-03T07:32:39Z</time></trkpt><trkpt lat="38.71415491235652" lon="16.53243536680984"><ele>7.0</ele><time>2026-05-03T07:32:45Z</time></trkpt><trkpt lat="38.714223981770374" lon="16.532446242712336"><ele>7.0</ele><time>2026-05-03T07:32:50Z</time></trkpt><trkpt lat="38.7142960003018" lon="16.532453808765297"><ele>7.0</ele><time>2026-05-03T07:32:56Z</time></trkpt><trkpt lat="38.7143709816715" lon="16.532453326922873"><ele>7.0</ele><time>2026-05-03T07:33:02Z</time></trkpt><trkpt lat="38.714431010543926" lon="16.532480561119247"><ele>7.0</ele><time>2026-05-03T07:33:07Z</time></trkpt><trkpt lat="38.71450159473876" lon="16.532495136350317"><ele>7.0</ele><time>2026-05-03T07:33:13Z</time></trkpt><trkpt lat="38.71459774562584" lon="16.532518281286656"><ele>7.0</ele><time>2026-05-03T07:33:21Z</time></trkpt><trkpt lat="38.714662154697415" lon="16.532529173458958"><ele>7.0</ele><time>2026-05-03T07:33:25Z</time></trkpt><trkpt lat="38.71473804525691" lon="16.532535942082035"><ele>7.3999999999999995</ele><time>2026-05-03T07:33:30Z</time></trkpt><trkpt lat="38.71483295065613" lon="16.532556845872598"><ele>7.799999999999999</ele><time>2026-05-03T07:33:39Z</time></trkpt><trkpt lat="38.71489800828797" lon="16.532571049404968"><ele>8.2</ele><time>2026-05-03T07:33:45Z</time></trkpt><trkpt lat="38.714991767071595" lon="16.532586299570905"><ele>8.6</ele><time>2026-05-03T07:33:52.999Z</time></trkpt><trkpt lat="38.715053451138004" lon="16.532604652421508"><ele>9.0</ele><time>2026-05-03T07:33:56.999Z</time></trkpt><trkpt lat="38.71522230571505" lon="16.532632014112263"><ele>8.666666666666666</ele><time>2026-05-03T07:34:10Z</time></trkpt><trkpt lat="38.71529032619684" lon="16.53264054899856"><ele>8.333333333333334</ele><time>2026-05-03T07:34:16Z</time></trkpt><trkpt lat="38.71535152338206" lon="16.53267335473403"><ele>8.0</ele><time>2026-05-03T07:34:21Z</time></trkpt><trkpt lat="38.715493351620516" lon="16.532684179309417"><ele>7.666666666666667</ele><time>2026-05-03T07:34:32Z</time></trkpt><trkpt lat="38.715562048583" lon="16.532702540162845"><ele>7.333333333333334</ele><time>2026-05-03T07:34:38Z</time></trkpt><trkpt lat="38.71562462456232" lon="16.53271234115892"><ele>7.0</ele><time>2026-05-03T07:34:43Z</time></trkpt><trkpt lat="38.715706609498916" lon="16.532726443365824"><ele>7.000000000000001</ele><time>2026-05-03T07:34:49Z</time></trkpt><trkpt lat="38.71577653203963" lon="16.532749012367887"><ele>7.0</ele><time>2026-05-03T07:34:55Z</time></trkpt><trkpt lat="38.715845963826666" lon="16.5327725786674"><ele>7.0</ele><time>2026-05-03T07:35:01Z</time></trkpt><trkpt lat="38.71597706488868" lon="16.532772557861456"><ele>7.0</ele><time>2026-05-03T07:35:16Z</time></trkpt><trkpt lat="38.71607282127004" lon="16.53277325151427"><ele>7.000000000000001</ele><time>2026-05-03T07:35:23Z</time></trkpt><trkpt lat="38.71613704070132" lon="16.532817959860004"><ele>7.0</ele><time>2026-05-03T07:35:27Z</time></trkpt><trkpt lat="38.71630376641157" lon="16.53285484239327"><ele>7.142857142857142</ele><time>2026-05-03T07:35:40Z</time></trkpt><trkpt lat="38.716366734728034" lon="16.532869215958474"><ele>7.285714285714286</ele><time>2026-05-03T07:35:46Z</time></trkpt><trkpt lat="38.71643543413194" lon="16.53288302789544"><ele>7.428571428571429</ele><time>2026-05-03T07:35:51Z</time></trkpt><trkpt lat="38.71650964821593" lon="16.532897781737674"><ele>7.571428571428571</ele><time>2026-05-03T07:35:56.999Z</time></trkpt><trkpt lat="38.716576161517374" lon="16.532923589213443"><ele>7.7142857142857135</ele><time>2026-05-03T07:36:02.999Z</time></trkpt><trkpt lat="38.7166431088851" lon="16.53293303243213"><ele>7.857142857142857</ele><time>2026-05-03T07:36:08Z</time></trkpt><trkpt lat="38.71670907932937" lon="16.532945935680882"><ele>8.0</ele><time>2026-05-03T07:36:13Z</time></trkpt><trkpt lat="38.71683352705348" lon="16.53297708220119"><ele>7.999999999999999</ele><time>2026-05-03T07:36:23Z</time></trkpt><trkpt lat="38.71690361904092" lon="16.532988642016196"><ele>8.0</ele><time>2026-05-03T07:36:28Z</time></trkpt><trkpt lat="38.7170494053352" lon="16.533031048913912"><ele>8.0</ele><time>2026-05-03T07:36:40Z</time></trkpt><trkpt lat="38.71712033466511" lon="16.533046338113706"><ele>8.0</ele><time>2026-05-03T07:36:46Z</time></trkpt><trkpt lat="38.71718580326056" lon="16.533055178868608"><ele>7.999999999999999</ele><time>2026-05-03T07:36:51Z</time></trkpt><trkpt lat="38.71725644493724" lon="16.53306961603028"><ele>8.0</ele><time>2026-05-03T07:36:57Z</time></trkpt><trkpt lat="38.71732259192409" lon="16.53307865437451"><ele>8.0</ele><time>2026-05-03T07:37:02Z</time></trkpt><trkpt lat="38.717396978217195" lon="16.53309700615"><ele>7.999999999999999</ele><time>2026-05-03T07:37:08Z</time></trkpt><trkpt lat="38.717452182798844" lon="16.533038338965337"><ele>8.0</ele><time>2026-05-03T07:37:15Z</time></trkpt><trkpt lat="38.71751428065614" lon="16.533008686670836"><ele>8.0</ele><time>2026-05-03T07:37:20Z</time></trkpt><trkpt lat="38.71758225419832" lon="16.532973667864475"><ele>7.999999999999999</ele><time>2026-05-03T07:37:26Z</time></trkpt><trkpt lat="38.71762083514051" lon="16.532902789867222"><ele>8.0</ele><time>2026-05-03T07:37:33Z</time></trkpt><trkpt lat="38.717661221402714" lon="16.532838609586214"><ele>8.0</ele><time>2026-05-03T07:37:37Z</time></trkpt><trkpt lat="38.717728282967364" lon="16.532782214045064"><ele>7.7142857142857135</ele><time>2026-05-03T07:37:40Z</time></trkpt><trkpt lat="38.717721847198995" lon="16.53270140582237"><ele>7.428571428571428</ele><time>2026-05-03T07:37:43Z</time></trkpt><trkpt lat="38.71766188517304" lon="16.532649928419747"><ele>7.142857142857142</ele><time>2026-05-03T07:37:46Z</time></trkpt><trkpt lat="38.71758864813668" lon="16.532672209785545"><ele>6.857142857142857</ele><time>2026-05-03T07:37:50Z</time></trkpt><trkpt lat="38.71752738417273" lon="16.532647444681952"><ele>6.571428571428571</ele><time>2026-05-03T07:37:54Z</time></trkpt><trkpt lat="38.71748126990702" lon="16.532575691869265"><ele>6.285714285714285</ele><time>2026-05-03T07:37:59Z</time></trkpt><trkpt lat="38.717425198505524" lon="16.532520227469238"><ele>6.0</ele><time>2026-05-03T07:38:04.999Z</time></trkpt><trkpt lat="38.717368868154544" lon="16.53246132271334"><ele>5.999999999999999</ele><time>2026-05-03T07:38:13Z</time></trkpt><trkpt lat="38.71732980053793" lon="16.532385786069568"><ele>6.0</ele><time>2026-05-03T07:38:19Z</time></trkpt><trkpt lat="38.71728298757245" lon="16.532318244097645"><ele>6.0</ele><time>2026-05-03T07:38:27Z</time></trkpt><trkpt lat="38.717254957353795" lon="16.532241332603043"><ele>6.0</ele><time>2026-05-03T07:38:31Z</time></trkpt><trkpt lat="38.717241371089386" lon="16.53215866342446"><ele>6.0</ele><time>2026-05-03T07:38:36Z</time></trkpt><trkpt lat="38.717252824235715" lon="16.532072434141558"><ele>5.999999999999999</ele><time>2026-05-03T07:38:42Z</time></trkpt><trkpt lat="38.71725681158096" lon="16.531968210215275"><ele>6.0</ele><time>2026-05-03T07:38:48Z</time></trkpt><trkpt lat="38.71727489706417" lon="16.53187780815363"><ele>6.5</ele><time>2026-05-03T07:38:54Z</time></trkpt><trkpt lat="38.71734755181548" lon="16.531707370523936"><ele>7.0</ele><time>2026-05-03T07:39:06Z</time></trkpt><trkpt lat="38.71733570294393" lon="16.53162773368383"><ele>7.5</ele><time>2026-05-03T07:39:11Z</time></trkpt><trkpt lat="38.71730935429057" lon="16.531545695872637"><ele>8.0</ele><time>2026-05-03T07:39:17Z</time></trkpt><trkpt lat="38.71721332049697" lon="16.531539843895175"><ele>8.5</ele><time>2026-05-03T07:40:14.999Z</time></trkpt><trkpt lat="38.71715009764804" lon="16.53153890163781"><ele>9.0</ele><time>2026-05-03T07:40:18Z</time></trkpt><trkpt lat="38.717251119948706" lon="16.53154857216675"><ele>9.0</ele><time>2026-05-03T07:40:22Z</time></trkpt><trkpt lat="38.71737064934562" lon="16.531556330718654"><ele>9.0</ele><time>2026-05-03T07:40:23Z</time></trkpt><trkpt lat="38.71730012540294" lon="16.53155246553272"><ele>9.0</ele><time>2026-05-03T07:40:41Z</time></trkpt><trkpt lat="38.717220102784246" lon="16.531594274817948"><ele>9.0</ele><time>2026-05-03T07:40:45Z</time></trkpt><trkpt lat="38.71729159850415" lon="16.53162374900136"><ele>9.0</ele><time>2026-05-03T07:42:24Z</time></trkpt><trkpt lat="38.717306239416125" lon="16.531721717488413"><ele>9.0</ele><time>2026-05-03T07:42:28Z</time></trkpt><trkpt lat="38.71721442243022" lon="16.531723135119286"><ele>9.0</ele><time>2026-05-03T07:42:32Z</time></trkpt><trkpt lat="38.71715574785147" lon="16.531469580600746"><ele>9.0</ele><time>2026-05-03T07:42:34Z</time></trkpt><trkpt lat="38.71707485259533" lon="16.5314748085345"><ele>9.0</ele><time>2026-05-03T07:42:36Z</time></trkpt><trkpt lat="38.71732028570779" lon="16.531437099825496"><ele>9.0</ele><time>2026-05-03T07:42:38Z</time></trkpt><trkpt lat="38.717384385912105" lon="16.531443773427082"><ele>9.0</ele><time>2026-05-03T07:43:40Z</time></trkpt><trkpt lat="38.717298242077625" lon="16.531519173850718"><ele>9.0</ele><time>2026-05-03T07:44:03Z</time></trkpt><trkpt lat="38.71727510183563" lon="16.531612132779266"><ele>9.0</ele><time>2026-05-03T07:44:06Z</time></trkpt><trkpt lat="38.71710156971487" lon="16.531576018478773"><ele>9.0</ele><time>2026-05-03T07:44:12Z</time></trkpt><trkpt lat="38.717039673906015" lon="16.53160733221622"><ele>9.0</ele><time>2026-05-03T07:44:13Z</time></trkpt><trkpt lat="38.717154213467" lon="16.531594498668213"><ele>9.0</ele><time>2026-05-03T07:44:19Z</time></trkpt><trkpt lat="38.71729285479801" lon="16.531597759182763"><ele>9.0</ele><time>2026-05-03T07:44:20Z</time></trkpt><trkpt lat="38.71733227052831" lon="16.531665208194603"><ele>9.0</ele><time>2026-05-03T07:44:25Z</time></trkpt><trkpt lat="38.71733050603329" lon="16.53175477214179"><ele>9.0</ele><time>2026-05-03T07:44:31Z</time></trkpt><trkpt lat="38.717305433910916" lon="16.5318421943231"><ele>9.000000000000002</ele><time>2026-05-03T07:44:38Z</time></trkpt><trkpt lat="38.71728378952078" lon="16.531931925976874"><ele>9.0</ele><time>2026-05-03T07:44:44Z</time></trkpt><trkpt lat="38.71726570788932" lon="16.532011593182514"><ele>9.0</ele><time>2026-05-03T07:44:49Z</time></trkpt><trkpt lat="38.717245113289366" lon="16.53209640209393"><ele>9.0</ele><time>2026-05-03T07:44:55Z</time></trkpt><trkpt lat="38.7172602334989" lon="16.53218864492472"><ele>9.0</ele><time>2026-05-03T07:45:01Z</time></trkpt><trkpt lat="38.71723615102473" lon="16.5322764394643"><ele>9.000000000000002</ele><time>2026-05-03T07:45:06Z</time></trkpt><trkpt lat="38.71722227122536" lon="16.532369224337256"><ele>9.0</ele><time>2026-05-03T07:45:11Z</time></trkpt><trkpt lat="38.71723075656708" lon="16.5324503120779"><ele>8.857142857142858</ele><time>2026-05-03T07:45:19Z</time></trkpt><trkpt lat="38.71717443286988" lon="16.532501920952697"><ele>8.714285714285715</ele><time>2026-05-03T07:45:25Z</time></trkpt><trkpt lat="38.717098258044416" lon="16.532500645299603"><ele>8.571428571428571</ele><time>2026-05-03T07:45:34Z</time></trkpt><trkpt lat="38.71702605410431" lon="16.532486415482914"><ele>8.428571428571429</ele><time>2026-05-03T07:45:38Z</time></trkpt><trkpt lat="38.716958373630796" lon="16.53247136716751"><ele>8.285714285714285</ele><time>2026-05-03T07:45:45Z</time></trkpt><trkpt lat="38.71688595247363" lon="16.532467921000897"><ele>8.142857142857142</ele><time>2026-05-03T07:45:51Z</time></trkpt><trkpt lat="38.71681677716661" lon="16.532465818286628"><ele>8.0</ele><time>2026-05-03T07:45:56Z</time></trkpt><trkpt lat="38.7167421855618" lon="16.532472737966884"><ele>8.0</ele><time>2026-05-03T07:46:03Z</time></trkpt><trkpt lat="38.71667863872605" lon="16.53247153345799"><ele>7.999999999999999</ele><time>2026-05-03T07:46:06Z</time></trkpt><trkpt lat="38.71660722966153" lon="16.532467574455314"><ele>8.0</ele><time>2026-05-03T07:46:12Z</time></trkpt><trkpt lat="38.71654699999546" lon="16.532442123395214"><ele>8.0</ele><time>2026-05-03T07:46:18Z</time></trkpt><trkpt lat="38.71648192493473" lon="16.532427217130557"><ele>7.999999999999999</ele><time>2026-05-03T07:46:24Z</time></trkpt><trkpt lat="38.7164122223668" lon="16.53240828252408"><ele>8.0</ele><time>2026-05-03T07:46:29Z</time></trkpt><trkpt lat="38.716342494255116" lon="16.532397831638946"><ele>8.0</ele><time>2026-05-03T07:46:35Z</time></trkpt><trkpt lat="38.716275052747186" lon="16.53238470065376"><ele>8.0</ele><time>2026-05-03T07:46:40Z</time></trkpt><trkpt lat="38.716204270487424" lon="16.53237034033777"><ele>7.999999999999999</ele><time>2026-05-03T07:46:45Z</time></trkpt><trkpt lat="38.71613494198557" lon="16.53236902744968"><ele>8.0</ele><time>2026-05-03T07:46:50Z</time></trkpt><trkpt lat="38.71607306959642" lon="16.532346996094653"><ele>8.0</ele><time>2026-05-03T07:46:55Z</time></trkpt><trkpt lat="38.71601046868486" lon="16.53232449984163"><ele>7.999999999999999</ele><time>2026-05-03T07:47:00Z</time></trkpt><trkpt lat="38.715942951936526" lon="16.532326633938315"><ele>8.0</ele><time>2026-05-03T07:47:05Z</time></trkpt><trkpt lat="38.71587827969116" lon="16.53231276500639"><ele>8.0</ele><time>2026-05-03T07:47:11Z</time></trkpt><trkpt lat="38.71581347802152" lon="16.53229801471323"><ele>7.857142857142857</ele><time>2026-05-03T07:47:21Z</time></trkpt><trkpt lat="38.71574438381103" lon="16.532276453390804"><ele>7.7142857142857135</ele><time>2026-05-03T07:47:27Z</time></trkpt><trkpt lat="38.715672837390215" lon="16.532269145571174"><ele>7.571428571428571</ele><time>2026-05-03T07:47:33Z</time></trkpt><trkpt lat="38.71559654688181" lon="16.53225987845851"><ele>7.428571428571429</ele><time>2026-05-03T07:47:39Z</time></trkpt><trkpt lat="38.71553319305478" lon="16.532244589347066"><ele>7.285714285714286</ele><time>2026-05-03T07:47:44Z</time></trkpt><trkpt lat="38.715469952964234" lon="16.53222142032399"><ele>7.142857142857142</ele><time>2026-05-03T07:47:49Z</time></trkpt><trkpt lat="38.71539395763384" lon="16.532212781027393"><ele>7.0</ele><time>2026-05-03T07:47:54Z</time></trkpt><trkpt lat="38.71532788523575" lon="16.532197211847645"><ele>7.0</ele><time>2026-05-03T07:48:00Z</time></trkpt><trkpt lat="38.71525957927294" lon="16.532164634356672"><ele>7.0</ele><time>2026-05-03T07:48:06Z</time></trkpt><trkpt lat="38.71518570942291" lon="16.53215238140709"><ele>7.0</ele><time>2026-05-03T07:48:12Z</time></trkpt><trkpt lat="38.71511229497102" lon="16.53213117805502"><ele>7.0</ele><time>2026-05-03T07:48:18Z</time></trkpt><trkpt lat="38.715048574882715" lon="16.532107771307597"><ele>7.0</ele><time>2026-05-03T07:48:23Z</time></trkpt><trkpt lat="38.71497734065306" lon="16.532099087726497"><ele>7.0</ele><time>2026-05-03T07:48:29Z</time></trkpt><trkpt lat="38.71490186001357" lon="16.532081726605046"><ele>7.0</ele><time>2026-05-03T07:48:35Z</time></trkpt><trkpt lat="38.71483173947382" lon="16.532053081014215"><ele>7.0</ele><time>2026-05-03T07:48:40Z</time></trkpt><trkpt lat="38.71476099012933" lon="16.532042367501923"><ele>7.0</ele><time>2026-05-03T07:48:46Z</time></trkpt><trkpt lat="38.71469611632035" lon="16.53202845843994"><ele>7.0</ele><time>2026-05-03T07:48:51Z</time></trkpt><trkpt lat="38.71463044731344" lon="16.532010476670347"><ele>7.0</ele><time>2026-05-03T07:48:56Z</time></trkpt><trkpt lat="38.71456890447775" lon="16.531989596010558"><ele>7.0</ele><time>2026-05-03T07:49:01Z</time></trkpt><trkpt lat="38.71449690092002" lon="16.531979798866576"><ele>7.0</ele><time>2026-05-03T07:49:07Z</time></trkpt><trkpt lat="38.71442742676443" lon="16.53196458527363"><ele>7.0</ele><time>2026-05-03T07:49:12Z</time></trkpt><trkpt lat="38.71436517456904" lon="16.53194689178952"><ele>7.0</ele><time>2026-05-03T07:49:17Z</time></trkpt><trkpt lat="38.71430269270473" lon="16.53193568875361"><ele>7.0</ele><time>2026-05-03T07:49:22Z</time></trkpt><trkpt lat="38.71423587817331" lon="16.53191593459294"><ele>7.0</ele><time>2026-05-03T07:49:28Z</time></trkpt><trkpt lat="38.71416419819333" lon="16.531899573257643"><ele>7.0</ele><time>2026-05-03T07:49:33Z</time></trkpt><trkpt lat="38.714094717544036" lon="16.531890111024072"><ele>7.0</ele><time>2026-05-03T07:49:38Z</time></trkpt><trkpt lat="38.714027244906795" lon="16.531880071317413"><ele>7.0</ele><time>2026-05-03T07:49:44Z</time></trkpt><trkpt lat="38.71395656938975" lon="16.53186079759897"><ele>7.0</ele><time>2026-05-03T07:49:49Z</time></trkpt><trkpt lat="38.71388551040768" lon="16.53183523172549"><ele>7.0</ele><time>2026-05-03T07:49:55Z</time></trkpt><trkpt lat="38.713814234804495" lon="16.53182544102491"><ele>7.0</ele><time>2026-05-03T07:50:00Z</time></trkpt><trkpt lat="38.71375380544843" lon="16.531802219613514"><ele>7.0</ele><time>2026-05-03T07:50:05Z</time></trkpt><trkpt lat="38.71367743427025" lon="16.531790121585583"><ele>7.0</ele><time>2026-05-03T07:50:11Z</time></trkpt><trkpt lat="38.713610987003996" lon="16.53176575657581"><ele>7.0</ele><time>2026-05-03T07:50:17Z</time></trkpt><trkpt lat="38.713536114290385" lon="16.53175191196975"><ele>7.0</ele><time>2026-05-03T07:50:23Z</time></trkpt><trkpt lat="38.713459208673164" lon="16.53173658392133"><ele>7.0</ele><time>2026-05-03T07:50:28Z</time></trkpt><trkpt lat="38.71337868615252" lon="16.53171958002889"><ele>7.0</ele><time>2026-05-03T07:50:35Z</time></trkpt><trkpt lat="38.71331830917037" lon="16.53169236203972"><ele>7.0</ele><time>2026-05-03T07:50:40Z</time></trkpt><trkpt lat="38.7132480840734" lon="16.531675190476854"><ele>7.0</ele><time>2026-05-03T07:50:46Z</time></trkpt><trkpt lat="38.713179688417824" lon="16.53163800743013"><ele>7.0</ele><time>2026-05-03T07:50:51Z</time></trkpt><trkpt lat="38.713119842165035" lon="16.531590841143682"><ele>7.0</ele><time>2026-05-03T07:50:57Z</time></trkpt><trkpt lat="38.7131022142374" lon="16.531498168565626"><ele>7.0</ele><time>2026-05-03T07:51:03Z</time></trkpt><trkpt lat="38.71308857620686" lon="16.531414442395956"><ele>7.0</ele><time>2026-05-03T07:51:08Z</time></trkpt><trkpt lat="38.713098281327184" lon="16.531317239597122"><ele>7.0</ele><time>2026-05-03T07:51:14Z</time></trkpt><trkpt lat="38.71310515221546" lon="16.531225210108758"><ele>7.0</ele><time>2026-05-03T07:51:20Z</time></trkpt><trkpt lat="38.71312029344855" lon="16.531135253776704"><ele>7.0</ele><time>2026-05-03T07:51:25Z</time></trkpt><trkpt lat="38.71313478561954" lon="16.531056303598984"><ele>7.0</ele><time>2026-05-03T07:51:30Z</time></trkpt><trkpt lat="38.71315737648813" lon="16.530969346140083"><ele>7.0</ele><time>2026-05-03T07:51:36Z</time></trkpt><trkpt lat="38.7131727924642" lon="16.53087860047898"><ele>7.0</ele><time>2026-05-03T07:51:42Z</time></trkpt><trkpt lat="38.7131942587534" lon="16.530800429205545"><ele>7.0</ele><time>2026-05-03T07:51:47Z</time></trkpt><trkpt lat="38.71321507608138" lon="16.530714556675974"><ele>6.857142857142857</ele><time>2026-05-03T07:51:53Z</time></trkpt><trkpt lat="38.71323313242971" lon="16.53062385529972"><ele>6.714285714285714</ele><time>2026-05-03T07:51:59Z</time></trkpt><trkpt lat="38.71325118710042" lon="16.53053563876641"><ele>6.571428571428571</ele><time>2026-05-03T07:52:04Z</time></trkpt><trkpt lat="38.71328360508898" lon="16.530464507263595"><ele>6.428571428571429</ele><time>2026-05-03T07:52:10Z</time></trkpt><trkpt lat="38.71331163359065" lon="16.530380308065514"><ele>6.285714285714286</ele><time>2026-05-03T07:52:16Z</time></trkpt><trkpt lat="38.7133422886998" lon="16.530292922033357"><ele>6.142857142857142</ele><time>2026-05-03T07:52:22Z</time></trkpt><trkpt lat="38.71338483004525" lon="16.53021861683491"><ele>6.0</ele><time>2026-05-03T07:52:28Z</time></trkpt><trkpt lat="38.7134277366289" lon="16.53014604412744"><ele>5.999999999999999</ele><time>2026-05-03T07:52:33Z</time></trkpt><trkpt lat="38.71347763019918" lon="16.530082712270953"><ele>6.0</ele><time>2026-05-03T07:52:39Z</time></trkpt><trkpt lat="38.71352123143901" lon="16.530019656231023"><ele>6.0</ele><time>2026-05-03T07:52:45Z</time></trkpt><trkpt lat="38.713578154931646" lon="16.52995687410512"><ele>6.0</ele><time>2026-05-03T07:52:51Z</time></trkpt><trkpt lat="38.71362095820453" lon="16.529890826225373"><ele>6.0</ele><time>2026-05-03T07:52:56Z</time></trkpt><trkpt lat="38.7136807296661" lon="16.52983433520641"><ele>5.999999999999999</ele><time>2026-05-03T07:53:02Z</time></trkpt><trkpt lat="38.71373110148615" lon="16.52977996229001"><ele>6.0</ele><time>2026-05-03T07:53:07Z</time></trkpt><trkpt lat="38.71378353354991" lon="16.529728983831546"><ele>6.142857142857142</ele><time>2026-05-03T07:53:13Z</time></trkpt><trkpt lat="38.71383952010347" lon="16.529680080434943"><ele>6.285714285714286</ele><time>2026-05-03T07:53:18Z</time></trkpt><trkpt lat="38.71389570837775" lon="16.529631727001565"><ele>6.428571428571429</ele><time>2026-05-03T07:53:23Z</time></trkpt><trkpt lat="38.71395770014152" lon="16.52957927112899"><ele>6.571428571428571</ele><time>2026-05-03T07:53:29Z</time></trkpt><trkpt lat="38.71402179272941" lon="16.529533347396598"><ele>6.714285714285714</ele><time>2026-05-03T07:53:35Z</time></trkpt><trkpt lat="38.714078475574944" lon="16.52948577598703"><ele>6.857142857142857</ele><time>2026-05-03T07:53:40Z</time></trkpt><trkpt lat="38.71414774669466" lon="16.529451063916696"><ele>7.0</ele><time>2026-05-03T07:53:46Z</time></trkpt><trkpt lat="38.71421409839081" lon="16.529421353869232"><ele>7.0</ele><time>2026-05-03T07:53:52Z</time></trkpt><trkpt lat="38.714281725023696" lon="16.52939792651929"><ele>7.0</ele><time>2026-05-03T07:53:58Z</time></trkpt><trkpt lat="38.714345286476224" lon="16.52937628881422"><ele>7.0</ele><time>2026-05-03T07:54:03Z</time></trkpt><trkpt lat="38.71440974035138" lon="16.52937808330234"><ele>7.0</ele><time>2026-05-03T07:54:09Z</time></trkpt><trkpt lat="38.71448050384598" lon="16.52936409961515"><ele>7.0</ele><time>2026-05-03T07:54:14Z</time></trkpt><trkpt lat="38.71455296825288" lon="16.529347828380086"><ele>7.0</ele><time>2026-05-03T07:54:20Z</time></trkpt><trkpt lat="38.7146312444476" lon="16.529337732377616"><ele>7.0</ele><time>2026-05-03T07:54:26Z</time></trkpt><trkpt lat="38.714699020192604" lon="16.529309962905998"><ele>7.285714285714286</ele><time>2026-05-03T07:54:32Z</time></trkpt><trkpt lat="38.71475338421075" lon="16.529254410618204"><ele>7.571428571428571</ele><time>2026-05-03T07:54:37Z</time></trkpt><trkpt lat="38.71476174215405" lon="16.529171537540034"><ele>7.857142857142858</ele><time>2026-05-03T07:54:43Z</time></trkpt><trkpt lat="38.71475196710208" lon="16.529078915373397"><ele>8.142857142857142</ele><time>2026-05-03T07:54:49Z</time></trkpt><trkpt lat="38.71472702719093" lon="16.529004078579558"><ele>8.428571428571429</ele><time>2026-05-03T07:54:56Z</time></trkpt><trkpt lat="38.71472444898916" lon="16.52891817309374"><ele>8.714285714285715</ele><time>2026-05-03T07:55:01Z</time></trkpt><trkpt lat="38.71471437114453" lon="16.528835134653523"><ele>9.0</ele><time>2026-05-03T07:55:06Z</time></trkpt><trkpt lat="38.71470102359863" lon="16.52875041409395"><ele>9.285714285714286</ele><time>2026-05-03T07:55:12Z</time></trkpt><trkpt lat="38.71469863869426" lon="16.528663351160024"><ele>9.571428571428571</ele><time>2026-05-03T07:55:18Z</time></trkpt><trkpt lat="38.71470960935651" lon="16.52857010223963"><ele>9.857142857142858</ele><time>2026-05-03T07:55:24Z</time></trkpt><trkpt lat="38.714727901469345" lon="16.528480136786136"><ele>10.142857142857142</ele><time>2026-05-03T07:55:30Z</time></trkpt><trkpt lat="38.71474040227186" lon="16.52838345433402"><ele>10.428571428571429</ele><time>2026-05-03T07:55:36Z</time></trkpt><trkpt lat="38.71475656640196" lon="16.528294980223126"><ele>10.714285714285715</ele><time>2026-05-03T07:55:42Z</time></trkpt><trkpt lat="38.71477226280337" lon="16.528207868725918"><ele>11.0</ele><time>2026-05-03T07:55:48Z</time></trkpt><trkpt lat="38.714785366794125" lon="16.528125850573304"><ele>11.0</ele><time>2026-05-03T07:55:54Z</time></trkpt><trkpt lat="38.71480249209612" lon="16.528039879192672"><ele>11.0</ele><time>2026-05-03T07:56:00Z</time></trkpt><trkpt lat="38.714818926811134" lon="16.527959880387936"><ele>11.0</ele><time>2026-05-03T07:56:06Z</time></trkpt><trkpt lat="38.71482940375028" lon="16.527870492680478"><ele>11.0</ele><time>2026-05-03T07:56:11Z</time></trkpt><trkpt lat="38.714857511633994" lon="16.527788980915506"><ele>11.0</ele><time>2026-05-03T07:56:18Z</time></trkpt><trkpt lat="38.7148683213535" lon="16.527699742697244"><ele>11.0</ele><time>2026-05-03T07:56:25Z</time></trkpt><trkpt lat="38.71488619786335" lon="16.527609815534"><ele>11.0</ele><time>2026-05-03T07:56:32Z</time></trkpt><trkpt lat="38.71490824758027" lon="16.52752127316223"><ele>11.428571428571429</ele><time>2026-05-03T07:56:44Z</time></trkpt><trkpt lat="38.71492030852805" lon="16.52743567743069"><ele>11.857142857142858</ele><time>2026-05-03T07:56:49Z</time></trkpt><trkpt lat="38.71493221715621" lon="16.52734348046171"><ele>12.285714285714285</ele><time>2026-05-03T07:56:55Z</time></trkpt><trkpt lat="38.714949650409366" lon="16.527265723992286"><ele>12.714285714285715</ele><time>2026-05-03T07:57:01Z</time></trkpt><trkpt lat="38.714966516646406" lon="16.527181591824707"><ele>13.142857142857142</ele><time>2026-05-03T07:57:07Z</time></trkpt><trkpt lat="38.71495342195013" lon="16.527089712784974"><ele>13.571428571428571</ele><time>2026-05-03T07:57:12Z</time></trkpt><trkpt lat="38.71494689221767" lon="16.52700513163056"><ele>14.0</ele><time>2026-05-03T07:57:19Z</time></trkpt><trkpt lat="38.71492380008808" lon="16.526916604890367"><ele>14.142857142857142</ele><time>2026-05-03T07:57:25Z</time></trkpt><trkpt lat="38.7149126738987" lon="16.52682950173196"><ele>14.285714285714285</ele><time>2026-05-03T07:57:32Z</time></trkpt><trkpt lat="38.71489296537614" lon="16.526740510860257"><ele>14.428571428571429</ele><time>2026-05-03T07:57:39Z</time></trkpt><trkpt lat="38.71487306776776" lon="16.52665309339801"><ele>14.571428571428571</ele><time>2026-05-03T07:57:46Z</time></trkpt><trkpt lat="38.71485455672225" lon="16.526567830041394"><ele>14.714285714285714</ele><time>2026-05-03T07:57:52Z</time></trkpt><trkpt lat="38.714824036335436" lon="16.526493583560452"><ele>14.857142857142858</ele><time>2026-05-03T07:57:56Z</time></trkpt><trkpt lat="38.71481992583359" lon="16.526394529613338"><ele>15.0</ele><time>2026-05-03T07:58:02Z</time></trkpt><trkpt lat="38.71479998349609" lon="16.52630827777454"><ele>15.571428571428573</ele><time>2026-05-03T07:58:08Z</time></trkpt><trkpt lat="38.71479724167423" lon="16.526218722460737"><ele>16.142857142857142</ele><time>2026-05-03T07:58:14Z</time></trkpt><trkpt lat="38.71479512350858" lon="16.526134086464715"><ele>16.714285714285715</ele><time>2026-05-03T07:58:20Z</time></trkpt><trkpt lat="38.71479525794116" lon="16.52603692505089"><ele>17.285714285714285</ele><time>2026-05-03T07:58:27Z</time></trkpt><trkpt lat="38.714783950263055" lon="16.525956932113065"><ele>17.857142857142858</ele><time>2026-05-03T07:58:53Z</time></trkpt><trkpt lat="38.71479101552053" lon="16.52587236928933"><ele>18.428571428571427</ele><time>2026-05-03T07:58:58Z</time></trkpt><trkpt lat="38.714781391808046" lon="16.525783430293195"><ele>19.0</ele><time>2026-05-03T07:59:03Z</time></trkpt><trkpt lat="38.714775733285194" lon="16.52569351709289"><ele>19.0</ele><time>2026-05-03T07:59:09Z</time></trkpt><trkpt lat="38.71478272411379" lon="16.525602879445817"><ele>19.0</ele><time>2026-05-03T07:59:15Z</time></trkpt><trkpt lat="38.71477893261107" lon="16.52550283695213"><ele>19.0</ele><time>2026-05-03T07:59:21Z</time></trkpt><trkpt lat="38.71477634689377" lon="16.52541583173861"><ele>19.0</ele><time>2026-05-03T07:59:26Z</time></trkpt><trkpt lat="38.714794101299574" lon="16.525335115219473"><ele>19.0</ele><time>2026-05-03T07:59:33Z</time></trkpt><trkpt lat="38.71479061276067" lon="16.525252570371837"><ele>19.0</ele><time>2026-05-03T07:59:39Z</time></trkpt><trkpt lat="38.71478248774078" lon="16.52516920660075"><ele>19.0</ele><time>2026-05-03T07:59:45Z</time></trkpt><trkpt lat="38.714785405521845" lon="16.525074061385098"><ele>19.142857142857142</ele><time>2026-05-03T07:59:51Z</time></trkpt><trkpt lat="38.71477591094276" lon="16.52498477882725"><ele>19.28571428571429</ele><time>2026-05-03T07:59:56Z</time></trkpt><trkpt lat="38.7147852817394" lon="16.52488343351034"><ele>19.42857142857143</ele><time>2026-05-03T08:00:03Z</time></trkpt><trkpt lat="38.71479449932874" lon="16.52479524287058"><ele>19.57142857142857</ele><time>2026-05-03T08:00:09Z</time></trkpt><trkpt lat="38.71480187677578" lon="16.524705972746936"><ele>19.714285714285715</ele><time>2026-05-03T08:00:16Z</time></trkpt><trkpt lat="38.714803382895745" lon="16.524614244225887"><ele>19.857142857142858</ele><time>2026-05-03T08:00:21Z</time></trkpt><trkpt lat="38.71479841490806" lon="16.524518687646463"><ele>20.0</ele><time>2026-05-03T08:00:27Z</time></trkpt><trkpt lat="38.714790509963045" lon="16.524422291206232"><ele>20.714285714285715</ele><time>2026-05-03T08:00:33Z</time></trkpt><trkpt lat="38.71478433217759" lon="16.524326576844892"><ele>21.42857142857143</ele><time>2026-05-03T08:00:39Z</time></trkpt><trkpt lat="38.71479432265129" lon="16.52423820940064"><ele>22.142857142857146</ele><time>2026-05-03T08:00:45Z</time></trkpt><trkpt lat="38.714797373723236" lon="16.52414515973476"><ele>22.857142857142858</ele><time>2026-05-03T08:00:51Z</time></trkpt><trkpt lat="38.71479797440897" lon="16.52405971060524"><ele>23.571428571428573</ele><time>2026-05-03T08:00:57Z</time></trkpt><trkpt lat="38.71478359871289" lon="16.52396800848743"><ele>24.28571428571429</ele><time>2026-05-03T08:01:02Z</time></trkpt><trkpt lat="38.71477473706374" lon="16.523873737345728"><ele>25.0</ele><time>2026-05-03T08:01:08Z</time></trkpt><trkpt lat="38.71479133677742" lon="16.523795499477504"><ele>25.42857142857143</ele><time>2026-05-03T08:01:13.999Z</time></trkpt><trkpt lat="38.714802767340345" lon="16.523711867510386"><ele>25.857142857142858</ele><time>2026-05-03T08:01:20Z</time></trkpt><trkpt lat="38.714781215424516" lon="16.52363498167486"><ele>26.285714285714285</ele><time>2026-05-03T08:01:25Z</time></trkpt><trkpt lat="38.71472212119813" lon="16.523593260884162"><ele>26.714285714285715</ele><time>2026-05-03T08:01:31Z</time></trkpt><trkpt lat="38.71465553976372" lon="16.523566341610092"><ele>27.142857142857142</ele><time>2026-05-03T08:01:36Z</time></trkpt><trkpt lat="38.714579439155344" lon="16.523552866877193"><ele>27.571428571428573</ele><time>2026-05-03T08:01:41Z</time></trkpt><trkpt lat="38.7145059165241" lon="16.52353258484838"><ele>28.0</ele><time>2026-05-03T08:01:50Z</time></trkpt><trkpt lat="38.71444305783437" lon="16.52350900375734"><ele>28.42857142857143</ele><time>2026-05-03T08:01:56Z</time></trkpt><trkpt lat="38.71437032052456" lon="16.523496235215678"><ele>28.857142857142858</ele><time>2026-05-03T08:02:02Z</time></trkpt><trkpt lat="38.71430868274685" lon="16.52347361536012"><ele>29.285714285714285</ele><time>2026-05-03T08:02:08Z</time></trkpt><trkpt lat="38.71423561309832" lon="16.523456704748035"><ele>29.714285714285715</ele><time>2026-05-03T08:02:13Z</time></trkpt><trkpt lat="38.71416389836938" lon="16.523435030060853"><ele>30.142857142857146</ele><time>2026-05-03T08:02:19Z</time></trkpt><trkpt lat="38.71409258217001" lon="16.523420020865647"><ele>30.571428571428573</ele><time>2026-05-03T08:02:25Z</time></trkpt><trkpt lat="38.71403658546409" lon="16.52337383358882"><ele>31.0</ele><time>2026-05-03T08:02:31Z</time></trkpt><trkpt lat="38.713962968671574" lon="16.5233547591817"><ele>31.000000000000004</ele><time>2026-05-03T08:02:38Z</time></trkpt><trkpt lat="38.713895633239176" lon="16.52333462834128"><ele>31.0</ele><time>2026-05-03T08:02:43Z</time></trkpt><trkpt lat="38.713832582253445" lon="16.52333311914428"><ele>31.0</ele><time>2026-05-03T08:02:47Z</time></trkpt><trkpt lat="38.713767585403644" lon="16.52333063132187"><ele>31.0</ele><time>2026-05-03T08:02:53Z</time></trkpt><trkpt lat="38.71370157356127" lon="16.523309720183207"><ele>31.000000000000004</ele><time>2026-05-03T08:02:59Z</time></trkpt><trkpt lat="38.71362752923886" lon="16.523302844628084"><ele>31.0</ele><time>2026-05-03T08:03:04Z</time></trkpt><trkpt lat="38.713521043430895" lon="16.523229244735237"><ele>30.714285714285715</ele><time>2026-05-03T08:03:15Z</time></trkpt><trkpt lat="38.713455965031216" lon="16.52322581548479"><ele>30.42857142857143</ele><time>2026-05-03T08:03:19.999Z</time></trkpt><trkpt lat="38.713389101090534" lon="16.523203220537216"><ele>30.142857142857146</ele><time>2026-05-03T08:03:25Z</time></trkpt><trkpt lat="38.71332114665417" lon="16.52317648787757"><ele>29.85714285714286</ele><time>2026-05-03T08:03:31Z</time></trkpt><trkpt lat="38.71325493576191" lon="16.523175148658815"><ele>29.571428571428573</ele><time>2026-05-03T08:03:36Z</time></trkpt><trkpt lat="38.71318886151181" lon="16.52315343306608"><ele>29.285714285714292</ele><time>2026-05-03T08:03:41Z</time></trkpt><trkpt lat="38.71312368045416" lon="16.523155558606145"><ele>29.000000000000004</ele><time>2026-05-03T08:03:46Z</time></trkpt><trkpt lat="38.71305039189389" lon="16.52313647876575"><ele>29.000000000000004</ele><time>2026-05-03T08:03:52Z</time></trkpt><trkpt lat="38.71302860523347" lon="16.523058786115715"><ele>29.0</ele><time>2026-05-03T08:04:08Z</time></trkpt><trkpt lat="38.712998597018604" lon="16.522985084999878"><ele>29.000000000000004</ele><time>2026-05-03T08:04:14Z</time></trkpt><trkpt lat="38.71295997414451" lon="16.5229036402849"><ele>29.000000000000004</ele><time>2026-05-03T08:04:21Z</time></trkpt><trkpt lat="38.71292277176346" lon="16.52283122867948"><ele>29.0</ele><time>2026-05-03T08:04:28Z</time></trkpt><trkpt lat="38.71289433531373" lon="16.522746676984823"><ele>29.000000000000004</ele><time>2026-05-03T08:04:33Z</time></trkpt><trkpt lat="38.712885755479604" lon="16.52266671164647"><ele>29.000000000000004</ele><time>2026-05-03T08:04:41Z</time></trkpt><trkpt lat="38.71282982121843" lon="16.52260614093083"><ele>29.71428571428572</ele><time>2026-05-03T08:04:48Z</time></trkpt><trkpt lat="38.71280063189695" lon="16.52251946022877"><ele>30.42857142857143</ele><time>2026-05-03T08:04:56Z</time></trkpt><trkpt lat="38.71276999930158" lon="16.52243242016006"><ele>31.142857142857142</ele><time>2026-05-03T08:05:02Z</time></trkpt><trkpt lat="38.71275124359742" lon="16.522351709076965"><ele>31.857142857142858</ele><time>2026-05-03T08:05:09Z</time></trkpt><trkpt lat="38.712721575855745" lon="16.522277432344215"><ele>32.57142857142857</ele><time>2026-05-03T08:05:15Z</time></trkpt><trkpt lat="38.71269781342098" lon="16.522197923543352"><ele>33.285714285714285</ele><time>2026-05-03T08:05:20Z</time></trkpt><trkpt lat="38.71267912390639" lon="16.52212003737016"><ele>34.0</ele><time>2026-05-03T08:05:25Z</time></trkpt><trkpt lat="38.712688906764996" lon="16.522034789623923"><ele>35.285714285714285</ele><time>2026-05-03T08:05:32Z</time></trkpt><trkpt lat="38.712678993843" lon="16.521949110310253"><ele>36.57142857142857</ele><time>2026-05-03T08:05:38Z</time></trkpt><trkpt lat="38.712679474341144" lon="16.521863443773576"><ele>37.85714285714286</ele><time>2026-05-03T08:05:45Z</time></trkpt><trkpt lat="38.712705796713536" lon="16.521775190137408"><ele>39.14285714285714</ele><time>2026-05-03T08:05:53Z</time></trkpt><trkpt lat="38.71269910778979" lon="16.52168874340869"><ele>40.42857142857143</ele><time>2026-05-03T08:06:01Z</time></trkpt><trkpt lat="38.71271670940658" lon="16.521606510272786"><ele>41.714285714285715</ele><time>2026-05-03T08:06:11Z</time></trkpt><trkpt lat="38.71276473965232" lon="16.52153947298708"><ele>43.0</ele><time>2026-05-03T08:06:20Z</time></trkpt><trkpt lat="38.71285673877326" lon="16.521519834991462"><ele>44.714285714285715</ele><time>2026-05-03T08:06:29Z</time></trkpt><trkpt lat="38.71292644874823" lon="16.521543161280945"><ele>46.42857142857143</ele><time>2026-05-03T08:06:35Z</time></trkpt><trkpt lat="38.71297757805012" lon="16.521601131821182"><ele>48.14285714285714</ele><time>2026-05-03T08:06:40Z</time></trkpt><trkpt lat="38.713030657069396" lon="16.521651104819593"><ele>49.85714285714286</ele><time>2026-05-03T08:06:46Z</time></trkpt><trkpt lat="38.71308461839395" lon="16.521697185715993"><ele>51.57142857142857</ele><time>2026-05-03T08:06:54Z</time></trkpt><trkpt lat="38.713150936723835" lon="16.521723062330203"><ele>53.285714285714285</ele><time>2026-05-03T08:07:00Z</time></trkpt><trkpt lat="38.71321448255855" lon="16.521694990870984"><ele>55.0</ele><time>2026-05-03T08:07:08Z</time></trkpt><trkpt lat="38.713254088139045" lon="16.52178420419459"><ele>54.99999999999999</ele><time>2026-05-03T08:09:02Z</time></trkpt><trkpt lat="38.71332647206186" lon="16.521773635307028"><ele>55.0</ele><time>2026-05-03T08:09:07Z</time></trkpt><trkpt lat="38.71338628467862" lon="16.521727883762313"><ele>55.0</ele><time>2026-05-03T08:09:11Z</time></trkpt><trkpt lat="38.713417776724974" lon="16.521647450982496"><ele>55.0</ele><time>2026-05-03T08:09:17Z</time></trkpt><trkpt lat="38.71342408787534" lon="16.521562525675094"><ele>55.0</ele><time>2026-05-03T08:09:24Z</time></trkpt><trkpt lat="38.71340633759292" lon="16.521478726479977"><ele>54.99999999999999</ele><time>2026-05-03T08:09:30Z</time></trkpt><trkpt lat="38.713361693832645" lon="16.521406281886605"><ele>55.0</ele><time>2026-05-03T08:09:36.999Z</time></trkpt><trkpt lat="38.71331495698595" lon="16.521340318142503"><ele>54.99999999999999</ele><time>2026-05-03T08:09:44Z</time></trkpt><trkpt lat="38.713265870688986" lon="16.52127477498369"><ele>55.0</ele><time>2026-05-03T08:09:52Z</time></trkpt><trkpt lat="38.71321733210564" lon="16.521211181836403"><ele>55.0</ele><time>2026-05-03T08:09:59Z</time></trkpt><trkpt lat="38.71316741706172" lon="16.521135541168622"><ele>55.0</ele><time>2026-05-03T08:10:04Z</time></trkpt><trkpt lat="38.71311790175534" lon="16.52108451230941"><ele>55.0</ele><time>2026-05-03T08:10:10Z</time></trkpt><trkpt lat="38.7130739341108" lon="16.52102046740803"><ele>54.99999999999999</ele><time>2026-05-03T08:10:18Z</time></trkpt><trkpt lat="38.71302716803646" lon="16.520956171722464"><ele>55.0</ele><time>2026-05-03T08:10:26Z</time></trkpt><trkpt lat="38.7129833303396" lon="16.520884784548095"><ele>55.57142857142857</ele><time>2026-05-03T08:10:33Z</time></trkpt><trkpt lat="38.71293450576149" lon="16.520816355585133"><ele>56.14285714285714</ele><time>2026-05-03T08:10:40Z</time></trkpt><trkpt lat="38.71288773891802" lon="16.52074473797964"><ele>56.71428571428571</ele><time>2026-05-03T08:10:48Z</time></trkpt><trkpt lat="38.71284918843701" lon="16.520676025245535"><ele>57.285714285714285</ele><time>2026-05-03T08:10:54Z</time></trkpt><trkpt lat="38.71281020642375" lon="16.520603534366554"><ele>57.85714285714286</ele><time>2026-05-03T08:11:00Z</time></trkpt><trkpt lat="38.712762599570624" lon="16.520542374051836"><ele>58.42857142857142</ele><time>2026-05-03T08:11:06Z</time></trkpt><trkpt lat="38.712707945071486" lon="16.520484252127947"><ele>59.0</ele><time>2026-05-03T08:11:13Z</time></trkpt><trkpt lat="38.71266469165375" lon="16.52042096418688"><ele>62.14285714285714</ele><time>2026-05-03T08:11:58Z</time></trkpt><trkpt lat="38.712596312198905" lon="16.520398099056287"><ele>65.28571428571429</ele><time>2026-05-03T08:12:03Z</time></trkpt><trkpt lat="38.71253901746089" lon="16.520358626941217"><ele>68.42857142857143</ele><time>2026-05-03T08:12:11Z</time></trkpt><trkpt lat="38.71247304000105" lon="16.520317028271634"><ele>71.57142857142857</ele><time>2026-05-03T08:12:18Z</time></trkpt><trkpt lat="38.71241331722371" lon="16.520285770183403"><ele>74.71428571428571</ele><time>2026-05-03T08:12:27Z</time></trkpt><trkpt lat="38.712353082816094" lon="16.5202609170302"><ele>77.85714285714286</ele><time>2026-05-03T08:12:33Z</time></trkpt><trkpt lat="38.71229129193119" lon="16.520221620636846"><ele>81.0</ele><time>2026-05-03T08:12:52Z</time></trkpt><trkpt lat="38.71222618957052" lon="16.520192051576817"><ele>81.0</ele><time>2026-05-03T08:12:58Z</time></trkpt><trkpt lat="38.712168362230194" lon="16.520138953563578"><ele>81.0</ele><time>2026-05-03T08:13:05Z</time></trkpt><trkpt lat="38.71213962375936" lon="16.52006237558369"><ele>81.0</ele><time>2026-05-03T08:13:10Z</time></trkpt><trkpt lat="38.712147045657716" lon="16.519976389042647"><ele>81.0</ele><time>2026-05-03T08:13:17Z</time></trkpt><trkpt lat="38.712185111638085" lon="16.519895352529357"><ele>81.0</ele><time>2026-05-03T08:13:23Z</time></trkpt><trkpt lat="38.7122339607548" lon="16.51983431098214"><ele>81.0</ele><time>2026-05-03T08:13:29Z</time></trkpt><trkpt lat="38.71228527322738" lon="16.519772608447013"><ele>81.0</ele><time>2026-05-03T08:13:37Z</time></trkpt><trkpt lat="38.71233280528443" lon="16.519685097912017"><ele>81.0</ele><time>2026-05-03T08:13:45.999Z</time></trkpt><trkpt lat="38.71238478992025" lon="16.51963576224941"><ele>81.0</ele><time>2026-05-03T08:13:52Z</time></trkpt><trkpt lat="38.71244096786278" lon="16.519584339571562"><ele>81.0</ele><time>2026-05-03T08:13:59Z</time></trkpt><trkpt lat="38.7124951048523" lon="16.51953370393795"><ele>81.0</ele><time>2026-05-03T08:14:06Z</time></trkpt><trkpt lat="38.71256027555143" lon="16.519483840841346"><ele>81.0</ele><time>2026-05-03T08:14:13Z</time></trkpt><trkpt lat="38.712616618980164" lon="16.519441499838216"><ele>81.0</ele><time>2026-05-03T08:14:18Z</time></trkpt><trkpt lat="38.71269224460693" lon="16.519400585736065"><ele>81.0</ele><time>2026-05-03T08:14:28Z</time></trkpt><trkpt lat="38.71275711566758" lon="16.519366212072836"><ele>84.19999999999999</ele><time>2026-05-03T08:14:33Z</time></trkpt><trkpt lat="38.71282602933051" lon="16.519324208203095"><ele>87.39999999999999</ele><time>2026-05-03T08:14:41Z</time></trkpt><trkpt lat="38.71289040415006" lon="16.51929692185469"><ele>90.6</ele><time>2026-05-03T08:14:48Z</time></trkpt><trkpt lat="38.7129633949703" lon="16.51926499115148"><ele>93.8</ele><time>2026-05-03T08:14:53Z</time></trkpt><trkpt lat="38.713039280918835" lon="16.51923029917795"><ele>97.0</ele><time>2026-05-03T08:14:59Z</time></trkpt><trkpt lat="38.71319456871692" lon="16.51913257394044"><ele>97.0</ele><time>2026-05-03T08:15:16Z</time></trkpt><trkpt lat="38.71326179552131" lon="16.519091027430267"><ele>97.0</ele><time>2026-05-03T08:15:22Z</time></trkpt><trkpt lat="38.71331727887213" lon="16.51904535707581"><ele>97.0</ele><time>2026-05-03T08:15:28Z</time></trkpt><trkpt lat="38.71336731767014" lon="16.51897943190694"><ele>97.0</ele><time>2026-05-03T08:15:34Z</time></trkpt><trkpt lat="38.71341356510127" lon="16.5189116102183"><ele>97.0</ele><time>2026-05-03T08:15:40Z</time></trkpt><trkpt lat="38.71344331557927" lon="16.518835849503418"><ele>97.0</ele><time>2026-05-03T08:15:46Z</time></trkpt><trkpt lat="38.713447137604064" lon="16.51874137567389"><ele>97.0</ele><time>2026-05-03T08:15:52Z</time></trkpt><trkpt lat="38.71346091996327" lon="16.518658276862286"><ele>97.28571428571428</ele><time>2026-05-03T08:15:56.999Z</time></trkpt><trkpt lat="38.71345737767778" lon="16.518576495652983"><ele>97.57142857142858</ele><time>2026-05-03T08:16:03Z</time></trkpt><trkpt lat="38.713454688130994" lon="16.518489555981947"><ele>97.85714285714286</ele><time>2026-05-03T08:16:09Z</time></trkpt><trkpt lat="38.713448362108565" lon="16.51839974511163"><ele>98.14285714285714</ele><time>2026-05-03T08:16:15Z</time></trkpt><trkpt lat="38.71343979340744" lon="16.518318180263694"><ele>98.42857142857142</ele><time>2026-05-03T08:16:20Z</time></trkpt><trkpt lat="38.713448645489066" lon="16.518227095492524"><ele>98.71428571428572</ele><time>2026-05-03T08:16:26Z</time></trkpt><trkpt lat="38.71343710770935" lon="16.518143292957646"><ele>99.0</ele><time>2026-05-03T08:16:32Z</time></trkpt><trkpt lat="38.71343492324829" lon="16.51806194885381"><ele>99.0</ele><time>2026-05-03T08:16:59Z</time></trkpt><trkpt lat="38.713423948189906" lon="16.5179764376499"><ele>99.0</ele><time>2026-05-03T08:17:06Z</time></trkpt><trkpt lat="38.713442543742374" lon="16.517898008197186"><ele>99.0</ele><time>2026-05-03T08:17:12Z</time></trkpt><trkpt lat="38.71342851808955" lon="16.517812102643145"><ele>99.0</ele><time>2026-05-03T08:17:17Z</time></trkpt><trkpt lat="38.71337703795693" lon="16.517749341320886"><ele>99.0</ele><time>2026-05-03T08:17:23Z</time></trkpt><trkpt lat="38.71332119564278" lon="16.51770165739349"><ele>99.0</ele><time>2026-05-03T08:17:29Z</time></trkpt><trkpt lat="38.71326161579547" lon="16.517656755139402"><ele>99.0</ele><time>2026-05-03T08:17:36Z</time></trkpt><trkpt lat="38.713197380380734" lon="16.517625024312707"><ele>100.42857142857143</ele><time>2026-05-03T08:17:42Z</time></trkpt><trkpt lat="38.713128818022525" lon="16.517600257081156"><ele>101.85714285714285</ele><time>2026-05-03T08:17:48Z</time></trkpt><trkpt lat="38.71306670949192" lon="16.517573779929247"><ele>103.28571428571428</ele><time>2026-05-03T08:17:54Z</time></trkpt><trkpt lat="38.71300186946641" lon="16.517589318895837"><ele>104.71428571428572</ele><time>2026-05-03T08:18:00Z</time></trkpt><trkpt lat="38.71292646063907" lon="16.517604578150138"><ele>106.14285714285714</ele><time>2026-05-03T08:18:07Z</time></trkpt><trkpt lat="38.71285841374362" lon="16.51758846738174"><ele>107.57142857142857</ele><time>2026-05-03T08:18:14Z</time></trkpt><trkpt lat="38.71279188283629" lon="16.517582308752225"><ele>109.0</ele><time>2026-05-03T08:18:20Z</time></trkpt><trkpt lat="38.71272446170863" lon="16.51757483855867"><ele>109.71428571428572</ele><time>2026-05-03T08:18:27Z</time></trkpt><trkpt lat="38.7126616416796" lon="16.51755019668489"><ele>110.42857142857143</ele><time>2026-05-03T08:18:33Z</time></trkpt><trkpt lat="38.71260324981804" lon="16.517514158817075"><ele>111.14285714285714</ele><time>2026-05-03T08:18:39Z</time></trkpt><trkpt lat="38.71253452220807" lon="16.517482494573553"><ele>111.85714285714286</ele><time>2026-05-03T08:18:46Z</time></trkpt><trkpt lat="38.71246875902947" lon="16.517449505034612"><ele>112.57142857142856</ele><time>2026-05-03T08:18:55Z</time></trkpt><trkpt lat="38.71240877967721" lon="16.517399578187575"><ele>113.28571428571428</ele><time>2026-05-03T08:19:14Z</time></trkpt><trkpt lat="38.71235774905247" lon="16.517348390159626"><ele>114.0</ele><time>2026-05-03T08:19:22Z</time></trkpt><trkpt lat="38.71231837797965" lon="16.517285371807457"><ele>114.0</ele><time>2026-05-03T08:19:33Z</time></trkpt><trkpt lat="38.71229275048677" lon="16.51720595570756"><ele>113.99999999999999</ele><time>2026-05-03T08:19:39Z</time></trkpt><trkpt lat="38.712263398940756" lon="16.51712449549573"><ele>114.0</ele><time>2026-05-03T08:19:48Z</time></trkpt><trkpt lat="38.712239156956116" lon="16.517038861838532"><ele>114.0</ele><time>2026-05-03T08:19:55Z</time></trkpt><trkpt lat="38.71221076433718" lon="16.516952145768126"><ele>113.99999999999999</ele><time>2026-05-03T08:20:02Z</time></trkpt><trkpt lat="38.71217724742266" lon="16.51688045905717"><ele>114.0</ele><time>2026-05-03T08:20:10Z</time></trkpt><trkpt lat="38.71213763629548" lon="16.51680914735587"><ele>114.0</ele><time>2026-05-03T08:20:17Z</time></trkpt><trkpt lat="38.7120960846789" lon="16.516745677908805"><ele>116.42857142857142</ele><time>2026-05-03T08:20:23Z</time></trkpt><trkpt lat="38.71205269443172" lon="16.51668053381172"><ele>118.85714285714285</ele><time>2026-05-03T08:20:30Z</time></trkpt><trkpt lat="38.71199267822996" lon="16.516634294110496"><ele>121.28571428571428</ele><time>2026-05-03T08:20:38Z</time></trkpt><trkpt lat="38.711935502636074" lon="16.516599390547114"><ele>123.71428571428572</ele><time>2026-05-03T08:20:44Z</time></trkpt><trkpt lat="38.71187383804238" lon="16.516556218967768"><ele>126.14285714285715</ele><time>2026-05-03T08:20:52Z</time></trkpt><trkpt lat="38.7118276649711" lon="16.51648686352689"><ele>128.57142857142858</ele><time>2026-05-03T08:21:00Z</time></trkpt><trkpt lat="38.71179699825832" lon="16.516397686173757"><ele>131.0</ele><time>2026-05-03T08:21:08Z</time></trkpt><trkpt lat="38.711772894504634" lon="16.5163190618313"><ele>133.85714285714286</ele><time>2026-05-03T08:21:16Z</time></trkpt><trkpt lat="38.71176387868446" lon="16.51623505930319"><ele>136.71428571428572</ele><time>2026-05-03T08:21:24Z</time></trkpt><trkpt lat="38.7117551109425" lon="16.516144725144922"><ele>139.57142857142858</ele><time>2026-05-03T08:21:31Z</time></trkpt><trkpt lat="38.71174854638797" lon="16.51606297208091"><ele>142.42857142857144</ele><time>2026-05-03T08:21:39Z</time></trkpt><trkpt lat="38.711725863532976" lon="16.515979429150033"><ele>145.28571428571428</ele><time>2026-05-03T08:22:16Z</time></trkpt><trkpt lat="38.71166152978678" lon="16.51595303209194"><ele>148.14285714285717</ele><time>2026-05-03T08:22:22Z</time></trkpt><trkpt lat="38.71159925651836" lon="16.515972745992585"><ele>151.0</ele><time>2026-05-03T08:22:27Z</time></trkpt><trkpt lat="38.7115446795635" lon="16.516019988463437"><ele>151.00000000000003</ele><time>2026-05-03T08:22:32Z</time></trkpt><trkpt lat="38.71149376789771" lon="16.51608257160716"><ele>151.0</ele><time>2026-05-03T08:22:39Z</time></trkpt><trkpt lat="38.711455885768004" lon="16.51615835286319"><ele>151.0</ele><time>2026-05-03T08:22:46Z</time></trkpt><trkpt lat="38.71142251870323" lon="16.516231036245944"><ele>151.0</ele><time>2026-05-03T08:22:52Z</time></trkpt><trkpt lat="38.71136906339649" lon="16.516292740512082"><ele>151.0</ele><time>2026-05-03T08:22:59Z</time></trkpt><trkpt lat="38.7113095190417" lon="16.516332426746583"><ele>151.00000000000003</ele><time>2026-05-03T08:23:06Z</time></trkpt><trkpt lat="38.71125107081043" lon="16.516298771162724"><ele>151.0</ele><time>2026-05-03T08:23:24Z</time></trkpt><trkpt lat="38.71120456022756" lon="16.51624168383959"><ele>151.00000000000003</ele><time>2026-05-03T08:23:29Z</time></trkpt><trkpt lat="38.71117911991174" lon="16.516158255776197"><ele>151.0</ele><time>2026-05-03T08:23:36Z</time></trkpt><trkpt lat="38.71118164741397" lon="16.516071369124454"><ele>151.0</ele><time>2026-05-03T08:23:42Z</time></trkpt><trkpt lat="38.711205296462104" lon="16.515985774958008"><ele>151.0</ele><time>2026-05-03T08:23:50Z</time></trkpt><trkpt lat="38.711236095981384" lon="16.515905100764634"><ele>151.0</ele><time>2026-05-03T08:23:58Z</time></trkpt><trkpt lat="38.71127230855466" lon="16.515836001323695"><ele>151.00000000000003</ele><time>2026-05-03T08:24:04Z</time></trkpt><trkpt lat="38.71130742525601" lon="16.515760830699957"><ele>151.0</ele><time>2026-05-03T08:24:11Z</time></trkpt><trkpt lat="38.71133167511324" lon="16.515680091396202"><ele>151.00000000000003</ele><time>2026-05-03T08:24:18Z</time></trkpt><trkpt lat="38.7113304281138" lon="16.515588887787107"><ele>151.0</ele><time>2026-05-03T08:24:24Z</time></trkpt><trkpt lat="38.7113227786982" lon="16.515504476536744"><ele>151.0</ele><time>2026-05-03T08:24:31Z</time></trkpt><trkpt lat="38.71131778174197" lon="16.515423549755035"><ele>151.0</ele><time>2026-05-03T08:24:37Z</time></trkpt><trkpt lat="38.71130427877372" lon="16.515340367610555"><ele>151.0</ele><time>2026-05-03T08:24:44Z</time></trkpt><trkpt lat="38.71130384708595" lon="16.515248386127666"><ele>151.00000000000003</ele><time>2026-05-03T08:24:51Z</time></trkpt><trkpt lat="38.711286624866254" lon="16.515149715235395"><ele>151.0</ele><time>2026-05-03T08:25:00Z</time></trkpt><trkpt lat="38.711257893689606" lon="16.5150696696501"><ele>153.42857142857144</ele><time>2026-05-03T08:25:07Z</time></trkpt><trkpt lat="38.711232851739375" lon="16.514991774346402"><ele>155.85714285714286</ele><time>2026-05-03T08:25:14Z</time></trkpt><trkpt lat="38.71122872939562" lon="16.51490902457096"><ele>158.28571428571428</ele><time>2026-05-03T08:25:20Z</time></trkpt><trkpt lat="38.711241361533574" lon="16.51482971820141"><ele>160.71428571428572</ele><time>2026-05-03T08:25:27Z</time></trkpt><trkpt lat="38.711267969674175" lon="16.51475493058395"><ele>163.14285714285714</ele><time>2026-05-03T08:25:34Z</time></trkpt><trkpt lat="38.711314437665564" lon="16.51469145953562"><ele>165.57142857142858</ele><time>2026-05-03T08:25:41Z</time></trkpt><trkpt lat="38.71135552296824" lon="16.514624050199213"><ele>168.0</ele><time>2026-05-03T08:25:48Z</time></trkpt><trkpt lat="38.7114004715531" lon="16.51456603754526"><ele>168.71428571428572</ele><time>2026-05-03T08:25:54Z</time></trkpt><trkpt lat="38.71144748255144" lon="16.514488121557118"><ele>169.42857142857144</ele><time>2026-05-03T08:26:02Z</time></trkpt><trkpt lat="38.711494507503915" lon="16.5144257843617"><ele>170.14285714285714</ele><time>2026-05-03T08:26:09Z</time></trkpt><trkpt lat="38.71153532902957" lon="16.514359258185664"><ele>170.85714285714286</ele><time>2026-05-03T08:26:16Z</time></trkpt><trkpt lat="38.71158817891543" lon="16.514297595872126"><ele>171.57142857142858</ele><time>2026-05-03T08:26:24Z</time></trkpt><trkpt lat="38.711636538476796" lon="16.514237944821865"><ele>172.28571428571428</ele><time>2026-05-03T08:26:31Z</time></trkpt><trkpt lat="38.71168740204959" lon="16.51417660441732"><ele>173.0</ele><time>2026-05-03T08:26:40Z</time></trkpt><trkpt lat="38.71175745240334" lon="16.514159871508458"><ele>173.0</ele><time>2026-05-03T08:27:21Z</time></trkpt><trkpt lat="38.711824099238115" lon="16.51416699314431"><ele>173.0</ele><time>2026-05-03T08:27:41Z</time></trkpt><trkpt lat="38.711892908798184" lon="16.514172872612175"><ele>173.0</ele><time>2026-05-03T08:27:47Z</time></trkpt><trkpt lat="38.71196002733318" lon="16.514203624618023"><ele>173.0</ele><time>2026-05-03T08:27:53Z</time></trkpt><trkpt lat="38.71202580128991" lon="16.514231151534116"><ele>173.0</ele><time>2026-05-03T08:28:00Z</time></trkpt><trkpt lat="38.71208862752796" lon="16.514253697061985"><ele>173.0</ele><time>2026-05-03T08:28:06Z</time></trkpt><trkpt lat="38.71215454892354" lon="16.514264979300112"><ele>173.0</ele><time>2026-05-03T08:28:12Z</time></trkpt><trkpt lat="38.71222612314582" lon="16.514270927496607"><ele>175.0</ele><time>2026-05-03T08:28:35Z</time></trkpt><trkpt lat="38.712291975675704" lon="16.514253124197914"><ele>177.0</ele><time>2026-05-03T08:28:47Z</time></trkpt><trkpt lat="38.712367642089255" lon="16.514265337470263"><ele>179.0</ele><time>2026-05-03T08:28:53Z</time></trkpt><trkpt lat="38.71243400886454" lon="16.51426906096245"><ele>181.0</ele><time>2026-05-03T08:29:00Z</time></trkpt><trkpt lat="38.71250111373674" lon="16.514245752910043"><ele>183.0</ele><time>2026-05-03T08:29:07Z</time></trkpt><trkpt lat="38.71256479971761" lon="16.51422294705435"><ele>185.0</ele><time>2026-05-03T08:29:13Z</time></trkpt><trkpt lat="38.712634931771476" lon="16.514202460784503"><ele>187.0</ele><time>2026-05-03T08:29:20Z</time></trkpt><trkpt lat="38.71272711404576" lon="16.514191237060636"><ele>185.57142857142856</ele><time>2026-05-03T08:29:30Z</time></trkpt><trkpt lat="38.71281633750346" lon="16.51417692259838"><ele>184.14285714285717</ele><time>2026-05-03T08:29:38Z</time></trkpt><trkpt lat="38.712882530719625" lon="16.51414148521482"><ele>182.71428571428572</ele><time>2026-05-03T08:29:46Z</time></trkpt><trkpt lat="38.712945455902194" lon="16.514131641223283"><ele>181.28571428571428</ele><time>2026-05-03T08:29:51Z</time></trkpt><trkpt lat="38.71299483810487" lon="16.51407216259537"><ele>179.85714285714283</ele><time>2026-05-03T08:29:58Z</time></trkpt><trkpt lat="38.71303506299555" lon="16.513999950302086"><ele>178.42857142857144</ele><time>2026-05-03T08:30:04Z</time></trkpt><trkpt lat="38.713084780468115" lon="16.513941117733882"><ele>177.0</ele><time>2026-05-03T08:30:12Z</time></trkpt><trkpt lat="38.713129374163344" lon="16.513843709576896"><ele>177.0</ele><time>2026-05-03T08:30:21.999Z</time></trkpt><trkpt lat="38.713127616996296" lon="16.513756506098847"><ele>177.0</ele><time>2026-05-03T08:30:28.999Z</time></trkpt><trkpt lat="38.713123089817074" lon="16.51367491010158"><ele>177.0</ele><time>2026-05-03T08:30:34.999Z</time></trkpt><trkpt lat="38.71310637372306" lon="16.513584499869104"><ele>177.0</ele><time>2026-05-03T08:30:40.999Z</time></trkpt><trkpt lat="38.713082008551176" lon="16.513508585037727"><ele>177.0</ele><time>2026-05-03T08:30:45.999Z</time></trkpt><trkpt lat="38.71304362040621" lon="16.51342091426449"><ele>177.0</ele><time>2026-05-03T08:30:52Z</time></trkpt><trkpt lat="38.71300246986171" lon="16.5133443354861"><ele>177.0</ele><time>2026-05-03T08:30:59Z</time></trkpt><trkpt lat="38.71296119879315" lon="16.5132749516052"><ele>178.2857142857143</ele><time>2026-05-03T08:31:06Z</time></trkpt><trkpt lat="38.71291999848377" lon="16.513203759701327"><ele>179.57142857142856</ele><time>2026-05-03T08:31:14Z</time></trkpt><trkpt lat="38.71289806713354" lon="16.51312595127139"><ele>180.85714285714286</ele><time>2026-05-03T08:31:25Z</time></trkpt><trkpt lat="38.712890937879365" lon="16.513042387839985"><ele>182.14285714285717</ele><time>2026-05-03T08:31:30Z</time></trkpt><trkpt lat="38.71288448603484" lon="16.512961380941743"><ele>183.42857142857144</ele><time>2026-05-03T08:31:35Z</time></trkpt><trkpt lat="38.71289009852663" lon="16.512878884976452"><ele>184.71428571428572</ele><time>2026-05-03T08:31:41Z</time></trkpt><trkpt lat="38.712898545791234" lon="16.51278707274947"><ele>186.0</ele><time>2026-05-03T08:31:50Z</time></trkpt><trkpt lat="38.712899959981705" lon="16.512694319136042"><ele>187.14285714285717</ele><time>2026-05-03T08:31:58Z</time></trkpt><trkpt lat="38.712895821384905" lon="16.51260582569182"><ele>188.28571428571428</ele><time>2026-05-03T08:32:10Z</time></trkpt><trkpt lat="38.71291239885295" lon="16.512524042933425"><ele>189.42857142857144</ele><time>2026-05-03T08:32:16Z</time></trkpt><trkpt lat="38.71294474790708" lon="16.512442207931993"><ele>190.57142857142858</ele><time>2026-05-03T08:32:23Z</time></trkpt><trkpt lat="38.71296639157833" lon="16.512366218121343"><ele>191.71428571428572</ele><time>2026-05-03T08:32:30Z</time></trkpt><trkpt lat="38.71298670991581" lon="16.512284591072294"><ele>192.85714285714286</ele><time>2026-05-03T08:32:38Z</time></trkpt><trkpt lat="38.713017867200676" lon="16.51220086021365"><ele>194.0</ele><time>2026-05-03T08:32:45Z</time></trkpt><trkpt lat="38.71304140359667" lon="16.512113549897894"><ele>195.28571428571428</ele><time>2026-05-03T08:32:52Z</time></trkpt><trkpt lat="38.713065176875524" lon="16.5120381338716"><ele>196.57142857142858</ele><time>2026-05-03T08:32:58Z</time></trkpt><trkpt lat="38.71307298406119" lon="16.511946858133665"><ele>197.85714285714286</ele><time>2026-05-03T08:33:05Z</time></trkpt><trkpt lat="38.71307866878315" lon="16.511864991011315"><ele>199.14285714285714</ele><time>2026-05-03T08:33:11Z</time></trkpt><trkpt lat="38.71309816652659" lon="16.51177291939783"><ele>200.42857142857144</ele><time>2026-05-03T08:33:18Z</time></trkpt><trkpt lat="38.713121217976486" lon="16.511683668066233"><ele>201.71428571428572</ele><time>2026-05-03T08:33:25Z</time></trkpt><trkpt lat="38.713130148817136" lon="16.51159943195608"><ele>203.0</ele><time>2026-05-03T08:33:31Z</time></trkpt><trkpt lat="38.71313305221983" lon="16.511507859868388"><ele>203.0</ele><time>2026-05-03T08:33:38Z</time></trkpt><trkpt lat="38.713147506138334" lon="16.51141245204768"><ele>203.0</ele><time>2026-05-03T08:33:46Z</time></trkpt><trkpt lat="38.71315595568202" lon="16.51132418860112"><ele>203.0</ele><time>2026-05-03T08:33:52Z</time></trkpt><trkpt lat="38.71316561463164" lon="16.511238578904333"><ele>203.0</ele><time>2026-05-03T08:33:58Z</time></trkpt><trkpt lat="38.7131715019614" lon="16.51115713989278"><ele>203.0</ele><time>2026-05-03T08:34:04Z</time></trkpt><trkpt lat="38.713151386012875" lon="16.511068303069337"><ele>203.0</ele><time>2026-05-03T08:34:11Z</time></trkpt><trkpt lat="38.71312359980937" lon="16.51098229638548"><ele>203.0</ele><time>2026-05-03T08:34:17Z</time></trkpt><trkpt lat="38.713098560312766" lon="16.51089506997145"><ele>204.28571428571428</ele><time>2026-05-03T08:34:23Z</time></trkpt><trkpt lat="38.71307996019056" lon="16.510812092905024"><ele>205.57142857142856</ele><time>2026-05-03T08:34:30Z</time></trkpt><trkpt lat="38.71307254186442" lon="16.510718877092675"><ele>206.85714285714286</ele><time>2026-05-03T08:34:36Z</time></trkpt><trkpt lat="38.713088429795945" lon="16.510635368255855"><ele>208.14285714285714</ele><time>2026-05-03T08:34:43Z</time></trkpt><trkpt lat="38.71309920261285" lon="16.51054111791701"><ele>209.42857142857142</ele><time>2026-05-03T08:34:50Z</time></trkpt><trkpt lat="38.71311060653364" lon="16.51045117250253"><ele>210.71428571428572</ele><time>2026-05-03T08:34:56Z</time></trkpt><trkpt lat="38.71311777078331" lon="16.5103690935244"><ele>212.0</ele><time>2026-05-03T08:35:02Z</time></trkpt><trkpt lat="38.71313988551573" lon="16.510279776061893"><ele>214.28571428571428</ele><time>2026-05-03T08:35:08Z</time></trkpt><trkpt lat="38.71315159823432" lon="16.510197114430714"><ele>216.57142857142856</ele><time>2026-05-03T08:35:15Z</time></trkpt><trkpt lat="38.71317394706022" lon="16.51011921777742"><ele>218.85714285714283</ele><time>2026-05-03T08:35:22Z</time></trkpt><trkpt lat="38.713185985434684" lon="16.51003977955972"><ele>221.14285714285714</ele><time>2026-05-03T08:35:29Z</time></trkpt><trkpt lat="38.71320987342278" lon="16.509958435930113"><ele>223.4285714285714</ele><time>2026-05-03T08:35:37Z</time></trkpt><trkpt lat="38.713248463261216" lon="16.50987823424347"><ele>225.7142857142857</ele><time>2026-05-03T08:35:44Z</time></trkpt><trkpt lat="38.71330749724034" lon="16.509818033381404"><ele>228.0</ele><time>2026-05-03T08:36:55Z</time></trkpt><trkpt lat="38.7133663122279" lon="16.509776869392546"><ele>228.0</ele><time>2026-05-03T08:37:00Z</time></trkpt><trkpt lat="38.71341048082087" lon="16.50970538185406"><ele>227.99999999999997</ele><time>2026-05-03T08:37:08Z</time></trkpt><trkpt lat="38.71345869054346" lon="16.509645001614995"><ele>228.0</ele><time>2026-05-03T08:37:14Z</time></trkpt><trkpt lat="38.71351376774304" lon="16.509571347696326"><ele>228.0</ele><time>2026-05-03T08:37:24Z</time></trkpt><trkpt lat="38.713551082605164" lon="16.509502184839363"><ele>227.99999999999997</ele><time>2026-05-03T08:37:30Z</time></trkpt><trkpt lat="38.71358700642401" lon="16.509435231383414"><ele>228.0</ele><time>2026-05-03T08:37:38Z</time></trkpt><trkpt lat="38.713626631068834" lon="16.509349302254716"><ele>228.0</ele><time>2026-05-03T08:37:45Z</time></trkpt><trkpt lat="38.71365569202532" lon="16.509272619742735"><ele>225.28571428571428</ele><time>2026-05-03T08:37:53Z</time></trkpt><trkpt lat="38.71369199462686" lon="16.509192784756184"><ele>222.57142857142856</ele><time>2026-05-03T08:37:59Z</time></trkpt><trkpt lat="38.71371141337142" lon="16.50911417277578"><ele>219.85714285714283</ele><time>2026-05-03T08:38:05Z</time></trkpt><trkpt lat="38.71371030135396" lon="16.50902888355399"><ele>217.14285714285714</ele><time>2026-05-03T08:38:11Z</time></trkpt><trkpt lat="38.7136934322631" lon="16.50894938003124"><ele>214.42857142857142</ele><time>2026-05-03T08:38:18Z</time></trkpt><trkpt lat="38.713661818916066" lon="16.508871926811615"><ele>211.71428571428572</ele><time>2026-05-03T08:38:24Z</time></trkpt><trkpt lat="38.713621939330615" lon="16.508809360263843"><ele>209.0</ele><time>2026-05-03T08:38:31Z</time></trkpt><trkpt lat="38.71358186564606" lon="16.508746769858732"><ele>214.85714285714286</ele><time>2026-05-03T08:38:36Z</time></trkpt><trkpt lat="38.71353182661644" lon="16.508692125818623"><ele>220.71428571428572</ele><time>2026-05-03T08:38:42Z</time></trkpt><trkpt lat="38.71348689934719" lon="16.508625536155492"><ele>226.57142857142856</ele><time>2026-05-03T08:38:53Z</time></trkpt><trkpt lat="38.713448930615854" lon="16.50855214229568"><ele>232.42857142857144</ele><time>2026-05-03T08:39:00Z</time></trkpt><trkpt lat="38.713407367120396" lon="16.508483186517783"><ele>238.2857142857143</ele><time>2026-05-03T08:39:06Z</time></trkpt><trkpt lat="38.71337505868103" lon="16.508400251813313"><ele>244.14285714285714</ele><time>2026-05-03T08:39:12Z</time></trkpt><trkpt lat="38.7133471908185" lon="16.50832595841609"><ele>250.0</ele><time>2026-05-03T08:39:18Z</time></trkpt><trkpt lat="38.713335145532994" lon="16.508236787552256"><ele>250.0</ele><time>2026-05-03T08:39:25Z</time></trkpt><trkpt lat="38.71333268939692" lon="16.50814566526898"><ele>250.0</ele><time>2026-05-03T08:39:32Z</time></trkpt><trkpt lat="38.71332463395938" lon="16.5080647116508"><ele>250.0</ele><time>2026-05-03T08:39:39Z</time></trkpt><trkpt lat="38.71332727671915" lon="16.507983657965337"><ele>250.0</ele><time>2026-05-03T08:39:45Z</time></trkpt><trkpt lat="38.713342255582155" lon="16.507899407813202"><ele>250.0</ele><time>2026-05-03T08:39:52Z</time></trkpt><trkpt lat="38.71334733494973" lon="16.50781278196641"><ele>250.0</ele><time>2026-05-03T08:39:59Z</time></trkpt><trkpt lat="38.71335360528111" lon="16.507728678914827"><ele>250.0</ele><time>2026-05-03T08:40:09Z</time></trkpt><trkpt lat="38.71336995889443" lon="16.50763556946963"><ele>250.71428571428572</ele><time>2026-05-03T08:40:16Z</time></trkpt><trkpt lat="38.71337055374395" lon="16.50754748110254"><ele>251.42857142857144</ele><time>2026-05-03T08:40:22Z</time></trkpt><trkpt lat="38.71337545893335" lon="16.50746685941019"><ele>252.14285714285717</ele><time>2026-05-03T08:40:27Z</time></trkpt><trkpt lat="38.71337983382777" lon="16.507385559348716"><ele>252.85714285714286</ele><time>2026-05-03T08:40:34Z</time></trkpt><trkpt lat="38.7133894699174" lon="16.507303943421952"><ele>253.5714285714286</ele><time>2026-05-03T08:40:41Z</time></trkpt><trkpt lat="38.71339137213449" lon="16.507217332759136"><ele>254.2857142857143</ele><time>2026-05-03T08:40:47Z</time></trkpt><trkpt lat="38.71340982925991" lon="16.50713649931246"><ele>255.0</ele><time>2026-05-03T08:40:52Z</time></trkpt><trkpt lat="38.71341709320014" lon="16.507044534483516"><ele>256.57142857142856</ele><time>2026-05-03T08:41:00Z</time></trkpt><trkpt lat="38.713408753772626" lon="16.506963946402244"><ele>258.14285714285717</ele><time>2026-05-03T08:41:07Z</time></trkpt><trkpt lat="38.713414387413515" lon="16.506882257420145"><ele>259.7142857142857</ele><time>2026-05-03T08:41:14Z</time></trkpt><trkpt lat="38.713428272076506" lon="16.50679028267279"><ele>261.2857142857143</ele><time>2026-05-03T08:41:21Z</time></trkpt><trkpt lat="38.71343901676239" lon="16.506700321047003"><ele>262.8571428571429</ele><time>2026-05-03T08:41:29Z</time></trkpt><trkpt lat="38.7134443330415" lon="16.506613490619582"><ele>264.42857142857144</ele><time>2026-05-03T08:41:36Z</time></trkpt><trkpt lat="38.713451574015714" lon="16.506522139671855"><ele>266.0</ele><time>2026-05-03T08:41:43Z</time></trkpt><trkpt lat="38.71346171101188" lon="16.506438450656397"><ele>266.0</ele><time>2026-05-03T08:41:50Z</time></trkpt><trkpt lat="38.71345611814418" lon="16.506348808663756"><ele>266.0</ele><time>2026-05-03T08:41:58Z</time></trkpt><trkpt lat="38.71344976701366" lon="16.506267112354855"><ele>266.0</ele><time>2026-05-03T08:42:05Z</time></trkpt><trkpt lat="38.7134385051082" lon="16.506185044527808"><ele>266.0</ele><time>2026-05-03T08:42:13Z</time></trkpt><trkpt lat="38.71342726753939" lon="16.506095501487845"><ele>266.0</ele><time>2026-05-03T08:42:20Z</time></trkpt><trkpt lat="38.71339615034143" lon="16.506023339047328"><ele>266.0</ele><time>2026-05-03T08:42:27Z</time></trkpt><trkpt lat="38.7133320169921" lon="16.505970624028695"><ele>266.0</ele><time>2026-05-03T08:42:35Z</time></trkpt><trkpt lat="38.713273927277164" lon="16.505927114563747"><ele>268.14285714285717</ele><time>2026-05-03T08:42:42Z</time></trkpt><trkpt lat="38.71320520181271" lon="16.50592158344958"><ele>270.2857142857143</ele><time>2026-05-03T08:42:48Z</time></trkpt><trkpt lat="38.7131256562068" lon="16.50591489741667"><ele>272.42857142857144</ele><time>2026-05-03T08:42:55Z</time></trkpt><trkpt lat="38.71305376405374" lon="16.505924586218317"><ele>274.57142857142856</ele><time>2026-05-03T08:43:02Z</time></trkpt><trkpt lat="38.71298745965379" lon="16.505939190715655"><ele>276.7142857142857</ele><time>2026-05-03T08:43:09Z</time></trkpt><trkpt lat="38.7129122007164" lon="16.505939151893863"><ele>278.8571428571429</ele><time>2026-05-03T08:43:17Z</time></trkpt><trkpt lat="38.7128477955839" lon="16.505949822885096"><ele>281.0</ele><time>2026-05-03T08:43:23Z</time></trkpt><trkpt lat="38.71277596412202" lon="16.505957645183127"><ele>280.7142857142857</ele><time>2026-05-03T08:43:30Z</time></trkpt><trkpt lat="38.712704057920796" lon="16.505959373262087"><ele>280.42857142857144</ele><time>2026-05-03T08:43:37Z</time></trkpt><trkpt lat="38.71263213723983" lon="16.505954974400645"><ele>280.1428571428571</ele><time>2026-05-03T08:43:44Z</time></trkpt><trkpt lat="38.71257649216524" lon="16.505898961352134"><ele>279.8571428571429</ele><time>2026-05-03T08:43:51Z</time></trkpt><trkpt lat="38.71253728696746" lon="16.50582177299053"><ele>279.57142857142856</ele><time>2026-05-03T08:43:58Z</time></trkpt><trkpt lat="38.712529206906744" lon="16.505730494528752"><ele>279.2857142857143</ele><time>2026-05-03T08:44:05Z</time></trkpt><trkpt lat="38.71257592929703" lon="16.505657269520082"><ele>279.0</ele><time>2026-05-03T08:44:12Z</time></trkpt><trkpt lat="38.71263852144467" lon="16.505620220287852"><ele>278.99999999999994</ele><time>2026-05-03T08:44:19Z</time></trkpt><trkpt lat="38.71270466466497" lon="16.50561212850068"><ele>279.0</ele><time>2026-05-03T08:44:25Z</time></trkpt><trkpt lat="38.712772443337734" lon="16.50560589585807"><ele>279.0</ele><time>2026-05-03T08:44:31Z</time></trkpt><trkpt lat="38.71283655789274" lon="16.50556099613089"><ele>279.0</ele><time>2026-05-03T08:44:38Z</time></trkpt><trkpt lat="38.71289382654744" lon="16.50551449134389"><ele>279.0</ele><time>2026-05-03T08:44:45Z</time></trkpt><trkpt lat="38.71295104827871" lon="16.505468978595466"><ele>278.99999999999994</ele><time>2026-05-03T08:44:51Z</time></trkpt><trkpt lat="38.71300779553087" lon="16.505413297536947"><ele>279.0</ele><time>2026-05-03T08:44:58Z</time></trkpt><trkpt lat="38.71306831696071" lon="16.505353020401618"><ele>282.1428571428571</ele><time>2026-05-03T08:45:05Z</time></trkpt><trkpt lat="38.71311890694693" lon="16.505288384488907"><ele>285.2857142857143</ele><time>2026-05-03T08:45:12Z</time></trkpt><trkpt lat="38.713166509281706" lon="16.505228232923365"><ele>288.42857142857144</ele><time>2026-05-03T08:45:19Z</time></trkpt><trkpt lat="38.71321964957802" lon="16.50518042231618"><ele>291.57142857142856</ele><time>2026-05-03T08:45:26Z</time></trkpt><trkpt lat="38.71326306854369" lon="16.505112225532674"><ele>294.7142857142857</ele><time>2026-05-03T08:45:33Z</time></trkpt><trkpt lat="38.71331690044233" lon="16.50505533403788"><ele>297.85714285714283</ele><time>2026-05-03T08:45:40Z</time></trkpt><trkpt lat="38.71338062013823" lon="16.50500744774464"><ele>301.0</ele><time>2026-05-03T08:45:47Z</time></trkpt><trkpt lat="38.71343056420889" lon="16.504946360933413"><ele>301.0</ele><time>2026-05-03T08:45:54Z</time></trkpt><trkpt lat="38.71348089670178" lon="16.504895117411525"><ele>301.0</ele><time>2026-05-03T08:46:01Z</time></trkpt><trkpt lat="38.71352478099187" lon="16.504826152420566"><ele>301.0</ele><time>2026-05-03T08:46:08Z</time></trkpt><trkpt lat="38.7135653149014" lon="16.50474558819593"><ele>301.0</ele><time>2026-05-03T08:46:15Z</time></trkpt><trkpt lat="38.71360802436858" lon="16.504671284231094"><ele>301.0</ele><time>2026-05-03T08:46:22Z</time></trkpt><trkpt lat="38.713648925528325" lon="16.504600267497285"><ele>301.0</ele><time>2026-05-03T08:46:28Z</time></trkpt><trkpt lat="38.71368055301834" lon="16.504524855059135"><ele>301.0</ele><time>2026-05-03T08:46:34Z</time></trkpt><trkpt lat="38.713716886502176" lon="16.504458307664635"><ele>300.7142857142857</ele><time>2026-05-03T08:46:41Z</time></trkpt><trkpt lat="38.71373973886366" lon="16.504366466402"><ele>300.42857142857144</ele><time>2026-05-03T08:46:47Z</time></trkpt><trkpt lat="38.71375176241316" lon="16.50427946481591"><ele>300.1428571428571</ele><time>2026-05-03T08:46:54Z</time></trkpt><trkpt lat="38.713769704660386" lon="16.504199125577173"><ele>299.8571428571429</ele><time>2026-05-03T08:47:00Z</time></trkpt><trkpt lat="38.71379015608596" lon="16.504112030001107"><ele>299.57142857142856</ele><time>2026-05-03T08:47:07Z</time></trkpt><trkpt lat="38.71380988370797" lon="16.504028196878853"><ele>299.2857142857143</ele><time>2026-05-03T08:47:14Z</time></trkpt><trkpt lat="38.713842038817894" lon="16.503949057540233"><ele>299.0</ele><time>2026-05-03T08:47:21Z</time></trkpt><trkpt lat="38.71387511388855" lon="16.50387793111656"><ele>299.0</ele><time>2026-05-03T08:47:27Z</time></trkpt><trkpt lat="38.71390264461113" lon="16.503804280595283"><ele>299.0</ele><time>2026-05-03T08:47:34Z</time></trkpt><trkpt lat="38.713952034872385" lon="16.50374022477199"><ele>299.0</ele><time>2026-05-03T08:47:42Z</time></trkpt><trkpt lat="38.71398963685434" lon="16.503670753854724"><ele>299.0</ele><time>2026-05-03T08:47:48Z</time></trkpt><trkpt lat="38.7140219746105" lon="16.503592858873397"><ele>299.0</ele><time>2026-05-03T08:47:56Z</time></trkpt><trkpt lat="38.71405920920416" lon="16.503508695425264"><ele>299.0</ele><time>2026-05-03T08:48:04Z</time></trkpt><trkpt lat="38.71408654044203" lon="16.503430472541762"><ele>299.0</ele><time>2026-05-03T08:48:11Z</time></trkpt><trkpt lat="38.71411544187868" lon="16.503348404173476"><ele>301.2857142857143</ele><time>2026-05-03T08:48:19Z</time></trkpt><trkpt lat="38.71414180035943" lon="16.503272718726784"><ele>303.57142857142856</ele><time>2026-05-03T08:48:25Z</time></trkpt><trkpt lat="38.714164031873466" lon="16.50317582494153"><ele>305.8571428571429</ele><time>2026-05-03T08:48:47Z</time></trkpt><trkpt lat="38.714165887428756" lon="16.503083382136186"><ele>308.1428571428571</ele><time>2026-05-03T08:49:00Z</time></trkpt><trkpt lat="38.71415512375547" lon="16.50299443714074"><ele>310.42857142857144</ele><time>2026-05-03T08:49:07Z</time></trkpt><trkpt lat="38.71413447347397" lon="16.502908537766924"><ele>312.7142857142857</ele><time>2026-05-03T08:49:14Z</time></trkpt><trkpt lat="38.71410807177266" lon="16.502819706790824"><ele>315.0</ele><time>2026-05-03T08:49:20Z</time></trkpt><trkpt lat="38.71410036667686" lon="16.502730883433724"><ele>315.42857142857144</ele><time>2026-05-03T08:49:27Z</time></trkpt><trkpt lat="38.714057815810726" lon="16.502669430632015"><ele>315.8571428571429</ele><time>2026-05-03T08:49:34Z</time></trkpt><trkpt lat="38.714028641453766" lon="16.502590987643927"><ele>316.2857142857143</ele><time>2026-05-03T08:49:40Z</time></trkpt><trkpt lat="38.71399274285414" lon="16.50252438274452"><ele>316.7142857142857</ele><time>2026-05-03T08:49:47Z</time></trkpt><trkpt lat="38.71394288576075" lon="16.502462099233853"><ele>317.14285714285717</ele><time>2026-05-03T08:50:04Z</time></trkpt><trkpt lat="38.71389111563376" lon="16.50238281214075"><ele>317.57142857142856</ele><time>2026-05-03T08:50:09Z</time></trkpt><trkpt lat="38.71383223091642" lon="16.502330905705506"><ele>318.0</ele><time>2026-05-03T08:50:16Z</time></trkpt><trkpt lat="38.71378158778576" lon="16.502281323587336"><ele>318.0</ele><time>2026-05-03T08:50:23Z</time></trkpt><trkpt lat="38.713726735524666" lon="16.50223044230509"><ele>318.0</ele><time>2026-05-03T08:50:30Z</time></trkpt><trkpt lat="38.71366903045966" lon="16.502189284853575"><ele>318.0</ele><time>2026-05-03T08:50:36Z</time></trkpt><trkpt lat="38.71362230318383" lon="16.502127795736225"><ele>318.0</ele><time>2026-05-03T08:50:43Z</time></trkpt><trkpt lat="38.713581123529906" lon="16.50205891172844"><ele>318.0</ele><time>2026-05-03T08:50:51Z</time></trkpt><trkpt lat="38.713534396448125" lon="16.502001590838574"><ele>318.0</ele><time>2026-05-03T08:51:01Z</time></trkpt><trkpt lat="38.71349837440165" lon="16.50191628525274"><ele>318.0</ele><time>2026-05-03T08:56:56Z</time></trkpt><trkpt lat="38.71348219313712" lon="16.501830565745223"><ele>321.2857142857143</ele><time>2026-05-03T08:57:03Z</time></trkpt><trkpt lat="38.71345978549526" lon="16.50175497594978"><ele>324.5714285714286</ele><time>2026-05-03T08:57:09Z</time></trkpt><trkpt lat="38.71345185725673" lon="16.50166882015002"><ele>327.8571428571429</ele><time>2026-05-03T08:57:20Z</time></trkpt><trkpt lat="38.71340579130632" lon="16.50159975366748"><ele>331.1428571428571</ele><time>2026-05-03T08:57:26Z</time></trkpt><trkpt lat="38.7133891717094" lon="16.50151863684165"><ele>334.42857142857144</ele><time>2026-05-03T08:57:33Z</time></trkpt><trkpt lat="38.71336362674363" lon="16.50142993775945"><ele>337.7142857142857</ele><time>2026-05-03T08:57:40Z</time></trkpt><trkpt lat="38.7133374092629" lon="16.501349696247605"><ele>341.0</ele><time>2026-05-03T08:57:46Z</time></trkpt><trkpt lat="38.713302556454124" lon="16.50127179870565"><ele>342.0</ele><time>2026-05-03T08:57:54Z</time></trkpt><trkpt lat="38.71328687954634" lon="16.50119126117273"><ele>343.0</ele><time>2026-05-03T08:58:01Z</time></trkpt><trkpt lat="38.71326343021534" lon="16.50111343189109"><ele>344.0</ele><time>2026-05-03T08:58:07Z</time></trkpt><trkpt lat="38.71326829894696" lon="16.501022521596326"><ele>345.0</ele><time>2026-05-03T08:58:14Z</time></trkpt><trkpt lat="38.713275488451295" lon="16.500921675987392"><ele>346.0</ele><time>2026-05-03T08:58:22Z</time></trkpt><trkpt lat="38.71330157662647" lon="16.500842682446663"><ele>347.0</ele><time>2026-05-03T08:58:29Z</time></trkpt><trkpt lat="38.71331014338354" lon="16.500760979204134"><ele>348.0</ele><time>2026-05-03T08:58:36Z</time></trkpt><trkpt lat="38.71333000531318" lon="16.500683064720867"><ele>348.0</ele><time>2026-05-03T08:58:42Z</time></trkpt><trkpt lat="38.71335286351891" lon="16.500591183849235"><ele>348.0</ele><time>2026-05-03T08:58:50Z</time></trkpt><trkpt lat="38.71338324123424" lon="16.50050115758974"><ele>348.0</ele><time>2026-05-03T08:58:59Z</time></trkpt><trkpt lat="38.71341250907562" lon="16.50041734987065"><ele>348.0</ele><time>2026-05-03T08:59:07Z</time></trkpt><trkpt lat="38.713446336352995" lon="16.500340518815925"><ele>348.0</ele><time>2026-05-03T08:59:15Z</time></trkpt><trkpt lat="38.71347258061745" lon="16.50026547544736"><ele>348.0</ele><time>2026-05-03T08:59:21Z</time></trkpt><trkpt lat="38.71350704287461" lon="16.500194003551634"><ele>348.0</ele><time>2026-05-03T08:59:29Z</time></trkpt><trkpt lat="38.71356731248551" lon="16.500068236972613"><ele>347.85714285714283</ele><time>2026-05-03T08:59:42Z</time></trkpt><trkpt lat="38.71361048250209" lon="16.50000852108089"><ele>347.7142857142857</ele><time>2026-05-03T08:59:48Z</time></trkpt><trkpt lat="38.71366847412247" lon="16.49995445606842"><ele>347.57142857142856</ele><time>2026-05-03T08:59:55Z</time></trkpt><trkpt lat="38.71372248895806" lon="16.499912703950066"><ele>347.42857142857144</ele><time>2026-05-03T09:00:00Z</time></trkpt><trkpt lat="38.71377888277864" lon="16.49986785977998"><ele>347.2857142857143</ele><time>2026-05-03T09:00:07Z</time></trkpt><trkpt lat="38.713833707347604" lon="16.499804435562094"><ele>347.14285714285717</ele><time>2026-05-03T09:00:14Z</time></trkpt><trkpt lat="38.71389268172697" lon="16.49975350393464"><ele>347.0</ele><time>2026-05-03T09:00:23Z</time></trkpt><trkpt lat="38.71392133549937" lon="16.499677200314466"><ele>347.0</ele><time>2026-05-03T09:00:30Z</time></trkpt><trkpt lat="38.713960582891964" lon="16.499601415542703"><ele>347.0</ele><time>2026-05-03T09:00:37Z</time></trkpt><trkpt lat="38.7139884855771" lon="16.49952703765033"><ele>347.0</ele><time>2026-05-03T09:00:43Z</time></trkpt><trkpt lat="38.71402869228822" lon="16.499460519412548"><ele>347.0</ele><time>2026-05-03T09:00:52Z</time></trkpt><trkpt lat="38.71406789920903" lon="16.49938759774954"><ele>347.0</ele><time>2026-05-03T09:00:57Z</time></trkpt><trkpt lat="38.71408195717226" lon="16.499301785253675"><ele>347.0</ele><time>2026-05-03T09:01:04Z</time></trkpt><trkpt lat="38.71409381979916" lon="16.499213938965894"><ele>347.0</ele><time>2026-05-03T09:01:14Z</time></trkpt><trkpt lat="38.714126100429354" lon="16.49914062078414"><ele>349.42857142857144</ele><time>2026-05-03T09:01:25Z</time></trkpt><trkpt lat="38.71415644120603" lon="16.499067692522104"><ele>351.85714285714283</ele><time>2026-05-03T09:01:33Z</time></trkpt><trkpt lat="38.714213577235356" lon="16.499015495216458"><ele>354.2857142857143</ele><time>2026-05-03T09:01:39Z</time></trkpt><trkpt lat="38.714285010975324" lon="16.498989279825874"><ele>356.7142857142857</ele><time>2026-05-03T09:01:45Z</time></trkpt><trkpt lat="38.71434870171519" lon="16.498968577247112"><ele>359.1428571428571</ele><time>2026-05-03T09:01:52Z</time></trkpt><trkpt lat="38.714414334693274" lon="16.49896020180154"><ele>361.57142857142856</ele><time>2026-05-03T09:01:57Z</time></trkpt><trkpt lat="38.71448640957362" lon="16.498978713808157"><ele>364.0</ele><time>2026-05-03T09:02:04Z</time></trkpt><trkpt lat="38.714543161217364" lon="16.499021265912585"><ele>364.0</ele><time>2026-05-03T09:02:10Z</time></trkpt><trkpt lat="38.71458929640741" lon="16.49908180011762"><ele>364.0</ele><time>2026-05-03T09:02:16Z</time></trkpt><trkpt lat="38.71463758310262" lon="16.499137250027577"><ele>364.0</ele><time>2026-05-03T09:02:22Z</time></trkpt><trkpt lat="38.714696833821634" lon="16.499190643376913"><ele>364.0</ele><time>2026-05-03T09:02:29Z</time></trkpt><trkpt lat="38.71476579496815" lon="16.499206748135204"><ele>364.0</ele><time>2026-05-03T09:02:35Z</time></trkpt><trkpt lat="38.71484094159185" lon="16.499213034001674"><ele>364.0</ele><time>2026-05-03T09:02:42Z</time></trkpt><trkpt lat="38.71489238981415" lon="16.499147455655933"><ele>364.0</ele><time>2026-05-03T09:02:50Z</time></trkpt><trkpt lat="38.71489565355844" lon="16.499055554151294"><ele>364.0</ele><time>2026-05-03T09:02:57Z</time></trkpt><trkpt lat="38.71489697121573" lon="16.49896153906916"><ele>364.0</ele><time>2026-05-03T09:03:04Z</time></trkpt><trkpt lat="38.71490072170589" lon="16.498866135647194"><ele>364.0</ele><time>2026-05-03T09:03:11Z</time></trkpt><trkpt lat="38.71490999634119" lon="16.498784176464095"><ele>364.0</ele><time>2026-05-03T09:03:17Z</time></trkpt><trkpt lat="38.71490762762362" lon="16.498694360274992"><ele>364.0</ele><time>2026-05-03T09:03:24Z</time></trkpt><trkpt lat="38.71493569543928" lon="16.498618589907966"><ele>364.0</ele><time>2026-05-03T09:03:31Z</time></trkpt><trkpt lat="38.71496524983145" lon="16.498539652882954"><ele>364.0</ele><time>2026-05-03T09:03:38Z</time></trkpt><trkpt lat="38.714992259236254" lon="16.498453617720294"><ele>367.14285714285717</ele><time>2026-05-03T09:03:45Z</time></trkpt><trkpt lat="38.71502545886523" lon="16.49838428771301"><ele>370.2857142857143</ele><time>2026-05-03T09:03:51Z</time></trkpt><trkpt lat="38.7150611034559" lon="16.49831777455483"><ele>373.42857142857144</ele><time>2026-05-03T09:03:57Z</time></trkpt><trkpt lat="38.71509332220378" lon="16.49824068258163"><ele>376.57142857142856</ele><time>2026-05-03T09:04:03Z</time></trkpt><trkpt lat="38.71511247722794" lon="16.498157092046334"><ele>379.7142857142857</ele><time>2026-05-03T09:04:09Z</time></trkpt><trkpt lat="38.71515278034375" lon="16.498084752450264"><ele>382.8571428571429</ele><time>2026-05-03T09:04:14.999Z</time></trkpt><trkpt lat="38.71518110744895" lon="16.497995449545247"><ele>386.0</ele><time>2026-05-03T09:04:21Z</time></trkpt><trkpt lat="38.715208057107105" lon="16.49790326236267"><ele>383.28571428571433</ele><time>2026-05-03T09:04:28Z</time></trkpt><trkpt lat="38.715229994007125" lon="16.49782076233662"><ele>380.57142857142856</ele><time>2026-05-03T09:04:35Z</time></trkpt><trkpt lat="38.71524884996135" lon="16.49773469300871"><ele>377.8571428571429</ele><time>2026-05-03T09:04:41Z</time></trkpt><trkpt lat="38.71528273991011" lon="16.49766167892677"><ele>375.14285714285717</ele><time>2026-05-03T09:04:47Z</time></trkpt><trkpt lat="38.71531518021553" lon="16.497573825844164"><ele>372.42857142857144</ele><time>2026-05-03T09:04:53Z</time></trkpt><trkpt lat="38.715321709435614" lon="16.49748872846355"><ele>369.7142857142857</ele><time>2026-05-03T09:05:00Z</time></trkpt><trkpt lat="38.71534969910151" lon="16.497412717987086"><ele>367.0</ele><time>2026-05-03T09:05:06Z</time></trkpt><trkpt lat="38.715348885395706" lon="16.4973260530542"><ele>367.0</ele><time>2026-05-03T09:05:12Z</time></trkpt><trkpt lat="38.71536315614358" lon="16.497235567158402"><ele>367.0</ele><time>2026-05-03T09:05:19Z</time></trkpt><trkpt lat="38.71539313982148" lon="16.497162137751253"><ele>367.0</ele><time>2026-05-03T09:05:24Z</time></trkpt><trkpt lat="38.71543548962416" lon="16.497100652448037"><ele>367.0</ele><time>2026-05-03T09:05:29Z</time></trkpt><trkpt lat="38.71547631827477" lon="16.497019039243686"><ele>367.0</ele><time>2026-05-03T09:05:36Z</time></trkpt><trkpt lat="38.715545332296834" lon="16.496957946045708"><ele>367.0</ele><time>2026-05-03T09:05:42Z</time></trkpt><trkpt lat="38.71561527225753" lon="16.496914786319245"><ele>367.0</ele><time>2026-05-03T09:05:49Z</time></trkpt><trkpt lat="38.71566547379997" lon="16.496853021703718"><ele>369.85714285714283</ele><time>2026-05-03T09:05:57Z</time></trkpt><trkpt lat="38.715716220373444" lon="16.49680315054112"><ele>372.7142857142857</ele><time>2026-05-03T09:06:02Z</time></trkpt><trkpt lat="38.71568943211362" lon="16.496725348567153"><ele>375.57142857142856</ele><time>2026-05-03T09:06:24Z</time></trkpt><trkpt lat="38.71565695268738" lon="16.496650626489906"><ele>378.42857142857144</ele><time>2026-05-03T09:06:29Z</time></trkpt><trkpt lat="38.71563254759788" lon="16.496563151481855"><ele>381.28571428571433</ele><time>2026-05-03T09:06:34Z</time></trkpt><trkpt lat="38.7156260196478" lon="16.496480612135482"><ele>384.14285714285717</ele><time>2026-05-03T09:06:46Z</time></trkpt><trkpt lat="38.715604332707656" lon="16.496400706792656"><ele>387.0</ele><time>2026-05-03T09:06:54Z</time></trkpt><trkpt lat="38.71556715315107" lon="16.49632216621982"><ele>389.57142857142856</ele><time>2026-05-03T09:07:00Z</time></trkpt><trkpt lat="38.71556130402013" lon="16.496235743821185"><ele>392.14285714285717</ele><time>2026-05-03T09:07:12Z</time></trkpt><trkpt lat="38.715517057521666" lon="16.496152227356163"><ele>394.71428571428567</ele><time>2026-05-03T09:07:17Z</time></trkpt><trkpt lat="38.71547172039805" lon="16.496083960439012"><ele>397.2857142857143</ele><time>2026-05-03T09:07:25Z</time></trkpt><trkpt lat="38.71547853885386" lon="16.49600167414891"><ele>399.85714285714283</ele><time>2026-05-03T09:07:34Z</time></trkpt><trkpt lat="38.71548358613775" lon="16.495910499290908"><ele>402.4285714285714</ele><time>2026-05-03T09:07:42Z</time></trkpt><trkpt lat="38.71553407067447" lon="16.495850080222866"><ele>405.0</ele><time>2026-05-03T09:07:47Z</time></trkpt><trkpt lat="38.71561067505105" lon="16.49582142779951"><ele>404.99999999999994</ele><time>2026-05-03T09:07:57Z</time></trkpt><trkpt lat="38.71564195684842" lon="16.49574104512267"><ele>405.0</ele><time>2026-05-03T09:08:03Z</time></trkpt><trkpt lat="38.7157017756024" lon="16.495697089959535"><ele>405.0</ele><time>2026-05-03T09:08:08Z</time></trkpt><trkpt lat="38.715721265449275" lon="16.49561502281803"><ele>405.0</ele><time>2026-05-03T09:08:15Z</time></trkpt><trkpt lat="38.715728279219405" lon="16.495533303330554"><ele>405.0</ele><time>2026-05-03T09:08:22Z</time></trkpt><trkpt lat="38.71576466086989" lon="16.495460143425575"><ele>404.99999999999994</ele><time>2026-05-03T09:08:29Z</time></trkpt><trkpt lat="38.715785253379615" lon="16.495383453244255"><ele>405.0</ele><time>2026-05-03T09:08:39Z</time></trkpt><trkpt lat="38.71582990397951" lon="16.495313711470803"><ele>405.4285714285714</ele><time>2026-05-03T09:08:48Z</time></trkpt><trkpt lat="38.71589777086322" lon="16.495294387282136"><ele>405.85714285714283</ele><time>2026-05-03T09:08:53Z</time></trkpt><trkpt lat="38.7159502657271" lon="16.49523697627553"><ele>406.2857142857143</ele><time>2026-05-03T09:09:00Z</time></trkpt><trkpt lat="38.716007831828016" lon="16.49519302482057"><ele>406.71428571428567</ele><time>2026-05-03T09:09:06Z</time></trkpt><trkpt lat="38.71605917810136" lon="16.495129616677023"><ele>407.14285714285717</ele><time>2026-05-03T09:09:13Z</time></trkpt><trkpt lat="38.71609855801536" lon="16.495059840447304"><ele>407.57142857142856</ele><time>2026-05-03T09:09:22Z</time></trkpt><trkpt lat="38.716126237485916" lon="16.49498365510387"><ele>408.0</ele><time>2026-05-03T09:09:29Z</time></trkpt><trkpt lat="38.71618416224215" lon="16.494919820174054"><ele>408.0</ele><time>2026-05-03T09:09:39Z</time></trkpt><trkpt lat="38.71631781087436" lon="16.494874145462266"><ele>408.0</ele><time>2026-05-03T09:09:53Z</time></trkpt><trkpt lat="38.716374846415185" lon="16.494812000871043"><ele>408.0</ele><time>2026-05-03T09:09:55Z</time></trkpt><trkpt lat="38.71638336957744" lon="16.494731470998424"><ele>408.0</ele><time>2026-05-03T09:10:07Z</time></trkpt><trkpt lat="38.716439034594664" lon="16.494691858800156"><ele>408.0</ele><time>2026-05-03T09:10:13Z</time></trkpt><trkpt lat="38.716504684989346" lon="16.494639336606774"><ele>408.0</ele><time>2026-05-03T09:10:22Z</time></trkpt><trkpt lat="38.716551401718114" lon="16.49458520094207"><ele>411.14285714285717</ele><time>2026-05-03T09:10:27Z</time></trkpt><trkpt lat="38.71660442022626" lon="16.494537521297246"><ele>414.28571428571433</ele><time>2026-05-03T09:10:33Z</time></trkpt><trkpt lat="38.71665491934122" lon="16.494483507563825"><ele>417.42857142857144</ele><time>2026-05-03T09:10:40Z</time></trkpt><trkpt lat="38.71668800770877" lon="16.49441378330634"><ele>420.57142857142856</ele><time>2026-05-03T09:10:46Z</time></trkpt><trkpt lat="38.71671492280572" lon="16.49432359950816"><ele>423.7142857142857</ele><time>2026-05-03T09:10:52Z</time></trkpt><trkpt lat="38.7166849880044" lon="16.49424915343852"><ele>426.85714285714283</ele><time>2026-05-03T09:10:59Z</time></trkpt><trkpt lat="38.71665583158094" lon="16.4941691355331"><ele>430.0</ele><time>2026-05-03T09:11:06Z</time></trkpt><trkpt lat="38.716625662363555" lon="16.49407809968967"><ele>430.0</ele><time>2026-05-03T09:11:12Z</time></trkpt><trkpt lat="38.71656415932292" lon="16.493993409333502"><ele>430.0</ele><time>2026-05-03T09:11:18Z</time></trkpt><trkpt lat="38.71654222893217" lon="16.493915223020853"><ele>430.0</ele><time>2026-05-03T09:11:26Z</time></trkpt><trkpt lat="38.71651590518095" lon="16.49382134401241"><ele>430.0</ele><time>2026-05-03T09:11:33Z</time></trkpt><trkpt lat="38.71650263698428" lon="16.4937422556672"><ele>430.0</ele><time>2026-05-03T09:11:38Z</time></trkpt><trkpt lat="38.71645670598999" lon="16.49367922255861"><ele>430.0</ele><time>2026-05-03T09:11:47Z</time></trkpt><trkpt lat="38.716493965610404" lon="16.49359083289984"><ele>430.0</ele><time>2026-05-03T09:11:54Z</time></trkpt><trkpt lat="38.71650630714876" lon="16.4935105263469"><ele>431.4285714285714</ele><time>2026-05-03T09:12:00Z</time></trkpt><trkpt lat="38.71649904770122" lon="16.493419385116027"><ele>432.8571428571429</ele><time>2026-05-03T09:12:07Z</time></trkpt><trkpt lat="38.716473934715914" lon="16.493336747526904"><ele>434.2857142857143</ele><time>2026-05-03T09:12:13Z</time></trkpt><trkpt lat="38.71647144497811" lon="16.493245292237685"><ele>435.71428571428567</ele><time>2026-05-03T09:12:20Z</time></trkpt><trkpt lat="38.71646617888343" lon="16.49316190747686"><ele>437.1428571428571</ele><time>2026-05-03T09:12:27Z</time></trkpt><trkpt lat="38.716460531678464" lon="16.493078729415856"><ele>438.57142857142856</ele><time>2026-05-03T09:12:35.999Z</time></trkpt><trkpt lat="38.71645994874183" lon="16.492977128881233"><ele>440.0</ele><time>2026-05-03T09:12:43Z</time></trkpt><trkpt lat="38.71645888468266" lon="16.492887980185827"><ele>443.16666666666663</ele><time>2026-05-03T09:12:50Z</time></trkpt><trkpt lat="38.716424351537476" lon="16.49280593231824"><ele>446.3333333333333</ele><time>2026-05-03T09:12:56Z</time></trkpt><trkpt lat="38.71640475391" lon="16.492723430462032"><ele>449.5</ele><time>2026-05-03T09:13:03Z</time></trkpt><trkpt lat="38.7163133879407" lon="16.492660737861097"><ele>452.66666666666663</ele><time>2026-05-03T09:13:11Z</time></trkpt><trkpt lat="38.716243777432204" lon="16.49269344884396"><ele>455.8333333333333</ele><time>2026-05-03T09:13:19Z</time></trkpt><trkpt lat="38.71620383638781" lon="16.492762603296544"><ele>459.0</ele><time>2026-05-03T09:13:24Z</time></trkpt><trkpt lat="38.716181679218714" lon="16.492840488664157"><ele>456.2857142857143</ele><time>2026-05-03T09:13:30Z</time></trkpt><trkpt lat="38.7161889560966" lon="16.492926385965525"><ele>453.57142857142856</ele><time>2026-05-03T09:13:39Z</time></trkpt><trkpt lat="38.716184968414275" lon="16.49301764860481"><ele>450.85714285714283</ele><time>2026-05-03T09:13:46Z</time></trkpt><trkpt lat="38.71617818446178" lon="16.493109042767866"><ele>448.1428571428571</ele><time>2026-05-03T09:13:51Z</time></trkpt><trkpt lat="38.7161994656825" lon="16.49319099441716"><ele>445.42857142857144</ele><time>2026-05-03T09:14:00Z</time></trkpt><trkpt lat="38.71620388632963" lon="16.49328347273286"><ele>442.71428571428567</ele><time>2026-05-03T09:14:07Z</time></trkpt><trkpt lat="38.71617307585521" lon="16.49335744317424"><ele>440.0</ele><time>2026-05-03T09:14:15Z</time></trkpt><trkpt lat="38.71611737073456" lon="16.493414602964968"><ele>439.99999999999994</ele><time>2026-05-03T09:14:22Z</time></trkpt><trkpt lat="38.71607247010868" lon="16.493477641834772"><ele>440.0</ele><time>2026-05-03T09:15:38Z</time></trkpt><trkpt lat="38.71603608124904" lon="16.4935515193237"><ele>440.0</ele><time>2026-05-03T09:15:44Z</time></trkpt><trkpt lat="38.71600911683667" lon="16.49362648224294"><ele>440.0</ele><time>2026-05-03T09:15:49Z</time></trkpt><trkpt lat="38.71598109967779" lon="16.493744108399557"><ele>440.0</ele><time>2026-05-03T09:15:57Z</time></trkpt><trkpt lat="38.71590159402782" lon="16.493760602463514"><ele>439.99999999999994</ele><time>2026-05-03T09:16:03Z</time></trkpt><trkpt lat="38.715840730029974" lon="16.493788130639793"><ele>440.0</ele><time>2026-05-03T09:16:11Z</time></trkpt><trkpt lat="38.71577867218649" lon="16.49380800310381"><ele>442.0</ele><time>2026-05-03T09:16:20Z</time></trkpt><trkpt lat="38.71571210689624" lon="16.49384423247268"><ele>444.0</ele><time>2026-05-03T09:16:26Z</time></trkpt><trkpt lat="38.71565350933223" lon="16.493811314041906"><ele>446.0</ele><time>2026-05-03T09:16:39Z</time></trkpt><trkpt lat="38.71562514337913" lon="16.49389166375865"><ele>448.0</ele><time>2026-05-03T09:16:45Z</time></trkpt><trkpt lat="38.71556815571505" lon="16.493934002949935"><ele>450.00000000000006</ele><time>2026-05-03T09:16:50Z</time></trkpt><trkpt lat="38.71552660639078" lon="16.493996818644618"><ele>452.0</ele><time>2026-05-03T09:16:56Z</time></trkpt><trkpt lat="38.71546514561303" lon="16.49402687910336"><ele>454.0</ele><time>2026-05-03T09:17:05Z</time></trkpt><trkpt lat="38.71540430288646" lon="16.494057884213472"><ele>454.0</ele><time>2026-05-03T09:17:14Z</time></trkpt><trkpt lat="38.71533648072164" lon="16.494087032300143"><ele>454.00000000000006</ele><time>2026-05-03T09:17:22Z</time></trkpt><trkpt lat="38.71528356481292" lon="16.494150661807286"><ele>454.0</ele><time>2026-05-03T09:17:32Z</time></trkpt><trkpt lat="38.715216621830464" lon="16.494201464023412"><ele>454.0</ele><time>2026-05-03T09:17:41Z</time></trkpt><trkpt lat="38.71513827996147" lon="16.49420804131495"><ele>454.00000000000006</ele><time>2026-05-03T09:17:50Z</time></trkpt><trkpt lat="38.71507587968952" lon="16.494189921503587"><ele>454.0</ele><time>2026-05-03T09:17:56Z</time></trkpt><trkpt lat="38.71502742398429" lon="16.494243388543655"><ele>454.0</ele><time>2026-05-03T09:18:04Z</time></trkpt><trkpt lat="38.714965201555536" lon="16.494271954063763"><ele>456.5714285714286</ele><time>2026-05-03T09:18:11Z</time></trkpt><trkpt lat="38.714911788473906" lon="16.494317618494307"><ele>459.1428571428572</ele><time>2026-05-03T09:18:20Z</time></trkpt><trkpt lat="38.71484409806272" lon="16.494353033865462"><ele>461.7142857142857</ele><time>2026-05-03T09:18:31Z</time></trkpt><trkpt lat="38.71480293698251" lon="16.494417746707338"><ele>464.28571428571433</ele><time>2026-05-03T09:18:37Z</time></trkpt><trkpt lat="38.714740709519894" lon="16.49446307749445"><ele>466.8571428571429</ele><time>2026-05-03T09:18:44Z</time></trkpt><trkpt lat="38.71467428666513" lon="16.49445729829169"><ele>469.42857142857144</ele><time>2026-05-03T09:18:52Z</time></trkpt><trkpt lat="38.71460369084775" lon="16.494460547366902"><ele>472.0</ele><time>2026-05-03T09:19:07Z</time></trkpt><trkpt lat="38.71453271812593" lon="16.494436547406604"><ele>472.0</ele><time>2026-05-03T09:19:15Z</time></trkpt><trkpt lat="38.71446962761157" lon="16.494429526504018"><ele>472.0</ele><time>2026-05-03T09:19:28Z</time></trkpt><trkpt lat="38.714405884847196" lon="16.494425870816354"><ele>472.0</ele><time>2026-05-03T09:19:34Z</time></trkpt><trkpt lat="38.71433492589563" lon="16.494402537623284"><ele>472.0</ele><time>2026-05-03T09:19:44Z</time></trkpt><trkpt lat="38.714248103868115" lon="16.494386377782345"><ele>472.0</ele><time>2026-05-03T09:19:57Z</time></trkpt><trkpt lat="38.71418487977313" lon="16.494433725846072"><ele>472.0</ele><time>2026-05-03T09:20:08Z</time></trkpt><trkpt lat="38.71412584314465" lon="16.49446524474908"><ele>472.0</ele><time>2026-05-03T09:20:16Z</time></trkpt><trkpt lat="38.714055068628426" lon="16.494461464902212"><ele>475.1428571428571</ele><time>2026-05-03T09:20:24Z</time></trkpt><trkpt lat="38.71401130537951" lon="16.49440265731131"><ele>478.28571428571433</ele><time>2026-05-03T09:20:51Z</time></trkpt><trkpt lat="38.71398236202739" lon="16.494326468237432"><ele>481.42857142857144</ele><time>2026-05-03T09:20:57Z</time></trkpt><trkpt lat="38.713972046264054" lon="16.494244727058838"><ele>484.57142857142856</ele><time>2026-05-03T09:22:01Z</time></trkpt><trkpt lat="38.71394301177564" lon="16.494154216598353"><ele>487.71428571428567</ele><time>2026-05-03T09:22:09Z</time></trkpt><trkpt lat="38.7139285716148" lon="16.494071726993422"><ele>490.8571428571429</ele><time>2026-05-03T09:23:03Z</time></trkpt><trkpt lat="38.713902636712454" lon="16.49399527106808"><ele>494.0</ele><time>2026-05-03T09:23:08Z</time></trkpt><trkpt lat="38.713865815771435" lon="16.493924765152226"><ele>494.0</ele><time>2026-05-03T09:23:24Z</time></trkpt><trkpt lat="38.71380389944322" lon="16.49389866080677"><ele>494.0</ele><time>2026-05-03T09:23:35Z</time></trkpt><trkpt lat="38.713738441425406" lon="16.493851831344188"><ele>494.0</ele><time>2026-05-03T09:23:45Z</time></trkpt><trkpt lat="38.71367344033698" lon="16.493825803329162"><ele>494.0</ele><time>2026-05-03T09:23:58Z</time></trkpt><trkpt lat="38.7136155072409" lon="16.493786962499506"><ele>494.0</ele><time>2026-05-03T09:24:13Z</time></trkpt><trkpt lat="38.713560530297265" lon="16.49372661254181"><ele>494.0</ele><time>2026-05-03T09:24:17Z</time></trkpt><trkpt lat="38.7135179011682" lon="16.493658607991705"><ele>494.0</ele><time>2026-05-03T09:24:25Z</time></trkpt><trkpt lat="38.71349204023679" lon="16.493568160414544"><ele>496.8571428571429</ele><time>2026-05-03T09:24:31Z</time></trkpt><trkpt lat="38.713433033792214" lon="16.493538891496485"><ele>499.71428571428567</ele><time>2026-05-03T09:24:37Z</time></trkpt><trkpt lat="38.71335562975682" lon="16.493483205695288"><ele>502.57142857142856</ele><time>2026-05-03T09:24:45Z</time></trkpt><trkpt lat="38.713300245882564" lon="16.4934289632487"><ele>505.42857142857144</ele><time>2026-05-03T09:24:56Z</time></trkpt><trkpt lat="38.71322976279157" lon="16.493387110655565"><ele>508.28571428571433</ele><time>2026-05-03T09:25:02Z</time></trkpt><trkpt lat="38.71317185929502" lon="16.493325821973436"><ele>511.1428571428571</ele><time>2026-05-03T09:25:06Z</time></trkpt><trkpt lat="38.71310481945907" lon="16.493341866002574"><ele>514.0</ele><time>2026-05-03T09:25:13Z</time></trkpt><trkpt lat="38.713054302296094" lon="16.493284372406524"><ele>514.0</ele><time>2026-05-03T09:25:18Z</time></trkpt><trkpt lat="38.71299589143997" lon="16.49322817510763"><ele>514.0</ele><time>2026-05-03T09:25:28Z</time></trkpt><trkpt lat="38.71293909129097" lon="16.4931704799284"><ele>514.0</ele><time>2026-05-03T09:25:34Z</time></trkpt><trkpt lat="38.71285421303471" lon="16.493126191146427"><ele>514.0</ele><time>2026-05-03T09:25:41Z</time></trkpt><trkpt lat="38.71279961348621" lon="16.493080161121895"><ele>514.0</ele><time>2026-05-03T09:25:48Z</time></trkpt><trkpt lat="38.712740791803206" lon="16.493039341296512"><ele>514.0</ele><time>2026-05-03T09:25:54Z</time></trkpt><trkpt lat="38.7126743997656" lon="16.49300738636915"><ele>514.0</ele><time>2026-05-03T09:26:03Z</time></trkpt><trkpt lat="38.712620117001904" lon="16.4929626166003"><ele>514.7142857142857</ele><time>2026-05-03T09:26:09Z</time></trkpt><trkpt lat="38.71255565316242" lon="16.492945848157497"><ele>515.4285714285714</ele><time>2026-05-03T09:26:15Z</time></trkpt><trkpt lat="38.71249197472742" lon="16.492954939146745"><ele>516.1428571428571</ele><time>2026-05-03T09:26:23Z</time></trkpt><trkpt lat="38.712425507242095" lon="16.49294796380452"><ele>516.8571428571429</ele><time>2026-05-03T09:26:35Z</time></trkpt><trkpt lat="38.71235948885284" lon="16.492912234486166"><ele>517.5714285714286</ele><time>2026-05-03T09:26:42Z</time></trkpt><trkpt lat="38.71228764543536" lon="16.492925917285334"><ele>518.2857142857142</ele><time>2026-05-03T09:26:50Z</time></trkpt><trkpt lat="38.712229848257365" lon="16.492978734890105"><ele>519.0</ele><time>2026-05-03T09:26:57Z</time></trkpt><trkpt lat="38.71215830609615" lon="16.49299929497803"><ele>519.0</ele><time>2026-05-03T09:27:04Z</time></trkpt><trkpt lat="38.71209530127155" lon="16.492980124457052"><ele>519.0</ele><time>2026-05-03T09:27:12Z</time></trkpt><trkpt lat="38.71202730778542" lon="16.49295574256844"><ele>519.0</ele><time>2026-05-03T09:27:24Z</time></trkpt><trkpt lat="38.7119707281313" lon="16.492915382968505"><ele>519.0</ele><time>2026-05-03T09:27:32Z</time></trkpt><trkpt lat="38.71191176962736" lon="16.492883683303354"><ele>519.0</ele><time>2026-05-03T09:27:42Z</time></trkpt><trkpt lat="38.711879137847724" lon="16.492806076997855"><ele>519.0</ele><time>2026-05-03T09:27:48Z</time></trkpt><trkpt lat="38.711837945185614" lon="16.492741586477617"><ele>519.0</ele><time>2026-05-03T09:27:54Z</time></trkpt><trkpt lat="38.71176554016256" lon="16.492756407297477"><ele>519.7142857142857</ele><time>2026-05-03T09:28:01Z</time></trkpt><trkpt lat="38.71172176188961" lon="16.49281648859422"><ele>520.4285714285713</ele><time>2026-05-03T09:28:09Z</time></trkpt><trkpt lat="38.711695268105764" lon="16.49291899713072"><ele>521.1428571428571</ele><time>2026-05-03T09:28:14Z</time></trkpt><trkpt lat="38.71169990524225" lon="16.49300409406963"><ele>521.8571428571429</ele><time>2026-05-03T09:28:20Z</time></trkpt><trkpt lat="38.711668271166" lon="16.49309181339957"><ele>522.5714285714287</ele><time>2026-05-03T09:28:35Z</time></trkpt><trkpt lat="38.711610408131364" lon="16.493056626638992"><ele>523.2857142857143</ele><time>2026-05-03T09:28:42Z</time></trkpt><trkpt lat="38.711555091707766" lon="16.49301673156391"><ele>524.0</ele><time>2026-05-03T09:28:52Z</time></trkpt><trkpt lat="38.71148926434883" lon="16.492984441557898"><ele>524.0</ele><time>2026-05-03T09:28:59Z</time></trkpt><trkpt lat="38.71142816821562" lon="16.492951188289968"><ele>524.0</ele><time>2026-05-03T09:29:06Z</time></trkpt><trkpt lat="38.711366124429844" lon="16.493001681356443"><ele>524.0</ele><time>2026-05-03T09:29:14Z</time></trkpt><trkpt lat="38.71132028519711" lon="16.49306439413163"><ele>524.0</ele><time>2026-05-03T09:29:24Z</time></trkpt><trkpt lat="38.71125576962211" lon="16.49303149504335"><ele>524.0</ele><time>2026-05-03T09:29:36Z</time></trkpt><trkpt lat="38.71120907444544" lon="16.492965621550162"><ele>524.0</ele><time>2026-05-03T09:29:42Z</time></trkpt><trkpt lat="38.711163675423876" lon="16.492909177837667"><ele>524.0</ele><time>2026-05-03T09:29:48Z</time></trkpt><trkpt lat="38.71111324222205" lon="16.492845343374654"><ele>524.2857142857143</ele><time>2026-05-03T09:29:54Z</time></trkpt><trkpt lat="38.711056754665066" lon="16.492788767514327"><ele>524.5714285714287</ele><time>2026-05-03T09:30:02Z</time></trkpt><trkpt lat="38.71101121074731" lon="16.492731851507518"><ele>524.8571428571429</ele><time>2026-05-03T09:30:07Z</time></trkpt><trkpt lat="38.71096111846821" lon="16.49267912655865"><ele>525.1428571428571</ele><time>2026-05-03T09:30:13Z</time></trkpt><trkpt lat="38.71092219642204" lon="16.492610183983018"><ele>525.4285714285713</ele><time>2026-05-03T09:30:20Z</time></trkpt><trkpt lat="38.71087329195946" lon="16.492544273428834"><ele>525.7142857142857</ele><time>2026-05-03T09:30:26Z</time></trkpt><trkpt lat="38.71081573892361" lon="16.492470989115258"><ele>526.0</ele><time>2026-05-03T09:30:34Z</time></trkpt><trkpt lat="38.71076011532494" lon="16.49242569747305"><ele>526.0</ele><time>2026-05-03T09:30:41Z</time></trkpt><trkpt lat="38.71071690340089" lon="16.492365666013015"><ele>526.0</ele><time>2026-05-03T09:30:47Z</time></trkpt><trkpt lat="38.71066331100757" lon="16.492319416410005"><ele>526.0</ele><time>2026-05-03T09:30:52Z</time></trkpt><trkpt lat="38.710597489289896" lon="16.492305741465078"><ele>526.0</ele><time>2026-05-03T09:30:58Z</time></trkpt><trkpt lat="38.71057151440384" lon="16.49238477025003"><ele>526.0</ele><time>2026-05-03T09:31:05Z</time></trkpt><trkpt lat="38.71052727571308" lon="16.49245015410069"><ele>526.0</ele><time>2026-05-03T09:31:14Z</time></trkpt><trkpt lat="38.71046988073449" lon="16.49250841373023"><ele>526.0</ele><time>2026-05-03T09:31:23Z</time></trkpt><trkpt lat="38.710379846083164" lon="16.492471702827146"><ele>526.0</ele><time>2026-05-03T09:32:24Z</time></trkpt><trkpt lat="38.710361063907484" lon="16.492393476793396"><ele>526.0</ele><time>2026-05-03T09:32:32Z</time></trkpt><trkpt lat="38.7103462484698" lon="16.49230545521559"><ele>526.0</ele><time>2026-05-03T09:32:43Z</time></trkpt><trkpt lat="38.710327496237554" lon="16.492226556673476"><ele>526.0</ele><time>2026-05-03T09:32:51Z</time></trkpt><trkpt lat="38.71032458854981" lon="16.492137679387092"><ele>526.0</ele><time>2026-05-03T09:33:03Z</time></trkpt><trkpt lat="38.710306743673954" lon="16.492042502655725"><ele>526.0</ele><time>2026-05-03T09:33:15Z</time></trkpt><trkpt lat="38.71029316884775" lon="16.49196112957279"><ele>526.0</ele><time>2026-05-03T09:33:24Z</time></trkpt><trkpt lat="38.71026947899039" lon="16.491885159812576"><ele>528.1428571428571</ele><time>2026-05-03T09:33:32Z</time></trkpt><trkpt lat="38.71025660719791" lon="16.4917988877846"><ele>530.2857142857142</ele><time>2026-05-03T09:33:48Z</time></trkpt><trkpt lat="38.71023052689453" lon="16.491719507383767"><ele>532.4285714285714</ele><time>2026-05-03T09:33:56Z</time></trkpt><trkpt lat="38.71016864366993" lon="16.491666811294422"><ele>534.5714285714286</ele><time>2026-05-03T09:34:10Z</time></trkpt><trkpt lat="38.71010910475012" lon="16.49164025489989"><ele>536.7142857142858</ele><time>2026-05-03T09:34:18Z</time></trkpt><trkpt lat="38.71005236063221" lon="16.491572718715727"><ele>538.8571428571429</ele><time>2026-05-03T09:34:26Z</time></trkpt><trkpt lat="38.709992183307" lon="16.49152854014879"><ele>541.0</ele><time>2026-05-03T09:34:35Z</time></trkpt><trkpt lat="38.7099248412651" lon="16.49150468587916"><ele>541.7142857142858</ele><time>2026-05-03T09:34:50Z</time></trkpt><trkpt lat="38.70994571539646" lon="16.491581243629994"><ele>542.4285714285714</ele><time>2026-05-03T09:36:13Z</time></trkpt><trkpt lat="38.70992232455017" lon="16.491665577787867"><ele>543.1428571428571</ele><time>2026-05-03T09:36:20Z</time></trkpt><trkpt lat="38.709900741053154" lon="16.491759284545104"><ele>543.8571428571429</ele><time>2026-05-03T09:36:27Z</time></trkpt><trkpt lat="38.70987121377067" lon="16.49185048960083"><ele>544.5714285714286</ele><time>2026-05-03T09:36:34Z</time></trkpt><trkpt lat="38.709844732578915" lon="16.491923727586236"><ele>545.2857142857143</ele><time>2026-05-03T09:36:41Z</time></trkpt><trkpt lat="38.70981002226794" lon="16.491998705111357"><ele>546.0</ele><time>2026-05-03T09:36:47Z</time></trkpt><trkpt lat="38.709797327409" lon="16.492085056625985"><ele>546.0</ele><time>2026-05-03T09:36:53Z</time></trkpt><trkpt lat="38.70981298645735" lon="16.49216536925466"><ele>546.0</ele><time>2026-05-03T09:36:59Z</time></trkpt><trkpt lat="38.70981385772347" lon="16.492249210461736"><ele>546.0</ele><time>2026-05-03T09:37:06Z</time></trkpt><trkpt lat="38.7098128390426" lon="16.49235310187046"><ele>546.0</ele><time>2026-05-03T09:37:12Z</time></trkpt><trkpt lat="38.70979638769706" lon="16.49243941324852"><ele>546.0</ele><time>2026-05-03T09:37:21Z</time></trkpt><trkpt lat="38.709780046618086" lon="16.492518936312226"><ele>546.0</ele><time>2026-05-03T09:37:27Z</time></trkpt><trkpt lat="38.70977149605533" lon="16.49260215423533"><ele>546.0</ele><time>2026-05-03T09:37:32Z</time></trkpt><trkpt lat="38.709768424404054" lon="16.492705538137116"><ele>546.0</ele><time>2026-05-03T09:37:39Z</time></trkpt><trkpt lat="38.70976574732139" lon="16.492792558673923"><ele>546.0</ele><time>2026-05-03T09:37:46Z</time></trkpt><trkpt lat="38.709747867968794" lon="16.492874777242704"><ele>546.0</ele><time>2026-05-03T09:37:55Z</time></trkpt><trkpt lat="38.70975284480664" lon="16.492786924129845"><ele>546.0</ele><time>2026-05-03T09:38:17Z</time></trkpt><trkpt lat="38.70976003545381" lon="16.492693468707806"><ele>546.0</ele><time>2026-05-03T09:38:24Z</time></trkpt><trkpt lat="38.709766507785204" lon="16.492604977539475"><ele>546.0</ele><time>2026-05-03T09:38:31Z</time></trkpt><trkpt lat="38.709774098910806" lon="16.49251263048358"><ele>546.0</ele><time>2026-05-03T09:38:37Z</time></trkpt><trkpt lat="38.70977956638014" lon="16.49242196536374"><ele>546.0</ele><time>2026-05-03T09:38:44Z</time></trkpt><trkpt lat="38.7098029361533" lon="16.4923442189345"><ele>546.0</ele><time>2026-05-03T09:38:51Z</time></trkpt><trkpt lat="38.709815538172236" lon="16.492261822146396"><ele>546.0</ele><time>2026-05-03T09:38:58Z</time></trkpt><trkpt lat="38.709814055989675" lon="16.49217250095666"><ele>546.0</ele><time>2026-05-03T09:39:05Z</time></trkpt><trkpt lat="38.70980750367797" lon="16.492092113107145"><ele>546.0</ele><time>2026-05-03T09:39:12Z</time></trkpt><trkpt lat="38.70980976573466" lon="16.492010904516324"><ele>546.0</ele><time>2026-05-03T09:39:18Z</time></trkpt><trkpt lat="38.70982740531244" lon="16.491927877654028"><ele>546.0</ele><time>2026-05-03T09:39:23Z</time></trkpt><trkpt lat="38.70985648323872" lon="16.49185488530577"><ele>546.0</ele><time>2026-05-03T09:39:30Z</time></trkpt><trkpt lat="38.70988019151599" lon="16.491772698658917"><ele>546.0</ele><time>2026-05-03T09:39:42Z</time></trkpt><trkpt lat="38.70989397850307" lon="16.49168133523625"><ele>546.0</ele><time>2026-05-03T09:39:48Z</time></trkpt><trkpt lat="38.7099341307079" lon="16.491599874605853"><ele>546.0</ele><time>2026-05-03T09:39:54Z</time></trkpt><trkpt lat="38.709941754390655" lon="16.491513840129826"><ele>546.0</ele><time>2026-05-03T09:40:02Z</time></trkpt><trkpt lat="38.7099291596453" lon="16.491431748911943"><ele>546.0</ele><time>2026-05-03T09:40:12Z</time></trkpt><trkpt lat="38.709960594938295" lon="16.49135713204364"><ele>546.0</ele><time>2026-05-03T09:40:19Z</time></trkpt><trkpt lat="38.7099807747513" lon="16.49127267432121"><ele>546.7142857142857</ele><time>2026-05-03T09:40:26Z</time></trkpt><trkpt lat="38.70999819868102" lon="16.49118541390319"><ele>547.4285714285714</ele><time>2026-05-03T09:40:32Z</time></trkpt><trkpt lat="38.710022944268935" lon="16.49109132622785"><ele>548.1428571428571</ele><time>2026-05-03T09:40:39Z</time></trkpt><trkpt lat="38.710062183842595" lon="16.491023109112398"><ele>548.8571428571429</ele><time>2026-05-03T09:40:46Z</time></trkpt><trkpt lat="38.71008709107337" lon="16.49092449297929"><ele>549.5714285714286</ele><time>2026-05-03T09:40:54Z</time></trkpt><trkpt lat="38.71012291238659" lon="16.490849854694165"><ele>550.2857142857142</ele><time>2026-05-03T09:41:02Z</time></trkpt><trkpt lat="38.710144072080276" lon="16.490756965870606"><ele>551.0</ele><time>2026-05-03T09:41:09Z</time></trkpt><trkpt lat="38.71017073572411" lon="16.490682636796713"><ele>550.9999999999999</ele><time>2026-05-03T09:41:14Z</time></trkpt><trkpt lat="38.71020301777849" lon="16.490612479873718"><ele>551.0</ele><time>2026-05-03T09:41:22Z</time></trkpt><trkpt lat="38.71023690922555" lon="16.490536796566985"><ele>551.0</ele><time>2026-05-03T09:41:34Z</time></trkpt><trkpt lat="38.71026390742703" lon="16.49046014449358"><ele>551.0</ele><time>2026-05-03T09:42:37Z</time></trkpt><trkpt lat="38.71029608965925" lon="16.490379287614054"><ele>551.0</ele><time>2026-05-03T09:42:50Z</time></trkpt><trkpt lat="38.710317424812565" lon="16.490299764987373"><ele>550.9999999999999</ele><time>2026-05-03T09:42:56Z</time></trkpt><trkpt lat="38.71035218035255" lon="16.490231387591866"><ele>551.0</ele><time>2026-05-03T09:43:02Z</time></trkpt><trkpt lat="38.71036940196068" lon="16.490152596362762"><ele>553.2857142857142</ele><time>2026-05-03T09:43:09Z</time></trkpt><trkpt lat="38.71040432755822" lon="16.4900739890084"><ele>555.5714285714286</ele><time>2026-05-03T09:43:17Z</time></trkpt><trkpt lat="38.71043083395675" lon="16.48998992255222"><ele>557.8571428571429</ele><time>2026-05-03T09:43:25Z</time></trkpt><trkpt lat="38.710450255474726" lon="16.48991147807826"><ele>560.1428571428571</ele><time>2026-05-03T09:43:31Z</time></trkpt><trkpt lat="38.71044903987169" lon="16.489810490884317"><ele>562.4285714285714</ele><time>2026-05-03T09:43:37Z</time></trkpt><trkpt lat="38.710475525907846" lon="16.489724644815976"><ele>564.7142857142857</ele><time>2026-05-03T09:43:44Z</time></trkpt><trkpt lat="38.71050548735026" lon="16.489647912653396"><ele>567.0</ele><time>2026-05-03T09:43:52Z</time></trkpt><trkpt lat="38.71057324131089" lon="16.48961411409689"><ele>567.8571428571429</ele><time>2026-05-03T09:43:59Z</time></trkpt><trkpt lat="38.71061206878875" lon="16.489543238472198"><ele>568.7142857142858</ele><time>2026-05-03T09:44:06Z</time></trkpt><trkpt lat="38.71065360052614" lon="16.48948179405617"><ele>569.5714285714286</ele><time>2026-05-03T09:44:14Z</time></trkpt><trkpt lat="38.710703092781664" lon="16.489429516080595"><ele>570.4285714285714</ele><time>2026-05-03T09:44:20Z</time></trkpt><trkpt lat="38.710721560315356" lon="16.489347421738277"><ele>571.2857142857143</ele><time>2026-05-03T09:44:27Z</time></trkpt><trkpt lat="38.71075568513464" lon="16.48926854841189"><ele>572.1428571428571</ele><time>2026-05-03T09:44:35Z</time></trkpt><trkpt lat="38.710791481792334" lon="16.489188385739677"><ele>573.0</ele><time>2026-05-03T09:44:43Z</time></trkpt><trkpt lat="38.71081618058493" lon="16.489105373725543"><ele>573.0</ele><time>2026-05-03T09:44:50Z</time></trkpt><trkpt lat="38.71083458845023" lon="16.489022604014707"><ele>573.0</ele><time>2026-05-03T09:44:57Z</time></trkpt><trkpt lat="38.71086534174223" lon="16.488932433993554"><ele>573.0</ele><time>2026-05-03T09:45:06Z</time></trkpt><trkpt lat="38.710881864163944" lon="16.48885122728597"><ele>573.0</ele><time>2026-05-03T09:45:13Z</time></trkpt><trkpt lat="38.71090783830555" lon="16.488765267206393"><ele>573.0</ele><time>2026-05-03T09:45:20Z</time></trkpt><trkpt lat="38.71092967528325" lon="16.488679668354898"><ele>573.0</ele><time>2026-05-03T09:45:28Z</time></trkpt><trkpt lat="38.710969120323995" lon="16.488614756740713"><ele>573.0</ele><time>2026-05-03T09:45:35Z</time></trkpt><trkpt lat="38.711012808237044" lon="16.48855294529207"><ele>572.7142857142858</ele><time>2026-05-03T09:45:42Z</time></trkpt><trkpt lat="38.71102259391889" lon="16.48846884828128"><ele>572.4285714285714</ele><time>2026-05-03T09:45:48Z</time></trkpt><trkpt lat="38.711049042608536" lon="16.488394651894758"><ele>572.1428571428571</ele><time>2026-05-03T09:45:56Z</time></trkpt><trkpt lat="38.71109567024302" lon="16.488329234763718"><ele>571.8571428571429</ele><time>2026-05-03T09:46:02Z</time></trkpt><trkpt lat="38.711120079814535" lon="16.488247544599524"><ele>571.5714285714286</ele><time>2026-05-03T09:46:10Z</time></trkpt><trkpt lat="38.71113595610061" lon="16.48815020392598"><ele>571.2857142857143</ele><time>2026-05-03T09:46:17Z</time></trkpt><trkpt lat="38.71115051512112" lon="16.488060090687544"><ele>571.0</ele><time>2026-05-03T09:46:24Z</time></trkpt><trkpt lat="38.71117263974089" lon="16.48798399145953"><ele>572.2857142857143</ele><time>2026-05-03T09:46:32Z</time></trkpt><trkpt lat="38.711200136526244" lon="16.487899546293754"><ele>573.5714285714286</ele><time>2026-05-03T09:46:40Z</time></trkpt><trkpt lat="38.7112029636828" lon="16.487809964120373"><ele>574.8571428571429</ele><time>2026-05-03T09:46:47Z</time></trkpt><trkpt lat="38.711232949919925" lon="16.487732326484952"><ele>576.1428571428571</ele><time>2026-05-03T09:46:56Z</time></trkpt><trkpt lat="38.71122263197947" lon="16.48763302265401"><ele>577.4285714285714</ele><time>2026-05-03T09:47:03Z</time></trkpt><trkpt lat="38.711262695218636" lon="16.487550061077396"><ele>578.7142857142858</ele><time>2026-05-03T09:47:13Z</time></trkpt><trkpt lat="38.711263724213374" lon="16.487464967027424"><ele>580.0</ele><time>2026-05-03T09:47:19Z</time></trkpt><trkpt lat="38.71128965362671" lon="16.487390585934104"><ele>580.0</ele><time>2026-05-03T09:47:27Z</time></trkpt><trkpt lat="38.711296525323604" lon="16.487302573975047"><ele>580.0</ele><time>2026-05-03T09:47:33Z</time></trkpt><trkpt lat="38.71131088514174" lon="16.4872113359668"><ele>580.0</ele><time>2026-05-03T09:47:42Z</time></trkpt><trkpt lat="38.71129998232977" lon="16.48712462982659"><ele>580.0</ele><time>2026-05-03T09:47:50Z</time></trkpt><trkpt lat="38.711318082453104" lon="16.487043213751967"><ele>580.0</ele><time>2026-05-03T09:47:58Z</time></trkpt><trkpt lat="38.71132307547282" lon="16.486956043596365"><ele>580.0</ele><time>2026-05-03T09:48:08Z</time></trkpt><trkpt lat="38.7113300885748" lon="16.486867797108008"><ele>580.0</ele><time>2026-05-03T09:48:15Z</time></trkpt><trkpt lat="38.71134304384384" lon="16.48678053480855"><ele>581.8571428571429</ele><time>2026-05-03T09:48:22Z</time></trkpt><trkpt lat="38.711345247447824" lon="16.48669673662178"><ele>583.7142857142858</ele><time>2026-05-03T09:48:31Z</time></trkpt><trkpt lat="38.71132999113865" lon="16.48661836381992"><ele>585.5714285714286</ele><time>2026-05-03T09:48:53Z</time></trkpt><trkpt lat="38.71135605901702" lon="16.486526182338217"><ele>587.4285714285714</ele><time>2026-05-03T09:49:06Z</time></trkpt><trkpt lat="38.711372262288016" lon="16.48644775320726"><ele>589.2857142857142</ele><time>2026-05-03T09:49:19Z</time></trkpt><trkpt lat="38.7113805834671" lon="16.4863617481111"><ele>591.1428571428571</ele><time>2026-05-03T09:49:26Z</time></trkpt><trkpt lat="38.711399670765786" lon="16.486277641802214"><ele>593.0</ele><time>2026-05-03T09:49:36Z</time></trkpt><trkpt lat="38.71143096098945" lon="16.486193886138352"><ele>594.5714285714286</ele><time>2026-05-03T09:49:59Z</time></trkpt><trkpt lat="38.71143013912865" lon="16.48610278618336"><ele>596.1428571428571</ele><time>2026-05-03T09:50:06Z</time></trkpt><trkpt lat="38.7114557342189" lon="16.486024233749838"><ele>597.7142857142858</ele><time>2026-05-03T09:50:13Z</time></trkpt><trkpt lat="38.71147772403903" lon="16.485943678731722"><ele>599.2857142857142</ele><time>2026-05-03T09:50:21Z</time></trkpt><trkpt lat="38.711490244440384" lon="16.48585828385844"><ele>600.8571428571429</ele><time>2026-05-03T09:50:26.999Z</time></trkpt><trkpt lat="38.71151681018366" lon="16.485779952757103"><ele>602.4285714285714</ele><time>2026-05-03T09:50:36Z</time></trkpt><trkpt lat="38.711515412820994" lon="16.485695986400682"><ele>604.0</ele><time>2026-05-03T09:50:42Z</time></trkpt><trkpt lat="38.71153268081228" lon="16.485610531685367"><ele>604.0000000000001</ele><time>2026-05-03T09:50:49Z</time></trkpt><trkpt lat="38.71153108189321" lon="16.485528380641323"><ele>604.0</ele><time>2026-05-03T09:50:56Z</time></trkpt><trkpt lat="38.71153478386144" lon="16.485443536607544"><ele>604.0</ele><time>2026-05-03T09:51:04Z</time></trkpt><trkpt lat="38.71152872531676" lon="16.48535940253875"><ele>604.0</ele><time>2026-05-03T09:51:12Z</time></trkpt><trkpt lat="38.71154090279779" lon="16.48527422870771"><ele>604.0</ele><time>2026-05-03T09:51:19Z</time></trkpt><trkpt lat="38.71153091828649" lon="16.48519239169997"><ele>604.0000000000001</ele><time>2026-05-03T09:51:25Z</time></trkpt><trkpt lat="38.71152607393079" lon="16.485096329293622"><ele>604.0</ele><time>2026-05-03T09:51:32Z</time></trkpt><trkpt lat="38.7115258050861" lon="16.48500182176318"><ele>605.4285714285714</ele><time>2026-05-03T09:51:39Z</time></trkpt><trkpt lat="38.711514952597916" lon="16.484915454633015"><ele>606.8571428571429</ele><time>2026-05-03T09:51:48Z</time></trkpt><trkpt lat="38.71150840287028" lon="16.484827471464303"><ele>608.2857142857142</ele><time>2026-05-03T09:51:54Z</time></trkpt><trkpt lat="38.71151534193833" lon="16.484742876117178"><ele>609.7142857142858</ele><time>2026-05-03T09:52:00Z</time></trkpt><trkpt lat="38.711519065905804" lon="16.48466036637492"><ele>611.1428571428571</ele><time>2026-05-03T09:52:07Z</time></trkpt><trkpt lat="38.71151389237778" lon="16.48457518422635"><ele>612.5714285714286</ele><time>2026-05-03T09:52:12Z</time></trkpt><trkpt lat="38.711512013913875" lon="16.48449321915004"><ele>614.0</ele><time>2026-05-03T09:52:18Z</time></trkpt><trkpt lat="38.711501251647014" lon="16.484411130934863"><ele>614.8571428571428</ele><time>2026-05-03T09:52:24Z</time></trkpt><trkpt lat="38.71149991527767" lon="16.484319195282986"><ele>615.7142857142857</ele><time>2026-05-03T09:52:31Z</time></trkpt><trkpt lat="38.711509703715265" lon="16.484234038074664"><ele>616.5714285714286</ele><time>2026-05-03T09:52:38Z</time></trkpt><trkpt lat="38.711519908327354" lon="16.484153942988904"><ele>617.4285714285713</ele><time>2026-05-03T09:52:44Z</time></trkpt><trkpt lat="38.7114860472531" lon="16.4840843838534"><ele>618.2857142857142</ele><time>2026-05-03T09:52:49Z</time></trkpt><trkpt lat="38.71149343386099" lon="16.48399258257834"><ele>619.1428571428571</ele><time>2026-05-03T09:52:59Z</time></trkpt><trkpt lat="38.711480937673066" lon="16.483897770716368"><ele>620.0</ele><time>2026-05-03T09:53:05Z</time></trkpt><trkpt lat="38.71148840460647" lon="16.483815125577426"><ele>620.4285714285714</ele><time>2026-05-03T09:53:11Z</time></trkpt><trkpt lat="38.71148056836164" lon="16.483731868694527"><ele>620.8571428571429</ele><time>2026-05-03T09:53:16Z</time></trkpt><trkpt lat="38.711474496400804" lon="16.483642996928467"><ele>621.2857142857142</ele><time>2026-05-03T09:53:23Z</time></trkpt><trkpt lat="38.711472638254726" lon="16.483562210510705"><ele>621.7142857142858</ele><time>2026-05-03T09:53:30Z</time></trkpt><trkpt lat="38.711472191119846" lon="16.483467265687324"><ele>622.1428571428571</ele><time>2026-05-03T09:53:37Z</time></trkpt><trkpt lat="38.71146590139429" lon="16.48337652747624"><ele>622.5714285714286</ele><time>2026-05-03T09:54:15Z</time></trkpt><trkpt lat="38.71145566895919" lon="16.483288544534883"><ele>623.0</ele><time>2026-05-03T09:54:22Z</time></trkpt><trkpt lat="38.71143511017893" lon="16.483195574139355"><ele>623.0</ele><time>2026-05-03T09:54:30Z</time></trkpt><trkpt lat="38.711436212537876" lon="16.483113946683662"><ele>623.0</ele><time>2026-05-03T09:54:34.999Z</time></trkpt><trkpt lat="38.71143360958767" lon="16.483024358207114"><ele>623.0</ele><time>2026-05-03T09:54:42Z</time></trkpt><trkpt lat="38.711431527753504" lon="16.482941402409207"><ele>623.0</ele><time>2026-05-03T09:54:49Z</time></trkpt><trkpt lat="38.711399604164264" lon="16.482871700249667"><ele>623.0</ele><time>2026-05-03T09:54:55Z</time></trkpt><trkpt lat="38.71137226932606" lon="16.482769383587247"><ele>623.0</ele><time>2026-05-03T09:54:59Z</time></trkpt><trkpt lat="38.711377424699705" lon="16.482686475713766"><ele>623.0</ele><time>2026-05-03T09:55:12Z</time></trkpt><trkpt lat="38.71139957327194" lon="16.4826072889178"><ele>624.2857142857143</ele><time>2026-05-03T09:55:19Z</time></trkpt><trkpt lat="38.71145215854718" lon="16.482529137835122"><ele>625.5714285714286</ele><time>2026-05-03T09:55:27Z</time></trkpt><trkpt lat="38.711447368004386" lon="16.48243348816167"><ele>626.8571428571429</ele><time>2026-05-03T09:55:32Z</time></trkpt><trkpt lat="38.711456827613915" lon="16.48234214355"><ele>628.1428571428571</ele><time>2026-05-03T09:55:39Z</time></trkpt><trkpt lat="38.71144848564978" lon="16.48225223046811"><ele>629.4285714285714</ele><time>2026-05-03T09:55:46Z</time></trkpt><trkpt lat="38.71149988020728" lon="16.482198968495062"><ele>630.7142857142858</ele><time>2026-05-03T09:55:51Z</time></trkpt><trkpt lat="38.71153582025494" lon="16.482125932718677"><ele>632.0</ele><time>2026-05-03T09:55:58Z</time></trkpt><trkpt lat="38.71153302623686" lon="16.482028658339626"><ele>633.7142857142858</ele><time>2026-05-03T09:56:05Z</time></trkpt><trkpt lat="38.71154559235016" lon="16.48193956524483"><ele>635.4285714285714</ele><time>2026-05-03T09:56:17Z</time></trkpt><trkpt lat="38.711506500812014" lon="16.481857767496077"><ele>637.1428571428571</ele><time>2026-05-03T09:56:30Z</time></trkpt><trkpt lat="38.7114711268864" lon="16.481775407237087"><ele>638.8571428571429</ele><time>2026-05-03T09:56:37.999Z</time></trkpt><trkpt lat="38.711429922222486" lon="16.481702351127623"><ele>640.5714285714286</ele><time>2026-05-03T09:56:46Z</time></trkpt><trkpt lat="38.71140114875518" lon="16.481616786141966"><ele>642.2857142857143</ele><time>2026-05-03T09:56:53Z</time></trkpt><trkpt lat="38.71137761624537" lon="16.481531308348057"><ele>644.0</ele><time>2026-05-03T09:56:59Z</time></trkpt><trkpt lat="38.711353200319905" lon="16.48144370042627"><ele>644.0</ele><time>2026-05-03T09:57:04Z</time></trkpt><trkpt lat="38.711347590823195" lon="16.481345560346586"><ele>644.0</ele><time>2026-05-03T09:57:14Z</time></trkpt><trkpt lat="38.71135359851435" lon="16.481253010386517"><ele>644.0</ele><time>2026-05-03T09:57:24Z</time></trkpt><trkpt lat="38.71136844409963" lon="16.48117436509658"><ele>644.0</ele><time>2026-05-03T09:57:31Z</time></trkpt><trkpt lat="38.71135149391803" lon="16.48108121781921"><ele>644.0</ele><time>2026-05-03T09:57:42Z</time></trkpt><trkpt lat="38.7113545959966" lon="16.480991061490315"><ele>644.0</ele><time>2026-05-03T09:57:48Z</time></trkpt><trkpt lat="38.711355513560704" lon="16.480882169450496"><ele>644.0</ele><time>2026-05-03T09:57:53Z</time></trkpt><trkpt lat="38.71137072792973" lon="16.48080388071188"><ele>644.0</ele><time>2026-05-03T09:58:00Z</time></trkpt><trkpt lat="38.71137469712983" lon="16.48070602993118"><ele>644.0</ele><time>2026-05-03T09:58:06Z</time></trkpt><trkpt lat="38.711403276997984" lon="16.480615428426837"><ele>644.0</ele><time>2026-05-03T09:58:19Z</time></trkpt><trkpt lat="38.711398753120264" lon="16.480524307546027"><ele>644.0</ele><time>2026-05-03T09:58:24Z</time></trkpt><trkpt lat="38.71139105028579" lon="16.480437581935387"><ele>644.0</ele><time>2026-05-03T09:58:31Z</time></trkpt><trkpt lat="38.71138022119796" lon="16.480344076208866"><ele>644.0</ele><time>2026-05-03T09:58:39Z</time></trkpt><trkpt lat="38.711368511663046" lon="16.48025157307113"><ele>644.0</ele><time>2026-05-03T09:58:45.999Z</time></trkpt><trkpt lat="38.711329726139354" lon="16.480177221345542"><ele>644.0</ele><time>2026-05-03T09:58:53Z</time></trkpt><trkpt lat="38.7113209810944" lon="16.480087661460022"><ele>644.0</ele><time>2026-05-03T09:59:01Z</time></trkpt><trkpt lat="38.71131551590378" lon="16.479997667126113"><ele>644.0</ele><time>2026-05-03T09:59:06Z</time></trkpt><trkpt lat="38.7112953370565" lon="16.4799187195937"><ele>644.0</ele><time>2026-05-03T09:59:12Z</time></trkpt><trkpt lat="38.71128166815494" lon="16.479839497827765"><ele>644.0</ele><time>2026-05-03T09:59:20Z</time></trkpt><trkpt lat="38.71129870808688" lon="16.479761660132947"><ele>644.0</ele><time>2026-05-03T09:59:27Z</time></trkpt><trkpt lat="38.71129853266265" lon="16.479680716498414"><ele>644.0</ele><time>2026-05-03T09:59:35Z</time></trkpt><trkpt lat="38.71126072231886" lon="16.47960507925015"><ele>643.8571428571429</ele><time>2026-05-03T09:59:45Z</time></trkpt><trkpt lat="38.71122370244742" lon="16.47953550488507"><ele>643.7142857142858</ele><time>2026-05-03T09:59:57Z</time></trkpt><trkpt lat="38.71117964698522" lon="16.47947493781098"><ele>643.5714285714286</ele><time>2026-05-03T10:00:07Z</time></trkpt><trkpt lat="38.71115604233434" lon="16.47938900056013"><ele>643.4285714285714</ele><time>2026-05-03T10:00:15Z</time></trkpt><trkpt lat="38.71114322481192" lon="16.47930583883587"><ele>643.2857142857143</ele><time>2026-05-03T10:00:22Z</time></trkpt><trkpt lat="38.711140599639165" lon="16.479219356506313"><ele>643.1428571428571</ele><time>2026-05-03T10:00:29Z</time></trkpt><trkpt lat="38.711119552396454" lon="16.47913170591113"><ele>643.0</ele><time>2026-05-03T10:00:36Z</time></trkpt><trkpt lat="38.711123051886375" lon="16.47904465665607"><ele>643.0</ele><time>2026-05-03T10:01:29Z</time></trkpt><trkpt lat="38.711112036406476" lon="16.478953771491515"><ele>643.0</ele><time>2026-05-03T10:01:36Z</time></trkpt><trkpt lat="38.71109733465413" lon="16.478848243379108"><ele>643.0</ele><time>2026-05-03T10:02:21Z</time></trkpt><trkpt lat="38.7110701056563" lon="16.4787736284819"><ele>643.0</ele><time>2026-05-03T10:02:25Z</time></trkpt><trkpt lat="38.71102546516457" lon="16.478712096469703"><ele>643.0</ele><time>2026-05-03T10:02:30Z</time></trkpt><trkpt lat="38.71103741961311" lon="16.478627985314883"><ele>643.0</ele><time>2026-05-03T10:02:36Z</time></trkpt><trkpt lat="38.71097748763849" lon="16.47855375473272"><ele>643.0</ele><time>2026-05-03T10:02:42Z</time></trkpt><trkpt lat="38.71092373231922" lon="16.4784808926249"><ele>639.0</ele><time>2026-05-03T10:02:48Z</time></trkpt><trkpt lat="38.71088535819834" lon="16.478406382932796"><ele>635.0</ele><time>2026-05-03T10:02:55.999Z</time></trkpt><trkpt lat="38.71084322226852" lon="16.478336085123978"><ele>631.0</ele><time>2026-05-03T10:03:00.999Z</time></trkpt><trkpt lat="38.71080980638972" lon="16.478252857644662"><ele>627.0</ele><time>2026-05-03T10:03:08Z</time></trkpt><trkpt lat="38.710768636423694" lon="16.478182205437292"><ele>623.0</ele><time>2026-05-03T10:03:15Z</time></trkpt><trkpt lat="38.71073172890423" lon="16.478083788646085"><ele>619.0</ele><time>2026-05-03T10:03:20Z</time></trkpt><trkpt lat="38.710693826667956" lon="16.478003347351027"><ele>615.0</ele><time>2026-05-03T10:03:25Z</time></trkpt><trkpt lat="38.71066993364772" lon="16.47792503718967"><ele>615.0</ele><time>2026-05-03T10:03:30Z</time></trkpt><trkpt lat="38.710643272960944" lon="16.4778149205917"><ele>615.0</ele><time>2026-05-03T10:03:38Z</time></trkpt><trkpt lat="38.71061645595919" lon="16.47773217443422"><ele>615.0</ele><time>2026-05-03T10:03:44Z</time></trkpt><trkpt lat="38.71057901915519" lon="16.477631617048658"><ele>615.0</ele><time>2026-05-03T10:03:49Z</time></trkpt><trkpt lat="38.710570483586075" lon="16.477548861339336"><ele>615.0</ele><time>2026-05-03T10:03:59Z</time></trkpt><trkpt lat="38.71055091958599" lon="16.477449198891108"><ele>615.0</ele><time>2026-05-03T10:04:05Z</time></trkpt><trkpt lat="38.71054047747083" lon="16.477368512469035"><ele>615.0</ele><time>2026-05-03T10:04:10Z</time></trkpt><trkpt lat="38.71051601945094" lon="16.477285132175915"><ele>615.0</ele><time>2026-05-03T10:04:14Z</time></trkpt><trkpt lat="38.71049571873049" lon="16.477200963831468"><ele>615.0</ele><time>2026-05-03T10:04:20Z</time></trkpt><trkpt lat="38.710464029115705" lon="16.477105064248136"><ele>615.0</ele><time>2026-05-03T10:04:26Z</time></trkpt><trkpt lat="38.71043208146009" lon="16.477029260338572"><ele>615.0</ele><time>2026-05-03T10:04:35Z</time></trkpt><trkpt lat="38.71047435948591" lon="16.47695898471078"><ele>615.0</ele><time>2026-05-03T10:04:42Z</time></trkpt><trkpt lat="38.71045304773027" lon="16.476876305092247"><ele>615.0</ele><time>2026-05-03T10:04:49Z</time></trkpt><trkpt lat="38.71043653783737" lon="16.476793156667785"><ele>613.4285714285714</ele><time>2026-05-03T10:04:55Z</time></trkpt><trkpt lat="38.71046298825377" lon="16.476705251266072"><ele>611.8571428571429</ele><time>2026-05-03T10:05:06Z</time></trkpt><trkpt lat="38.710487337673044" lon="16.476615606226897"><ele>610.2857142857143</ele><time>2026-05-03T10:05:11Z</time></trkpt><trkpt lat="38.71049583892895" lon="16.476528700225277"><ele>608.7142857142858</ele><time>2026-05-03T10:05:19Z</time></trkpt><trkpt lat="38.710541741068404" lon="16.47646492997315"><ele>607.1428571428571</ele><time>2026-05-03T10:05:35Z</time></trkpt><trkpt lat="38.71054854391254" lon="16.476370610698236"><ele>605.5714285714287</ele><time>2026-05-03T10:05:46Z</time></trkpt><trkpt lat="38.71061053727293" lon="16.476350071736167"><ele>604.0</ele><time>2026-05-03T10:06:02Z</time></trkpt><trkpt lat="38.710666220732335" lon="16.47621348423354"><ele>599.6666666666667</ele><time>2026-05-03T10:06:26Z</time></trkpt><trkpt lat="38.71061657145693" lon="16.476126402523235"><ele>595.3333333333334</ele><time>2026-05-03T10:06:39Z</time></trkpt><trkpt lat="38.71056650349787" lon="16.476067556190955"><ele>591.0</ele><time>2026-05-03T10:06:51Z</time></trkpt><trkpt lat="38.71066501697266" lon="16.476023509233897"><ele>586.6666666666666</ele><time>2026-05-03T10:07:19Z</time></trkpt><trkpt lat="38.710692788841854" lon="16.475944961419426"><ele>582.3333333333333</ele><time>2026-05-03T10:07:32Z</time></trkpt><trkpt lat="38.71072621994912" lon="16.475871828624665"><ele>578.0</ele><time>2026-05-03T10:07:57Z</time></trkpt><trkpt lat="38.71079645293401" lon="16.47584341770357"><ele>578.0</ele><time>2026-05-03T10:08:07Z</time></trkpt><trkpt lat="38.71083572888909" lon="16.47577310536995"><ele>578.0</ele><time>2026-05-03T10:08:18Z</time></trkpt><trkpt lat="38.71084369660822" lon="16.475687418069153"><ele>578.0</ele><time>2026-05-03T10:08:27Z</time></trkpt><trkpt lat="38.71086486679712" lon="16.475602765940973"><ele>578.0</ele><time>2026-05-03T10:08:38Z</time></trkpt><trkpt lat="38.71088278303568" lon="16.47551622866124"><ele>578.0</ele><time>2026-05-03T10:08:47Z</time></trkpt><trkpt lat="38.710901888841406" lon="16.47543546877365"><ele>578.0</ele><time>2026-05-03T10:08:55Z</time></trkpt><trkpt lat="38.71089755448254" lon="16.47535439190974"><ele>578.0</ele><time>2026-05-03T10:09:02Z</time></trkpt><trkpt lat="38.71087315485044" lon="16.475278626494877"><ele>575.2857142857143</ele><time>2026-05-03T10:09:09Z</time></trkpt><trkpt lat="38.71086681990264" lon="16.475192846649247"><ele>572.5714285714286</ele><time>2026-05-03T10:09:16Z</time></trkpt><trkpt lat="38.71086010482435" lon="16.475106484144945"><ele>569.8571428571429</ele><time>2026-05-03T10:09:26Z</time></trkpt><trkpt lat="38.710796041139474" lon="16.475086713899554"><ele>567.1428571428571</ele><time>2026-05-03T10:09:32Z</time></trkpt><trkpt lat="38.71073855883713" lon="16.47503169493002"><ele>564.4285714285714</ele><time>2026-05-03T10:09:39Z</time></trkpt><trkpt lat="38.71071268081075" lon="16.474931877610803"><ele>561.7142857142858</ele><time>2026-05-03T10:09:56Z</time></trkpt><trkpt lat="38.71067364103234" lon="16.47485940450454"><ele>559.0</ele><time>2026-05-03T10:10:02Z</time></trkpt><trkpt lat="38.71065856855302" lon="16.474778412585096"><ele>559.0</ele><time>2026-05-03T10:10:07Z</time></trkpt><trkpt lat="38.7106580195431" lon="16.47469083209136"><ele>559.0</ele><time>2026-05-03T10:10:12Z</time></trkpt><trkpt lat="38.71066455366927" lon="16.474608201516276"><ele>559.0</ele><time>2026-05-03T10:10:16Z</time></trkpt><trkpt lat="38.710676156237646" lon="16.474523853359067"><ele>559.0</ele><time>2026-05-03T10:10:24Z</time></trkpt><trkpt lat="38.71063134290237" lon="16.474449147661293"><ele>559.0</ele><time>2026-05-03T10:10:30Z</time></trkpt><trkpt lat="38.710598926341014" lon="16.47436629506605"><ele>559.0</ele><time>2026-05-03T10:10:35Z</time></trkpt><trkpt lat="38.71055605227127" lon="16.47430310478438"><ele>559.0</ele><time>2026-05-03T10:10:41Z</time></trkpt><trkpt lat="38.71051729713555" lon="16.474233929477272"><ele>559.4285714285714</ele><time>2026-05-03T10:10:48Z</time></trkpt><trkpt lat="38.71047749051202" lon="16.47416465350077"><ele>559.8571428571429</ele><time>2026-05-03T10:10:54Z</time></trkpt><trkpt lat="38.71043735799359" lon="16.47409788285346"><ele>560.2857142857143</ele><time>2026-05-03T10:10:58Z</time></trkpt><trkpt lat="38.710411438112956" lon="16.474014115573897"><ele>560.7142857142858</ele><time>2026-05-03T10:11:06Z</time></trkpt><trkpt lat="38.710366839292405" lon="16.47394464856917"><ele>561.1428571428571</ele><time>2026-05-03T10:11:12Z</time></trkpt><trkpt lat="38.710343900431575" lon="16.473863878824407"><ele>561.5714285714287</ele><time>2026-05-03T10:11:18Z</time></trkpt><trkpt lat="38.710347799168176" lon="16.47377082090841"><ele>562.0</ele><time>2026-05-03T10:11:27Z</time></trkpt><trkpt lat="38.710360018375525" lon="16.473666939267652"><ele>560.5</ele><time>2026-05-03T10:11:34Z</time></trkpt><trkpt lat="38.710317597929595" lon="16.47358400014942"><ele>559.0</ele><time>2026-05-03T10:11:40Z</time></trkpt><trkpt lat="38.71032030940239" lon="16.47349582269866"><ele>557.5</ele><time>2026-05-03T10:11:47Z</time></trkpt><trkpt lat="38.71030706438314" lon="16.47340229163521"><ele>556.0</ele><time>2026-05-03T10:11:58Z</time></trkpt><trkpt lat="38.710253120186046" lon="16.473333254220194"><ele>554.5</ele><time>2026-05-03T10:12:06Z</time></trkpt><trkpt lat="38.71023188317328" lon="16.473233305476228"><ele>553.0</ele><time>2026-05-03T10:12:15Z</time></trkpt><trkpt lat="38.71020122503202" lon="16.47314793640103"><ele>548.8571428571429</ele><time>2026-05-03T10:12:28Z</time></trkpt><trkpt lat="38.71018366942348" lon="16.47305337436866"><ele>544.7142857142858</ele><time>2026-05-03T10:12:37Z</time></trkpt><trkpt lat="38.71019202614628" lon="16.47297153591526"><ele>540.5714285714286</ele><time>2026-05-03T10:12:51Z</time></trkpt><trkpt lat="38.710201802049994" lon="16.47288767939662"><ele>536.4285714285714</ele><time>2026-05-03T10:12:57Z</time></trkpt><trkpt lat="38.710187924202614" lon="16.47279968414487"><ele>532.2857142857143</ele><time>2026-05-03T10:13:08Z</time></trkpt><trkpt lat="38.71016984816709" lon="16.472719694388523"><ele>528.1428571428571</ele><time>2026-05-03T10:13:24Z</time></trkpt><trkpt lat="38.71023146527136" lon="16.472684306735996"><ele>524.0</ele><time>2026-05-03T10:13:34Z</time></trkpt><trkpt lat="38.71025963072384" lon="16.472597800891535"><ele>524.0</ele><time>2026-05-03T10:13:42Z</time></trkpt><trkpt lat="38.71025886249377" lon="16.47250389120781"><ele>524.0</ele><time>2026-05-03T10:13:51Z</time></trkpt><trkpt lat="38.7102888015401" lon="16.472429855318563"><ele>524.0</ele><time>2026-05-03T10:13:58Z</time></trkpt><trkpt lat="38.7102706643192" lon="16.472349671546198"><ele>524.0</ele><time>2026-05-03T10:14:31Z</time></trkpt><trkpt lat="38.71020115545727" lon="16.472358520735952"><ele>524.0</ele><time>2026-05-03T10:14:38Z</time></trkpt><trkpt lat="38.71013188761084" lon="16.472333266186414"><ele>524.0</ele><time>2026-05-03T10:14:45Z</time></trkpt><trkpt lat="38.71006782400869" lon="16.472303412086713"><ele>524.0</ele><time>2026-05-03T10:14:51Z</time></trkpt><trkpt lat="38.70999264816503" lon="16.472269036199783"><ele>522.2857142857143</ele><time>2026-05-03T10:14:57Z</time></trkpt><trkpt lat="38.7099283567958" lon="16.47224893551941"><ele>520.5714285714287</ele><time>2026-05-03T10:15:02Z</time></trkpt><trkpt lat="38.70986582118532" lon="16.472225571680813"><ele>518.8571428571429</ele><time>2026-05-03T10:15:07Z</time></trkpt><trkpt lat="38.70979505747088" lon="16.47219900887539"><ele>517.1428571428571</ele><time>2026-05-03T10:15:13Z</time></trkpt><trkpt lat="38.70972656033074" lon="16.472166999888216"><ele>515.4285714285713</ele><time>2026-05-03T10:15:19Z</time></trkpt><trkpt lat="38.709658689131594" lon="16.472166113570584"><ele>513.7142857142857</ele><time>2026-05-03T10:15:25Z</time></trkpt><trkpt lat="38.70959465210208" lon="16.472142891025378"><ele>512.0</ele><time>2026-05-03T10:15:31Z</time></trkpt><trkpt lat="38.709525390822265" lon="16.47211033619072"><ele>508.1428571428571</ele><time>2026-05-03T10:15:36Z</time></trkpt><trkpt lat="38.70945686362996" lon="16.472089049178123"><ele>504.2857142857142</ele><time>2026-05-03T10:15:42Z</time></trkpt><trkpt lat="38.70939559042387" lon="16.472050698530087"><ele>500.42857142857144</ele><time>2026-05-03T10:15:47Z</time></trkpt><trkpt lat="38.709328919268756" lon="16.472038226775947"><ele>496.57142857142856</ele><time>2026-05-03T10:15:53Z</time></trkpt><trkpt lat="38.70926442565855" lon="16.472017071539856"><ele>492.7142857142857</ele><time>2026-05-03T10:15:58Z</time></trkpt><trkpt lat="38.709192673486996" lon="16.472006886022708"><ele>488.8571428571429</ele><time>2026-05-03T10:16:04Z</time></trkpt><trkpt lat="38.70912944446794" lon="16.47199822250133"><ele>485.00000000000006</ele><time>2026-05-03T10:16:09Z</time></trkpt><trkpt lat="38.70906427672074" lon="16.47196478226609"><ele>485.00000000000006</ele><time>2026-05-03T10:16:15Z</time></trkpt><trkpt lat="38.70899211610753" lon="16.4719182003357"><ele>485.0</ele><time>2026-05-03T10:16:20Z</time></trkpt><trkpt lat="38.708922150995086" lon="16.47188947784125"><ele>485.00000000000006</ele><time>2026-05-03T10:16:26Z</time></trkpt><trkpt lat="38.70884999354811" lon="16.47186809336041"><ele>485.00000000000006</ele><time>2026-05-03T10:16:32Z</time></trkpt><trkpt lat="38.708799941361114" lon="16.47181013508643"><ele>485.0</ele><time>2026-05-03T10:16:37Z</time></trkpt><trkpt lat="38.70874179390338" lon="16.47177190947804"><ele>485.00000000000006</ele><time>2026-05-03T10:16:43Z</time></trkpt><trkpt lat="38.70868449319416" lon="16.471726256405532"><ele>485.00000000000006</ele><time>2026-05-03T10:16:54Z</time></trkpt><trkpt lat="38.708636700058086" lon="16.47166926301222"><ele>485.00000000000006</ele><time>2026-05-03T10:17:00Z</time></trkpt><trkpt lat="38.70857987413883" lon="16.47161675368895"><ele>485.0</ele><time>2026-05-03T10:17:06Z</time></trkpt><trkpt lat="38.70852173637705" lon="16.471577565530037"><ele>485.00000000000006</ele><time>2026-05-03T10:17:11Z</time></trkpt><trkpt lat="38.708462070990656" lon="16.471542094450214"><ele>485.00000000000006</ele><time>2026-05-03T10:17:17Z</time></trkpt><trkpt lat="38.70840875667549" lon="16.4714976110405"><ele>485.0</ele><time>2026-05-03T10:17:22Z</time></trkpt><trkpt lat="38.70834618485985" lon="16.471457491578196"><ele>485.00000000000006</ele><time>2026-05-03T10:17:27Z</time></trkpt><trkpt lat="38.70828430649086" lon="16.471422715267497"><ele>485.00000000000006</ele><time>2026-05-03T10:17:33Z</time></trkpt><trkpt lat="38.708224318199484" lon="16.471381859318686"><ele>483.28571428571433</ele><time>2026-05-03T10:17:37Z</time></trkpt><trkpt lat="38.70816364065626" lon="16.471342071490533"><ele>481.57142857142856</ele><time>2026-05-03T10:17:44Z</time></trkpt><trkpt lat="38.70809077829297" lon="16.471292956053386"><ele>479.8571428571429</ele><time>2026-05-03T10:17:49Z</time></trkpt><trkpt lat="38.70802893462123" lon="16.471265084187895"><ele>478.14285714285717</ele><time>2026-05-03T10:17:55Z</time></trkpt><trkpt lat="38.70795528526871" lon="16.471224574293004"><ele>476.42857142857144</ele><time>2026-05-03T10:18:00Z</time></trkpt><trkpt lat="38.70789441569479" lon="16.47119790336629"><ele>474.7142857142857</ele><time>2026-05-03T10:18:06Z</time></trkpt><trkpt lat="38.70783043440568" lon="16.471175142926327"><ele>473.0</ele><time>2026-05-03T10:18:11Z</time></trkpt><trkpt lat="38.707767343412684" lon="16.471156099117554"><ele>471.0</ele><time>2026-05-03T10:18:16Z</time></trkpt><trkpt lat="38.70770575939745" lon="16.471119259221613"><ele>469.0</ele><time>2026-05-03T10:18:22Z</time></trkpt><trkpt lat="38.70764183262772" lon="16.471098720718782"><ele>467.0</ele><time>2026-05-03T10:18:38Z</time></trkpt><trkpt lat="38.7075710038053" lon="16.47108710450644"><ele>465.0</ele><time>2026-05-03T10:18:44Z</time></trkpt><trkpt lat="38.70750875017954" lon="16.471073008162286"><ele>463.0</ele><time>2026-05-03T10:18:48Z</time></trkpt><trkpt lat="38.70744830336068" lon="16.471049733622326"><ele>461.0</ele><time>2026-05-03T10:18:54Z</time></trkpt><trkpt lat="38.70737742959914" lon="16.471022266993632"><ele>459.0</ele><time>2026-05-03T10:18:59Z</time></trkpt><trkpt lat="38.70730899712463" lon="16.471004454431462"><ele>459.0</ele><time>2026-05-03T10:19:06Z</time></trkpt><trkpt lat="38.70724154971769" lon="16.470985950807258"><ele>459.0</ele><time>2026-05-03T10:19:11Z</time></trkpt><trkpt lat="38.707167006419496" lon="16.47097504172695"><ele>459.0</ele><time>2026-05-03T10:19:17Z</time></trkpt><trkpt lat="38.70710037763979" lon="16.470977693663713"><ele>459.0</ele><time>2026-05-03T10:19:23Z</time></trkpt><trkpt lat="38.70703350413148" lon="16.470971917518245"><ele>459.0</ele><time>2026-05-03T10:19:28Z</time></trkpt><trkpt lat="38.70696425213518" lon="16.470976115664968"><ele>459.0</ele><time>2026-05-03T10:19:34Z</time></trkpt><trkpt lat="38.70689662645683" lon="16.470983968521477"><ele>459.0</ele><time>2026-05-03T10:19:39Z</time></trkpt><trkpt lat="38.706823040200675" lon="16.4709998658905"><ele>460.0</ele><time>2026-05-03T10:19:45Z</time></trkpt><trkpt lat="38.70675491184287" lon="16.47102535131362"><ele>461.0</ele><time>2026-05-03T10:19:49.999Z</time></trkpt><trkpt lat="38.70669146524167" lon="16.471024212456868"><ele>462.0</ele><time>2026-05-03T10:19:56Z</time></trkpt><trkpt lat="38.70661455904348" lon="16.471039332536947"><ele>463.0</ele><time>2026-05-03T10:20:02Z</time></trkpt><trkpt lat="38.70654578751913" lon="16.471025092430924"><ele>464.0</ele><time>2026-05-03T10:20:09Z</time></trkpt><trkpt lat="38.70648317641281" lon="16.471034092094747"><ele>465.0</ele><time>2026-05-03T10:20:12Z</time></trkpt><trkpt lat="38.706414275681595" lon="16.47101176174643"><ele>466.0</ele><time>2026-05-03T10:20:19Z</time></trkpt><trkpt lat="38.706348561462534" lon="16.470985891193468"><ele>466.0</ele><time>2026-05-03T10:20:25Z</time></trkpt><trkpt lat="38.70628291811378" lon="16.470940864181525"><ele>466.0</ele><time>2026-05-03T10:20:31Z</time></trkpt><trkpt lat="38.7062214904581" lon="16.470905772340235"><ele>466.0</ele><time>2026-05-03T10:20:37Z</time></trkpt><trkpt lat="38.7061557535227" lon="16.47086608127558"><ele>466.0</ele><time>2026-05-03T10:20:42Z</time></trkpt><trkpt lat="38.70608368232958" lon="16.47083282773425"><ele>466.0</ele><time>2026-05-03T10:20:48Z</time></trkpt><trkpt lat="38.70601978731334" lon="16.47080989503804"><ele>466.0</ele><time>2026-05-03T10:20:53Z</time></trkpt><trkpt lat="38.705958426198436" lon="16.47078703589994"><ele>466.0</ele><time>2026-05-03T10:20:57Z</time></trkpt><trkpt lat="38.70589840737345" lon="16.470736258661745"><ele>465.57142857142856</ele><time>2026-05-03T10:21:03Z</time></trkpt><trkpt lat="38.70583960947629" lon="16.470702987912507"><ele>465.1428571428571</ele><time>2026-05-03T10:21:08Z</time></trkpt><trkpt lat="38.70576547364536" lon="16.470678531852364"><ele>464.71428571428567</ele><time>2026-05-03T10:21:15Z</time></trkpt><trkpt lat="38.705692091984005" lon="16.470656323047322"><ele>464.2857142857143</ele><time>2026-05-03T10:21:20Z</time></trkpt><trkpt lat="38.70562604512191" lon="16.47063111313036"><ele>463.8571428571428</ele><time>2026-05-03T10:21:25Z</time></trkpt><trkpt lat="38.70555881265295" lon="16.470615315510656"><ele>463.4285714285714</ele><time>2026-05-03T10:21:30Z</time></trkpt><trkpt lat="38.70549324883722" lon="16.470603165819618"><ele>463.0</ele><time>2026-05-03T10:21:35Z</time></trkpt><trkpt lat="38.70542305717501" lon="16.470591654613074"><ele>463.0</ele><time>2026-05-03T10:21:41Z</time></trkpt><trkpt lat="38.705352116032145" lon="16.470584228917165"><ele>462.99999999999994</ele><time>2026-05-03T10:21:47Z</time></trkpt><trkpt lat="38.70528121525856" lon="16.47057596359051"><ele>463.0</ele><time>2026-05-03T10:21:52Z</time></trkpt><trkpt lat="38.70520922446093" lon="16.470582863371124"><ele>463.0</ele><time>2026-05-03T10:21:58Z</time></trkpt><trkpt lat="38.70513113994376" lon="16.470586702830328"><ele>462.99999999999994</ele><time>2026-05-03T10:22:04Z</time></trkpt><trkpt lat="38.70506027814544" lon="16.47058381155612"><ele>463.0</ele><time>2026-05-03T10:22:10Z</time></trkpt><trkpt lat="38.704989676316444" lon="16.470576195035378"><ele>463.0</ele><time>2026-05-03T10:22:15Z</time></trkpt><trkpt lat="38.70492115221986" lon="16.47062064569946"><ele>462.0</ele><time>2026-05-03T10:22:21Z</time></trkpt><trkpt lat="38.7048565456512" lon="16.47066678927877"><ele>460.99999999999994</ele><time>2026-05-03T10:22:26Z</time></trkpt><trkpt lat="38.70479422877301" lon="16.470689712008223"><ele>460.0</ele><time>2026-05-03T10:22:31Z</time></trkpt><trkpt lat="38.70472680912659" lon="16.470709264059558"><ele>459.0</ele><time>2026-05-03T10:22:36Z</time></trkpt><trkpt lat="38.704664382101754" lon="16.47073775206385"><ele>457.99999999999994</ele><time>2026-05-03T10:22:42Z</time></trkpt><trkpt lat="38.70460212175255" lon="16.470716092905324"><ele>457.0</ele><time>2026-05-03T10:22:48Z</time></trkpt><trkpt lat="38.70458096493243" lon="16.470634248853585"><ele>456.0</ele><time>2026-05-03T10:22:54Z</time></trkpt><trkpt lat="38.70461531434634" lon="16.470564549101322"><ele>456.0</ele><time>2026-05-03T10:23:00Z</time></trkpt><trkpt lat="38.7046503904995" lon="16.470468130425413"><ele>455.99999999999994</ele><time>2026-05-03T10:23:07Z</time></trkpt><trkpt lat="38.704624832252584" lon="16.470386343113546"><ele>456.0</ele><time>2026-05-03T10:23:14Z</time></trkpt><trkpt lat="38.70455460691729" lon="16.47037036013251"><ele>456.0</ele><time>2026-05-03T10:23:21Z</time></trkpt><trkpt lat="38.70448246353363" lon="16.4703959755711"><ele>455.99999999999994</ele><time>2026-05-03T10:23:29Z</time></trkpt><trkpt lat="38.704432611298195" lon="16.47044537615651"><ele>456.0</ele><time>2026-05-03T10:23:36Z</time></trkpt><trkpt lat="38.704374755664276" lon="16.470482171442182"><ele>456.0</ele><time>2026-05-03T10:23:46Z</time></trkpt><trkpt lat="38.70431204350622" lon="16.470554851728544"><ele>453.2857142857143</ele><time>2026-05-03T10:23:53Z</time></trkpt><trkpt lat="38.70427668430597" lon="16.47062805250003"><ele>450.57142857142856</ele><time>2026-05-03T10:23:59.999Z</time></trkpt><trkpt lat="38.704220687213656" lon="16.47067716803505"><ele>447.85714285714283</ele><time>2026-05-03T10:24:07Z</time></trkpt><trkpt lat="38.704158303671115" lon="16.470700268042236"><ele>445.1428571428571</ele><time>2026-05-03T10:24:17Z</time></trkpt><trkpt lat="38.70409203940112" lon="16.470700921509405"><ele>442.42857142857144</ele><time>2026-05-03T10:24:25Z</time></trkpt><trkpt lat="38.704011116330946" lon="16.470738857334712"><ele>439.71428571428567</ele><time>2026-05-03T10:24:31Z</time></trkpt><trkpt lat="38.70397863230736" lon="16.470813148965505"><ele>437.0</ele><time>2026-05-03T10:24:37Z</time></trkpt><trkpt lat="38.70392311439166" lon="16.470876106208898"><ele>437.0</ele><time>2026-05-03T10:24:43Z</time></trkpt><trkpt lat="38.70386716615485" lon="16.47093860962603"><ele>437.0</ele><time>2026-05-03T10:24:53Z</time></trkpt><trkpt lat="38.70380461136029" lon="16.47098235467973"><ele>437.0</ele><time>2026-05-03T10:24:58Z</time></trkpt><trkpt lat="38.70376371663845" lon="16.471044869386844"><ele>437.0</ele><time>2026-05-03T10:25:08Z</time></trkpt><trkpt lat="38.70372418331056" lon="16.471113725733325"><ele>437.0</ele><time>2026-05-03T10:25:19Z</time></trkpt><trkpt lat="38.70368001110897" lon="16.47117322066491"><ele>437.0</ele><time>2026-05-03T10:26:35Z</time></trkpt><trkpt lat="38.703628230867444" lon="16.471220473546015"><ele>437.0</ele><time>2026-05-03T10:26:43Z</time></trkpt><trkpt lat="38.703560015922136" lon="16.47121147819066"><ele>434.4285714285714</ele><time>2026-05-03T10:26:51Z</time></trkpt><trkpt lat="38.703501682780896" lon="16.47126259750871"><ele>431.8571428571429</ele><time>2026-05-03T10:27:23Z</time></trkpt><trkpt lat="38.70343212968491" lon="16.47129914840783"><ele>429.2857142857143</ele><time>2026-05-03T10:27:30Z</time></trkpt><trkpt lat="38.70336608644952" lon="16.471354020025068"><ele>426.71428571428567</ele><time>2026-05-03T10:27:35Z</time></trkpt><trkpt lat="38.703299088958495" lon="16.471393334071784"><ele>424.1428571428571</ele><time>2026-05-03T10:27:40Z</time></trkpt><trkpt lat="38.70322909943172" lon="16.471421278097754"><ele>421.57142857142856</ele><time>2026-05-03T10:27:46Z</time></trkpt><trkpt lat="38.7031829364636" lon="16.47148017614921"><ele>419.0</ele><time>2026-05-03T10:27:52Z</time></trkpt><trkpt lat="38.70312511869108" lon="16.471516876683516"><ele>418.99999999999994</ele><time>2026-05-03T10:28:00Z</time></trkpt><trkpt lat="38.70304489890921" lon="16.471545769830183"><ele>419.0</ele><time>2026-05-03T10:28:08Z</time></trkpt><trkpt lat="38.70297157320658" lon="16.471592181911337"><ele>419.0</ele><time>2026-05-03T10:28:13Z</time></trkpt><trkpt lat="38.702906605752034" lon="16.471580670251445"><ele>419.0</ele><time>2026-05-03T10:28:18Z</time></trkpt><trkpt lat="38.70284100687641" lon="16.4715952812491"><ele>419.0</ele><time>2026-05-03T10:28:25Z</time></trkpt><trkpt lat="38.70276140155992" lon="16.47159338953113"><ele>418.99999999999994</ele><time>2026-05-03T10:28:32Z</time></trkpt><trkpt lat="38.70270860138148" lon="16.471655557027514"><ele>419.0</ele><time>2026-05-03T10:28:37Z</time></trkpt><trkpt lat="38.702646941887465" lon="16.471700861408575"><ele>417.71428571428567</ele><time>2026-05-03T10:28:44Z</time></trkpt><trkpt lat="38.70260845781457" lon="16.47176807196946"><ele>416.42857142857144</ele><time>2026-05-03T10:28:49Z</time></trkpt><trkpt lat="38.70256577633181" lon="16.471855111718423"><ele>415.1428571428571</ele><time>2026-05-03T10:28:55Z</time></trkpt><trkpt lat="38.70250648324291" lon="16.471919088526622"><ele>413.85714285714283</ele><time>2026-05-03T10:29:00Z</time></trkpt><trkpt lat="38.70247924619123" lon="16.47200544697701"><ele>412.57142857142856</ele><time>2026-05-03T10:29:06Z</time></trkpt><trkpt lat="38.702429757641454" lon="16.47206799613871"><ele>411.2857142857143</ele><time>2026-05-03T10:29:11Z</time></trkpt><trkpt lat="38.7023982207933" lon="16.472149945572784"><ele>410.0</ele><time>2026-05-03T10:29:16Z</time></trkpt><trkpt lat="38.702386519660585" lon="16.472240415725096"><ele>410.0</ele><time>2026-05-03T10:29:22Z</time></trkpt><trkpt lat="38.70235464493702" lon="16.472333363246797"><ele>410.0</ele><time>2026-05-03T10:29:29Z</time></trkpt><trkpt lat="38.7022878932129" lon="16.472335179794044"><ele>410.0</ele><time>2026-05-03T10:29:34Z</time></trkpt><trkpt lat="38.70221438947651" lon="16.472327105497683"><ele>410.0</ele><time>2026-05-03T10:29:38Z</time></trkpt><trkpt lat="38.70214375747741" lon="16.472369799099386"><ele>410.0</ele><time>2026-05-03T10:29:45Z</time></trkpt><trkpt lat="38.70208191313035" lon="16.472421273909188"><ele>410.0</ele><time>2026-05-03T10:29:50Z</time></trkpt><trkpt lat="38.70205709125541" lon="16.472499103391346"><ele>410.0</ele><time>2026-05-03T10:29:54Z</time></trkpt><trkpt lat="38.70199151331338" lon="16.47251065718774"><ele>410.0</ele><time>2026-05-03T10:29:59Z</time></trkpt><trkpt lat="38.7019256861054" lon="16.47249053217994"><ele>410.0</ele><time>2026-05-03T10:30:04Z</time></trkpt><trkpt lat="38.70186537433851" lon="16.472519993298157"><ele>410.0</ele><time>2026-05-03T10:30:14Z</time></trkpt><trkpt lat="38.70183377405808" lon="16.47260279962728"><ele>410.0</ele><time>2026-05-03T10:30:22Z</time></trkpt><trkpt lat="38.70180205445888" lon="16.472699407997116"><ele>410.0</ele><time>2026-05-03T10:30:32Z</time></trkpt><trkpt lat="38.70179460852218" lon="16.472797271567483"><ele>410.0</ele><time>2026-05-03T10:30:37Z</time></trkpt><trkpt lat="38.7017278791428" lon="16.472834321633357"><ele>410.0</ele><time>2026-05-03T10:30:43Z</time></trkpt><trkpt lat="38.70167930249973" lon="16.472887236224594"><ele>408.7142857142857</ele><time>2026-05-03T10:30:48Z</time></trkpt><trkpt lat="38.70161984354251" lon="16.472921973710715"><ele>407.4285714285714</ele><time>2026-05-03T10:31:17Z</time></trkpt><trkpt lat="38.701585185453425" lon="16.47299701532799"><ele>406.1428571428571</ele><time>2026-05-03T10:31:22Z</time></trkpt><trkpt lat="38.70153022031946" lon="16.473049726677374"><ele>404.8571428571429</ele><time>2026-05-03T10:31:27Z</time></trkpt><trkpt lat="38.70148817446552" lon="16.473113264027084"><ele>403.57142857142856</ele><time>2026-05-03T10:31:32Z</time></trkpt><trkpt lat="38.70145439233895" lon="16.473191628292863"><ele>402.2857142857143</ele><time>2026-05-03T10:31:37Z</time></trkpt><trkpt lat="38.70140127726021" lon="16.473259878351307"><ele>401.0</ele><time>2026-05-03T10:31:43Z</time></trkpt><trkpt lat="38.70135572518807" lon="16.4733255682438"><ele>400.57142857142856</ele><time>2026-05-03T10:31:48Z</time></trkpt><trkpt lat="38.701294796050846" lon="16.47335920531431"><ele>400.14285714285717</ele><time>2026-05-03T10:32:04Z</time></trkpt><trkpt lat="38.70127030657495" lon="16.473440018619097"><ele>399.71428571428567</ele><time>2026-05-03T10:32:09Z</time></trkpt><trkpt lat="38.70123294200543" lon="16.47352230233666"><ele>399.2857142857143</ele><time>2026-05-03T10:32:15Z</time></trkpt><trkpt lat="38.701179458105635" lon="16.473589116942556"><ele>398.85714285714283</ele><time>2026-05-03T10:32:20Z</time></trkpt><trkpt lat="38.70112826512737" lon="16.47363667707651"><ele>398.4285714285714</ele><time>2026-05-03T10:32:25Z</time></trkpt><trkpt lat="38.70108227219846" lon="16.473693929621035"><ele>398.0</ele><time>2026-05-03T10:32:28.999Z</time></trkpt><trkpt lat="38.70111066456657" lon="16.47378331963923"><ele>395.3333333333333</ele><time>2026-05-03T10:32:33.999Z</time></trkpt><trkpt lat="38.701164568125904" lon="16.47386245441326"><ele>392.66666666666663</ele><time>2026-05-03T10:32:39.999Z</time></trkpt><trkpt lat="38.7012212478946" lon="16.473908818786853"><ele>390.0</ele><time>2026-05-03T10:32:44Z</time></trkpt><trkpt lat="38.70129120424263" lon="16.473941749687"><ele>387.3333333333333</ele><time>2026-05-03T10:32:51Z</time></trkpt><trkpt lat="38.701370640976876" lon="16.47390641318788"><ele>384.66666666666663</ele><time>2026-05-03T10:32:55Z</time></trkpt><trkpt lat="38.70142996590932" lon="16.4738557328136"><ele>382.0</ele><time>2026-05-03T10:33:00Z</time></trkpt><trkpt lat="38.701476379885705" lon="16.473787353772508"><ele>382.0</ele><time>2026-05-03T10:33:07Z</time></trkpt><trkpt lat="38.701518357691576" lon="16.47371401124709"><ele>398.0</ele><time>2026-05-03T10:33:13Z</time></trkpt><trkpt lat="38.701579340656764" lon="16.473688310294975"><ele>398.0</ele><time>2026-05-03T10:33:19Z</time></trkpt><trkpt lat="38.70166505424249" lon="16.47368007746665"><ele>398.0</ele><time>2026-05-03T10:34:39Z</time></trkpt><trkpt lat="38.701608663514364" lon="16.47363651564411"><ele>398.0</ele><time>2026-05-03T10:34:52Z</time></trkpt></trkseg><trkseg><trkpt lat="38.69898797131127" lon="16.466555759636506"><ele>332.0</ele><time>2026-05-03T12:25:02Z</time></trkpt><trkpt lat="38.69902890060419" lon="16.466485753598405"><ele>332.0</ele><time>2026-05-03T12:25:25Z</time></trkpt><trkpt lat="38.69902324726168" lon="16.466393222314736"><ele>332.0</ele><time>2026-05-03T12:25:35Z</time></trkpt><trkpt lat="38.69901771950725" lon="16.46630487826615"><ele>332.0</ele><time>2026-05-03T12:25:42Z</time></trkpt><trkpt lat="38.69900724325424" lon="16.466212009280763"><ele>332.0</ele><time>2026-05-03T12:25:54Z</time></trkpt><trkpt lat="38.699206552653976" lon="16.465563968796022"><ele>332.0</ele><time>2026-05-03T12:27:09Z</time></trkpt><trkpt lat="38.69920238596433" lon="16.465474726092218"><ele>332.0</ele><time>2026-05-03T12:27:17Z</time></trkpt><trkpt lat="38.699190693358915" lon="16.46539508462442"><ele>332.0</ele><time>2026-05-03T12:27:23Z</time></trkpt><trkpt lat="38.69918673065429" lon="16.465310003953626"><ele>332.0</ele><time>2026-05-03T12:27:31Z</time></trkpt><trkpt lat="38.699191655927905" lon="16.465227980738042"><ele>332.0</ele><time>2026-05-03T12:27:38Z</time></trkpt><trkpt lat="38.69924107905517" lon="16.465159408691672"><ele>332.0</ele><time>2026-05-03T12:27:46Z</time></trkpt><trkpt lat="38.69926139621511" lon="16.46506523660304"><ele>332.0</ele><time>2026-05-03T12:27:53Z</time></trkpt><trkpt lat="38.69939399653671" lon="16.464046132941863"><ele>332.57142857142856</ele><time>2026-05-03T12:29:09Z</time></trkpt><trkpt lat="38.699398068531515" lon="16.46396521018952"><ele>333.14285714285717</ele><time>2026-05-03T12:29:16Z</time></trkpt><trkpt lat="38.69941043933907" lon="16.463884298110735"><ele>333.7142857142857</ele><time>2026-05-03T12:29:22Z</time></trkpt><trkpt lat="38.699416546262505" lon="16.463792745051627"><ele>334.2857142857143</ele><time>2026-05-03T12:29:28Z</time></trkpt><trkpt lat="38.699442424494265" lon="16.463702685613512"><ele>334.8571428571429</ele><time>2026-05-03T12:29:34Z</time></trkpt><trkpt lat="38.69948552926546" lon="16.463631247453954"><ele>335.42857142857144</ele><time>2026-05-03T12:29:42Z</time></trkpt><trkpt lat="38.69953516164703" lon="16.46356450600634"><ele>336.0</ele><time>2026-05-03T12:29:47Z</time></trkpt><trkpt lat="38.699507682178655" lon="16.46345898971018"><ele>336.0</ele><time>2026-05-03T12:29:52Z</time></trkpt><trkpt lat="38.69954726535138" lon="16.463366435963735"><ele>336.0</ele><time>2026-05-03T12:29:57Z</time></trkpt><trkpt lat="38.69967535022326" lon="16.462380647497508"><ele>334.57142857142856</ele><time>2026-05-03T12:31:09Z</time></trkpt><trkpt lat="38.69966868159839" lon="16.462294642946432"><ele>333.1428571428571</ele><time>2026-05-03T12:31:14Z</time></trkpt><trkpt lat="38.69968242847225" lon="16.46221129957991"><ele>331.7142857142857</ele><time>2026-05-03T12:31:20Z</time></trkpt><trkpt lat="38.69970130044378" lon="16.462129607266824"><ele>330.2857142857143</ele><time>2026-05-03T12:31:26Z</time></trkpt><trkpt lat="38.69971371351117" lon="16.46204657869298"><ele>328.85714285714283</ele><time>2026-05-03T12:31:31Z</time></trkpt><trkpt lat="38.699727559088366" lon="16.461963416628954"><ele>327.42857142857144</ele><time>2026-05-03T12:31:39Z</time></trkpt><trkpt lat="38.69973307107405" lon="16.461873766143025"><ele>326.0</ele><time>2026-05-03T12:31:45Z</time></trkpt><trkpt lat="38.699737628575676" lon="16.46179233799416"><ele>325.0</ele><time>2026-05-03T12:31:51Z</time></trkpt><trkpt lat="38.69974397144017" lon="16.461711414453973"><ele>324.0</ele><time>2026-05-03T12:31:57Z</time></trkpt><trkpt lat="38.69967491526774" lon="16.460883347122113"><ele>323.8571428571429</ele><time>2026-05-03T12:32:59Z</time></trkpt><trkpt lat="38.699645585560226" lon="16.460798707205843"><ele>323.7142857142857</ele><time>2026-05-03T12:33:04Z</time></trkpt><trkpt lat="38.69959697448177" lon="16.460718389832834"><ele>323.57142857142856</ele><time>2026-05-03T12:33:09Z</time></trkpt><trkpt lat="38.699610525261974" lon="16.460636262290095"><ele>323.42857142857144</ele><time>2026-05-03T12:33:15Z</time></trkpt><trkpt lat="38.69963345137598" lon="16.460548048060843"><ele>323.2857142857143</ele><time>2026-05-03T12:33:23Z</time></trkpt><trkpt lat="38.699606088773095" lon="16.460462410714317"><ele>323.14285714285717</ele><time>2026-05-03T12:33:30Z</time></trkpt><trkpt lat="38.69958792241691" lon="16.460380074495873"><ele>323.0</ele><time>2026-05-03T12:33:36Z</time></trkpt><trkpt lat="38.699570473637415" lon="16.460293296989573"><ele>322.6666666666667</ele><time>2026-05-03T12:33:42Z</time></trkpt><trkpt lat="38.69957826466415" lon="16.460204564634566"><ele>322.3333333333333</ele><time>2026-05-03T12:33:50Z</time></trkpt><trkpt lat="38.69959307697013" lon="16.460121176736124"><ele>322.0</ele><time>2026-05-03T12:33:56Z</time></trkpt><trkpt lat="38.70008838507246" lon="16.45959652282632"><ele>322.0</ele><time>2026-05-03T12:34:59Z</time></trkpt><trkpt lat="38.700136237307184" lon="16.459531879440835"><ele>322.0</ele><time>2026-05-03T12:35:05Z</time></trkpt><trkpt lat="38.70018065268207" lon="16.459470824226052"><ele>322.0</ele><time>2026-05-03T12:35:10Z</time></trkpt><trkpt lat="38.70022265117033" lon="16.459409143883853"><ele>322.0</ele><time>2026-05-03T12:35:16Z</time></trkpt><trkpt lat="38.7002674384111" lon="16.45934279691996"><ele>322.0</ele><time>2026-05-03T12:35:22Z</time></trkpt><trkpt lat="38.70030585839887" lon="16.45927483872556"><ele>322.0</ele><time>2026-05-03T12:35:27Z</time></trkpt><trkpt lat="38.70035194619617" lon="16.459201296133887"><ele>322.0</ele><time>2026-05-03T12:35:58Z</time></trkpt><trkpt lat="38.70038495619742" lon="16.458513325254916"><ele>322.0</ele><time>2026-05-03T12:37:09Z</time></trkpt><trkpt lat="38.70035757948392" lon="16.45844037551911"><ele>322.0</ele><time>2026-05-03T12:37:15Z</time></trkpt><trkpt lat="38.70033794421499" lon="16.45835544166629"><ele>322.0</ele><time>2026-05-03T12:37:22Z</time></trkpt><trkpt lat="38.70032503201401" lon="16.458261081947754"><ele>322.0</ele><time>2026-05-03T12:37:29Z</time></trkpt><trkpt lat="38.70032844829467" lon="16.458172846156327"><ele>322.0</ele><time>2026-05-03T12:37:36Z</time></trkpt><trkpt lat="38.7003222266691" lon="16.458091778902762"><ele>322.0</ele><time>2026-05-03T12:37:42Z</time></trkpt><trkpt lat="38.7003111203649" lon="16.458011108226277"><ele>322.0</ele><time>2026-05-03T12:37:48Z</time></trkpt><trkpt lat="38.700309574396854" lon="16.457917765874956"><ele>322.0</ele><time>2026-05-03T12:37:55Z</time></trkpt><trkpt lat="38.70078454200835" lon="16.457253937997105"><ele>322.0</ele><time>2026-05-03T12:39:09Z</time></trkpt><trkpt lat="38.7008577163223" lon="16.45723885021055"><ele>322.0</ele><time>2026-05-03T12:39:15Z</time></trkpt><trkpt lat="38.7009284248511" lon="16.45722148773343"><ele>322.0</ele><time>2026-05-03T12:39:21Z</time></trkpt><trkpt lat="38.70099451256681" lon="16.457205565964365"><ele>322.0</ele><time>2026-05-03T12:39:27Z</time></trkpt><trkpt lat="38.70105378394972" lon="16.457175736158565"><ele>322.0</ele><time>2026-05-03T12:39:33Z</time></trkpt><trkpt lat="38.70112135952302" lon="16.45715468885842"><ele>322.0</ele><time>2026-05-03T12:39:39Z</time></trkpt><trkpt lat="38.701197358077394" lon="16.457140157479497"><ele>322.0</ele><time>2026-05-03T12:39:45Z</time></trkpt><trkpt lat="38.701773485489355" lon="16.45691737340229"><ele>324.0</ele><time>2026-05-03T12:40:59Z</time></trkpt><trkpt lat="38.70172445647335" lon="16.45686215864391"><ele>324.0</ele><time>2026-05-03T12:41:04Z</time></trkpt><trkpt lat="38.701654431605995" lon="16.456880733994993"><ele>324.0</ele><time>2026-05-03T12:41:11Z</time></trkpt><trkpt lat="38.70159175972887" lon="16.45679424315639"><ele>324.0</ele><time>2026-05-03T12:49:11Z</time></trkpt><trkpt lat="38.70159175972887" lon="16.45679424315639"><ele>324.0</ele><time>2026-05-03T12:49:11Z</time></trkpt><trkpt lat="38.70159175972887" lon="16.45679424315639"><ele>324.0</ele><time>2026-05-03T12:49:11Z</time></trkpt></trkseg></trk></gpx>